[[{"header":{"parameterUnit":"m.s-1","parameterCategory":1,"la1":30.6,"la2":29.2853,"lo1":-89.7004,"lo2":-87.6739,"dy":0.0162,"dx":0.0183,"nx":112,"ny":82,"refTime":"2023-07-20T00:00:00:Z","depth":0,"parameterNumber":2,"parameterNumberName":"U-component_of_WINDS"},"data":[0.0,0.0,0.0,0.0,0.0,0.0,0.0,0.0,0.0,0.0,0.0,0.0,0.0,0.0,0.0,0.0,0.0,0.0,0.0,0.0,0.0,0.0,0.0,0.0,0.0,0.0,0.0,0.0,0.0,0.0,0.0,0.0,0.0,0.0,0.0,0.0,0.0,0.0,0.0,0.0,0.0,0.0,0.0,0.0,0.0,0.0,0.0,0.0,0.0,0.0,0.0,0.0,0.0,0.0,0.0,0.0,0.0,0.0,0.0,0.0,0.0,0.0,0.0,0.0,0.0,0.0,0.0,0.0,0.0,0.0,0.0,0.0,0.0,0.0,0.0,0.0,0.0,0.0,0.0,0.0,0.0,0.0,0.0,0.0,0.0,0.0,0.0,0.0,0.0,0.0,-1.8887,-2.0977,-2.4297,-2.6445,-2.6582,-2.6719,-2.5644,-2.2891,0.0,0.0,0.0,0.0,0.0,0.0,0.0,0.0,0.0,0.0,0.0,0.0,0.0,0.0,0.0,0.0,0.0,0.0,0.0,0.0,0.0,0.0,0.0,0.0,0.0,0.0,0.0,0.0,0.0,0.0,0.0,0.0,0.0,0.0,0.0,0.0,0.0,0.0,0.0,0.0,0.0,0.0,0.0,0.0,0.0,0.0,0.0,0.0,0.0,0.0,0.0,0.0,0.0,0.0,0.0,0.0,0.0,0.0,0.0,0.0,0.0,0.0,0.0,0.0,0.0,0.0,0.0,0.0,0.0,0.0,0.0,0.0,0.0,0.0,0.0,0.0,0.0,0.0,0.0,0.0,0.0,0.0,0.0,0.0,0.0,0.0,0.0,0.0,0.0,0.0,0.0,0.0,0.0,0.0,0.0,0.0,0.0,0.0,0.0,0.0,0.0,0.0,0.0,0.0,-1.9865,-2.3457,-2.5371,-2.668,-2.7454,-2.6523,-2.5254,-2.3691,0.0,0.0,0.0,0.0,0.0,0.0,0.0,0.0,0.0,0.0,0.0,0.0,0.0,0.0,0.0,0.0,0.0,0.0,0.0,0.0,0.0,0.0,0.0,0.0,0.0,0.0,0.0,0.0,0.0,0.0,0.0,0.0,0.0,0.0,0.0,0.0,0.0,0.0,0.0,0.0,0.0,0.0,0.0,0.0,0.0,0.0,0.0,0.0,0.0,0.0,0.0,0.0,0.0,0.0,0.0,0.0,0.0,0.0,0.0,0.0,0.0,0.0,0.0,0.0,0.0,0.0,0.0,0.0,0.0,0.0,0.0,0.0,0.0,0.0,0.0,0.0,0.0,0.0,0.0,0.0,0.0,0.0,0.0,0.0,0.0,0.0,0.0,0.0,0.0,0.0,0.0,0.0,0.0,0.0,0.0,0.0,0.0,0.0,0.0,0.0,0.0,0.0,0.0,-1.959,-2.1426,-2.4121,-2.5801,-2.6894,-2.7285,-2.6348,-2.5176,-2.3867,-2.2773,0.0,0.0,0.0,0.0,0.0,0.0,0.0,0.0,0.0,0.0,0.0,0.0,0.0,0.0,0.0,0.0,0.0,0.0,0.0,0.0,0.0,0.0,0.0,0.0,0.0,0.0,0.0,0.0,0.0,0.0,0.0,0.0,0.0,0.0,0.0,0.0,0.0,0.0,0.0,0.0,0.0,0.0,0.0,0.0,0.0,0.0,0.0,0.0,0.0,0.0,0.0,0.0,0.0,0.0,0.0,0.0,0.0,0.0,0.0,0.0,0.0,0.0,0.0,0.0,0.0,0.0,0.0,0.0,0.0,0.0,0.0,0.0,0.0,0.0,0.0,0.0,0.0,0.0,0.0,0.0,0.0,0.0,0.0,0.0,0.0,0.0,0.0,0.0,0.0,0.0,0.0,0.0,0.0,0.0,0.0,0.0,0.0,0.0,0.0,0.0,0.0,0.0,-2.1133,-2.2578,-2.4375,-2.5957,-2.6914,-2.7012,-2.5986,-2.4961,-2.3867,-2.2402,0.0,0.0,0.0,0.0,0.0,0.0,0.0,0.0,0.0,0.0,0.0,0.0,0.0,0.0,0.0,0.0,0.0,0.0,0.0,0.0,0.0,0.0,0.0,0.0,0.0,0.0,0.0,0.0,0.0,0.0,0.0,0.0,0.0,0.0,0.0,0.0,0.0,0.0,0.0,0.0,0.0,0.0,0.0,0.0,0.0,0.0,0.0,0.0,0.0,0.0,0.0,0.0,0.0,0.0,0.0,0.0,0.0,0.0,0.0,0.0,0.0,0.0,0.0,0.0,0.0,0.0,0.0,0.0,0.0,0.0,0.0,0.0,0.0,0.0,0.0,0.0,0.0,0.0,0.0,0.0,0.0,0.0,0.0,0.0,0.0,0.0,0.0,0.0,0.0,0.0,0.0,0.0,0.0,0.0,0.0,0.0,0.0,0.0,0.0,0.0,0.0,0.0,-2.1349,-2.2695,-2.4851,-2.5879,-2.6582,-2.6973,-2.5469,-2.4297,-2.3828,-2.1858,0.0,0.0,0.0,0.0,0.0,0.0,0.0,0.0,0.0,0.0,0.0,0.0,0.0,0.0,0.0,0.0,0.0,0.0,0.0,0.0,0.0,0.0,0.0,0.0,0.0,0.0,0.0,0.0,0.0,0.0,0.0,0.0,0.0,0.0,0.0,0.0,0.0,0.0,0.0,0.0,0.0,0.0,0.0,0.0,0.0,0.0,0.0,0.0,0.0,0.0,0.0,0.0,0.0,0.0,0.0,0.0,0.0,0.0,0.0,0.0,0.0,0.0,0.0,0.0,0.0,0.0,0.0,0.0,0.0,0.0,0.0,0.0,0.0,0.0,0.0,0.0,0.0,0.0,0.0,0.0,0.0,0.0,0.0,0.0,0.0,0.0,0.0,0.0,0.0,0.0,0.0,0.0,0.0,0.0,0.0,0.0,0.0,0.0,0.0,0.0,0.0,0.0,-2.1562,-2.2891,0.0,-2.5703,-2.6348,-2.6181,-2.5371,-2.4414,-2.3437,0.0,0.0,0.0,0.0,0.0,0.0,0.0,0.0,0.0,0.0,0.0,0.0,0.0,0.0,0.0,0.0,0.0,0.0,0.0,0.0,0.0,0.0,0.0,0.0,0.0,0.0,0.0,0.0,0.0,0.0,0.0,0.0,0.0,0.0,0.0,0.0,0.0,0.0,0.0,0.0,0.0,0.0,0.0,0.0,0.0,0.0,0.0,0.0,0.0,0.0,0.0,0.0,0.0,0.0,0.0,0.0,0.0,0.0,0.0,0.0,0.0,0.0,0.0,0.0,0.0,0.0,0.0,0.0,0.0,0.0,0.0,0.0,0.0,0.0,0.0,0.0,0.0,0.0,0.0,0.0,0.0,0.0,0.0,0.0,0.0,0.0,0.0,0.0,0.0,0.0,0.0,0.0,0.0,0.0,0.0,0.0,0.0,0.0,0.0,0.0,0.0,0.0,-2.0449,-2.1699,-2.2949,0.0,-2.5273,-2.5801,-2.5304,-2.4668,-2.3887,-2.2964,0.0,0.0,0.0,0.0,0.0,0.0,0.0,0.0,0.0,0.0,0.0,0.0,0.0,0.0,0.0,0.0,0.0,0.0,0.0,0.0,0.0,0.0,0.0,0.0,0.0,0.0,0.0,0.0,0.0,0.0,0.0,0.0,0.0,0.0,0.0,0.0,0.0,0.0,0.0,0.0,0.0,0.0,0.0,0.0,0.0,0.0,0.0,0.0,0.0,0.0,0.0,0.0,0.0,0.0,0.0,0.0,0.0,0.0,0.0,0.0,0.0,0.0,0.0,0.0,0.0,0.0,0.0,0.0,0.0,0.0,0.0,0.0,0.0,0.0,0.0,0.0,0.0,0.0,0.0,0.0,0.0,0.0,0.0,0.0,0.0,0.0,0.0,0.0,0.0,0.0,0.0,0.0,0.0,0.0,0.0,0.0,0.0,0.0,0.0,0.0,0.0,0.0,-2.0449,-2.1699,-2.2852,-2.3691,-2.4597,-2.4883,-2.4453,-2.3262,-2.2519,0.0,0.0,0.0,0.0,0.0,0.0,0.0,0.0,0.0,0.0,0.0,0.0,0.0,0.0,0.0,0.0,0.0,0.0,0.0,0.0,0.0,0.0,0.0,0.0,0.0,0.0,0.0,0.0,0.0,0.0,0.0,0.0,0.0,0.0,0.0,0.0,0.0,0.0,0.0,0.0,0.0,0.0,0.0,0.0,0.0,0.0,0.0,0.0,0.0,0.0,0.0,0.0,0.0,0.0,0.0,0.0,0.0,0.0,0.0,0.0,0.0,0.0,0.0,0.0,0.0,0.0,0.0,0.0,0.0,0.0,0.0,0.0,0.0,0.0,0.0,0.0,0.0,0.0,0.0,0.0,0.0,0.0,0.0,0.0,0.0,0.0,0.0,0.0,0.0,0.0,0.0,0.0,0.0,0.0,0.0,0.0,0.0,0.0,0.0,0.0,0.0,0.0,0.0,-2.0898,-2.1894,-2.2852,-2.3691,-2.4277,-2.4551,-2.4434,-2.3809,-2.3164,-2.2559,0.0,0.0,0.0,0.0,0.0,0.0,0.0,0.0,0.0,0.0,0.0,0.0,0.0,0.0,0.0,0.0,0.0,0.0,0.0,0.0,0.0,0.0,0.0,0.0,0.0,0.0,0.0,0.0,0.0,0.0,0.0,0.0,0.0,0.0,0.0,0.0,0.0,0.0,0.0,0.0,0.0,0.0,0.0,0.0,0.0,0.0,0.0,0.0,0.0,0.0,0.0,0.0,0.0,0.0,0.0,0.0,0.0,0.0,0.0,0.0,0.0,0.0,0.0,0.0,0.0,0.0,0.0,0.0,0.0,0.0,0.0,0.0,0.0,0.0,0.0,0.0,0.0,0.0,0.0,0.0,0.0,0.0,0.0,0.0,0.0,0.0,0.0,0.0,0.0,0.0,0.0,0.0,0.0,0.0,0.0,0.0,0.0,0.0,0.0,0.0,0.0,0.0,-2.1073,-2.1951,-2.2773,-2.3457,-2.3906,-2.4102,-2.3881,-2.3516,-2.3066,-2.2539,0.0,0.0,0.0,0.0,0.0,0.0,0.0,0.0,0.0,0.0,0.0,0.0,0.0,0.0,0.0,0.0,0.0,0.0,0.0,0.0,0.0,0.0,0.0,0.0,0.0,0.0,0.0,0.0,0.0,0.0,0.0,0.0,0.0,0.0,0.0,0.0,0.0,0.0,0.0,0.0,0.0,0.0,0.0,0.0,0.0,0.0,0.0,0.0,0.0,0.0,0.0,0.0,0.0,0.0,0.0,0.0,0.0,0.0,0.0,0.0,0.0,0.0,0.0,0.0,0.0,0.0,0.0,0.0,0.0,0.0,0.0,0.0,0.0,0.0,0.0,0.0,0.0,0.0,0.0,0.0,0.0,0.0,0.0,0.0,0.0,0.0,0.0,0.0,0.0,0.0,0.0,0.0,0.0,0.0,0.0,0.0,0.0,0.0,0.0,0.0,0.0,0.0,-2.1151,-2.2012,-2.2676,-2.3042,-2.3496,-2.3574,-2.314,-2.275,-2.2559,-2.2519,0.0,0.0,0.0,0.0,0.0,0.0,0.0,0.0,0.0,0.0,0.0,0.0,0.0,0.0,0.0,0.0,0.0,0.0,0.0,0.0,0.0,0.0,0.0,0.0,0.0,0.0,0.0,0.0,0.0,0.0,0.0,0.0,0.0,0.0,0.0,0.0,0.0,0.0,0.0,0.0,0.0,0.0,0.0,0.0,0.0,0.0,0.0,0.0,0.0,0.0,0.0,0.0,0.0,0.0,0.0,0.0,0.0,0.0,0.0,0.0,-1.4482,0.0,0.0,0.0,0.0,0.0,0.0,0.0,0.0,0.0,0.0,0.0,0.0,0.0,0.0,0.0,0.0,0.0,0.0,0.0,0.0,0.0,0.0,0.0,0.0,0.0,0.0,0.0,0.0,0.0,0.0,0.0,0.0,0.0,0.0,0.0,0.0,0.0,0.0,0.0,0.0,0.0,-2.168,-2.2187,-2.2676,-2.3042,-2.3179,-2.3198,-2.3101,-2.3023,-2.2828,-2.2539,-2.2344,0.0,0.0,0.0,0.0,0.0,0.0,0.0,0.0,0.0,0.0,0.0,0.0,0.0,0.0,0.0,0.0,0.0,0.0,0.0,0.0,0.0,0.0,0.0,0.0,0.0,0.0,0.0,0.0,0.0,0.0,0.0,0.0,0.0,0.0,0.0,0.0,0.0,0.0,0.0,0.0,0.0,0.0,0.0,0.0,0.0,0.0,0.0,0.0,0.0,0.0,0.0,0.0,0.0,0.0,0.0,0.0,0.0,0.0,0.0,0.0,-1.5364,0.0,0.0,0.0,0.0,0.0,0.0,0.0,0.0,0.0,0.0,0.0,0.0,0.0,0.0,0.0,0.0,0.0,0.0,0.0,0.0,0.0,0.0,0.0,0.0,0.0,0.0,0.0,0.0,0.0,0.0,0.0,0.0,0.0,0.0,0.0,0.0,0.0,0.0,0.0,0.0,-2.2129,-2.2559,-2.2988,-2.3398,-2.3457,-2.3457,-2.3457,-2.3218,-2.3003,-2.2789,-2.2617,0.0,0.0,0.0,0.0,0.0,0.0,0.0,0.0,0.0,0.0,0.0,0.0,0.0,0.0,0.0,0.0,0.0,0.0,0.0,0.0,0.0,0.0,0.0,0.0,0.0,0.0,0.0,0.0,0.0,0.0,0.0,0.0,0.0,0.0,0.0,0.0,0.0,0.0,0.0,0.0,0.0,0.0,0.0,0.0,0.0,0.0,0.0,0.0,0.0,0.0,0.0,0.0,0.0,-1.742,-1.7675,-1.8062,-1.7862,-1.8009,-1.8437,-1.7408,-1.67,-1.6224,-1.5467,0.0,0.0,0.0,0.0,0.0,0.0,0.0,0.0,0.0,0.0,0.0,0.0,0.0,0.0,0.0,0.0,0.0,0.0,0.0,0.0,0.0,0.0,0.0,0.0,-2.1207,-2.1182,0.0,0.0,0.0,0.0,0.0,0.0,0.0,0.0,0.0,0.0,0.0,0.0,-2.2559,-2.3008,-2.3482,-2.3848,-2.3906,-2.3906,-2.3906,-2.3496,-2.3198,-2.3198,-2.2808,-2.2578,0.0,0.0,0.0,0.0,0.0,0.0,0.0,0.0,0.0,0.0,0.0,0.0,0.0,0.0,0.0,0.0,0.0,0.0,0.0,0.0,0.0,0.0,0.0,0.0,0.0,0.0,0.0,0.0,0.0,0.0,0.0,0.0,-1.3253,-1.3507,0.0,0.0,0.0,0.0,0.0,0.0,0.0,0.0,0.0,0.0,0.0,0.0,0.0,-1.6834,-1.7636,-1.8182,-1.8183,-1.7581,-1.8237,-1.8517,-1.8437,-1.8384,-1.841,-1.8544,-1.9359,0.0,-1.8022,-1.6355,0.0,0.0,0.0,0.0,0.0,0.0,0.0,0.0,0.0,0.0,0.0,0.0,0.0,0.0,0.0,0.0,0.0,0.0,0.0,0.0,0.0,0.0,-2.1083,-2.2975,-2.4256,-2.489,0.0,-2.2834,-2.1771,-2.2591,-2.2732,0.0,0.0,0.0,0.0,0.0,0.0,0.0,-2.2964,-2.3437,-2.3867,-2.4297,-2.4336,-2.4336,-2.4336,-2.3945,-2.3711,-2.3711,-2.3301,-2.2847,-2.2519,-2.2461,0.0,0.0,0.0,0.0,0.0,0.0,0.0,0.0,0.0,0.0,0.0,0.0,0.0,0.0,0.0,0.0,0.0,0.0,0.0,0.0,0.0,0.0,0.0,0.0,0.0,0.0,0.0,0.0,0.0,-1.3467,-1.3935,-1.3895,-1.4188,-1.4309,0.0,0.0,0.0,0.0,0.0,0.0,0.0,0.0,0.0,-1.7502,-1.7796,-1.8384,-1.9208,-1.9693,-1.98,-1.9573,-2.0147,-2.0601,-2.0935,-2.0601,-2.0641,-2.0975,-2.1483,-2.1416,-2.0828,-1.8687,-1.7001,-1.5857,0.0,0.0,0.0,0.0,-1.7023,-1.705,-1.7261,-1.717,0.0,-1.6981,0.0,0.0,0.0,0.0,0.0,0.0,0.0,0.0,0.0,0.0,-2.1221,-2.4799,-2.4826,-2.4416,-2.5844,-2.5275,-2.4269,0.0,-2.3496,-2.3359,-2.2906,0.0,0.0,0.0,0.0,-2.3301,-2.3477,-2.4082,-2.457,-2.4766,-2.4785,-2.4785,-2.4785,-2.418,-2.3789,-2.3789,-2.3379,-2.3023,-2.2828,-2.2828,-2.2676,0.0,0.0,0.0,0.0,0.0,0.0,0.0,0.0,0.0,0.0,0.0,0.0,0.0,0.0,0.0,0.0,0.0,0.0,0.0,0.0,0.0,0.0,0.0,0.0,0.0,0.0,0.0,0.0,-1.4148,-1.4576,-1.4135,-1.487,-1.5124,0.0,0.0,0.0,0.0,0.0,0.0,-1.6927,-1.7716,-1.8464,-1.9132,-1.9519,-2.0134,-2.0952,-2.1162,-2.1416,-2.179,-2.1924,-2.2458,-2.33,-2.2859,-2.2899,-2.3313,-2.3313,-2.3313,-2.3153,-2.0803,-1.8618,-1.6847,-1.8007,-1.8496,-1.8496,-1.8372,-1.8384,-1.841,-1.8637,-1.8517,-1.8169,-1.7929,0.0,-1.7499,-1.6635,0.0,0.0,0.0,0.0,-1.9542,-2.1422,-2.1358,-2.1964,-2.6461,-2.5463,-2.4226,-2.6672,-2.6934,-2.623,0.0,-2.4199,-2.3984,-2.3491,0.0,0.0,0.0,0.0,-2.3984,-2.4102,-2.4715,-2.5165,-2.5234,-2.5234,-2.5234,-2.5234,-2.4453,-2.3945,-2.3945,-2.3437,-2.3101,-2.3101,-2.3101,-2.2945,-2.2676,0.0,0.0,0.0,0.0,0.0,0.0,0.0,0.0,0.0,0.0,0.0,0.0,0.0,0.0,0.0,0.0,0.0,0.0,0.0,0.0,0.0,0.0,0.0,0.0,0.0,0.0,0.0,0.0,0.0,-1.4188,-1.5591,0.0,0.0,0.0,0.0,-1.7032,-1.7367,-1.7876,-1.8744,-1.9359,-2.008,-2.0949,-2.1537,-2.2258,-2.3166,-2.2886,-2.3046,-2.3634,-2.3073,-2.342,-2.4543,-2.4516,-2.4516,-2.4543,-2.4543,-2.4543,-2.4369,-2.1951,-2.0307,-1.93,-2.0479,-2.0931,-2.0787,-1.9751,-1.9305,-1.9305,-1.9377,-1.9132,-1.8971,-1.9492,-1.9292,-1.8712,-1.8085,-1.7916,0.0,0.0,-1.9315,-2.124,-2.3343,-2.3623,-2.4336,-2.7943,-2.7321,-2.6262,-2.7381,-2.7669,-2.7207,0.0,-2.5293,-2.4863,-2.4434,0.0,-2.4219,-2.3809,-2.4121,-2.4531,-2.4988,-2.5086,-2.5234,-2.5615,-2.5654,-2.5654,-2.5654,-2.4902,-2.4375,-2.4375,-2.3549,-2.3101,-2.3101,-2.3101,-2.3081,-2.3062,-2.2672,0.0,0.0,0.0,0.0,0.0,0.0,0.0,0.0,0.0,0.0,0.0,0.0,0.0,0.0,0.0,0.0,0.0,0.0,0.0,0.0,0.0,0.0,0.0,0.0,0.0,0.0,0.0,0.0,-1.6353,-1.7569,0.0,-1.7315,-1.7689,-1.8143,-1.8599,-1.9199,-1.996,-2.0842,-2.1643,-2.2392,-2.3073,-2.3487,-2.3941,-2.4449,-2.4155,-2.4115,-2.4329,-2.4489,-2.4983,-2.5758,-2.5758,-2.5758,-2.5758,-2.5758,-2.5331,-2.4549,-2.3715,-2.2653,-2.1703,-2.211,-2.2125,-2.177,-2.1051,-2.0837,-2.0864,-2.0989,-2.0855,-2.0561,-2.0201,-1.9426,-1.8628,-1.861,-1.8467,-1.8573,-1.9846,-2.0067,-2.0628,-2.3545,-2.3698,-2.3827,-2.6965,-2.7323,-2.7233,-2.8633,-2.8941,-2.8672,-2.793,-2.6777,-2.5684,-2.4961,-2.4844,-2.4687,-2.4258,-2.4805,-2.5215,-2.5125,-2.5566,-2.5879,-2.5693,-2.5693,-2.5625,-2.5332,-2.4766,-2.4297,-2.4023,-2.3457,-2.3101,-2.3101,-2.3101,-2.3101,-2.3101,-2.2945,-2.2715,0.0,0.0,0.0,0.0,0.0,0.0,0.0,0.0,0.0,0.0,0.0,0.0,0.0,0.0,0.0,0.0,0.0,0.0,0.0,0.0,0.0,0.0,0.0,0.0,0.0,0.0,-1.7943,-1.7889,-1.9256,-1.984,-1.9145,-1.9613,-2.004,-2.0241,-2.1162,-2.1977,-2.2552,-2.3527,-2.4155,-2.4342,-2.4823,-2.5157,-2.5317,-2.5064,-2.497,-2.5037,-2.5558,-2.6119,-2.668,-2.648,-2.6386,-2.6386,-2.6386,-2.5945,-2.5202,-2.475,-2.4342,-2.3852,-2.3547,-2.3215,-2.2833,-2.2445,-2.2365,-2.2365,-2.2285,-2.2084,-2.1724,-2.0935,-2.008,-1.9372,-1.9502,-1.935,-1.9604,-2.1459,-2.1824,-2.2259,-2.5094,-2.5186,-2.5109,-2.7549,-2.7687,-2.771,-2.9271,-2.9626,-2.9492,-2.9199,-2.7988,-2.6758,-2.5879,-2.5723,-2.5586,-2.5156,-2.5703,-2.6016,-2.5566,-2.6035,-2.623,-2.5732,-2.5693,-2.5547,-2.5145,-2.4668,-2.4238,-2.3828,-2.3379,-2.3101,-2.3101,-2.3101,-2.3101,-2.3101,-2.2964,-2.275,-2.2519,0.0,0.0,0.0,0.0,0.0,0.0,0.0,0.0,0.0,0.0,0.0,0.0,0.0,0.0,0.0,0.0,0.0,0.0,0.0,0.0,0.0,0.0,0.0,-1.6032,-1.7969,-1.9239,-1.8718,-2.0489,-2.1309,-2.0454,-2.1403,-2.2071,-2.2098,-2.3166,-2.3834,-2.3848,-2.493,-2.5291,-2.473,-2.5545,-2.5945,-2.5852,-2.5638,-2.5638,-2.5838,-2.6226,-2.672,-2.7255,-2.668,-2.6413,-2.6413,-2.64,-2.6386,-2.6294,-2.5135,-2.51,-2.5732,-2.4943,-2.4375,-2.4035,-2.3852,-2.3768,-2.3674,-2.3155,-2.2672,-2.2325,-2.1764,-2.1376,-2.1122,-2.0879,-2.0828,-2.1156,-2.2737,-2.453,-2.6349,-2.7931,-2.8197,-2.8391,-2.9795,-2.8728,-2.7803,-2.9329,-2.9665,-2.9665,-2.959,-2.8926,-2.8086,-2.7207,-2.7051,-2.6894,-2.6465,-2.6758,0.0,-2.6465,-2.6426,-2.6269,-2.5771,-2.5713,-2.5566,-2.5165,-2.4668,-2.4238,-2.3789,-2.3335,-2.3101,-2.3101,-2.3101,-2.3101,-2.3101,-2.2734,-2.2539,-2.2539,0.0,0.0,0.0,0.0,0.0,0.0,0.0,0.0,0.0,0.0,0.0,0.0,0.0,0.0,0.0,0.0,0.0,0.0,0.0,0.0,0.0,0.0,-1.8891,-1.8731,-2.0,-2.136,-2.2205,-2.3193,-2.3688,-2.3447,-2.3714,-2.4088,-2.4516,-2.485,-2.5224,-2.5651,-2.6172,-2.6386,-2.6226,-2.6667,-2.6894,-2.6867,-2.6386,-2.6319,-2.6653,-2.6907,-2.7188,-2.7551,-2.7161,-2.7028,-2.7001,-2.6573,-2.6386,-2.6386,-2.603,-2.6067,-2.6158,-2.5032,-2.4543,-2.4356,-2.3928,-2.3634,-2.342,-2.326,-2.2859,-2.2392,-2.2231,-2.1963,-2.1933,-2.2822,-2.3068,-2.3396,-2.483,-2.561,-2.6106,-2.653,-2.7484,-2.8382,-2.8796,-2.9385,-3.0045,-3.047,-3.0527,-3.043,-3.0098,-2.9824,-2.9297,-2.8144,-2.7695,-2.7344,-2.6914,-2.7207,0.0,-2.6894,-2.7109,-2.7148,-2.6699,-2.6387,-2.5898,-2.5184,-2.4668,-2.4102,-2.3315,-2.3159,-2.3101,-2.3101,-2.3101,-2.3101,-2.3101,-2.2984,-2.2925,0.0,0.0,0.0,0.0,0.0,0.0,0.0,0.0,0.0,0.0,0.0,0.0,0.0,0.0,0.0,0.0,0.0,0.0,0.0,0.0,0.0,0.0,-1.9706,-2.1162,-2.1911,-2.2392,-2.3033,-2.4022,-2.4649,-2.501,-2.501,-2.5117,-2.5331,-2.5678,-2.5812,-2.6079,-2.6547,-2.6854,-2.7041,-2.7121,-2.7335,-2.7428,-2.7388,-2.7054,-2.6947,-2.7094,-2.7121,-2.7308,-2.7615,-2.7375,-2.7402,0.0,-2.6747,-2.6423,-2.6378,-2.6381,-2.631,0.0,0.0,0.0,0.0,0.0,-2.3875,-2.3514,-2.3514,-2.3584,-2.3697,-2.3571,-2.3809,-2.4247,-2.4921,-2.499,-2.5157,-2.6628,-2.6987,-2.7194,-2.7871,-2.8742,-2.9471,-2.9471,-3.0216,-3.0898,-3.0898,-3.0898,-3.082,-3.0547,-3.0332,0.0,-2.9219,-2.8594,-2.8105,-2.7851,-2.7871,-2.7773,-2.7344,-2.75,-2.75,-2.707,-2.6641,-2.6113,-2.541,-2.4785,0.0,0.0,0.0,-2.3101,-2.3101,-2.3101,0.0,0.0,0.0,-2.3101,-2.3101,0.0,0.0,0.0,-2.2402,-2.2402,0.0,0.0,0.0,0.0,0.0,0.0,0.0,0.0,0.0,0.0,0.0,0.0,0.0,0.0,0.0,0.0,-2.1737,-2.3313,-2.5037,-2.485,-2.4649,-2.4903,-2.5358,-2.5665,-2.5665,-2.5905,-2.6144,-2.6106,-2.6373,-2.6653,-2.6907,0.0,0.0,0.0,0.0,-2.7709,-2.7712,-2.7712,-2.7618,-2.7362,-2.7188,-2.7308,-2.7682,-2.7415,-2.7645,-2.8033,-2.6854,-2.6367,-2.6411,-2.643,-2.609,-2.5657,-2.5478,-2.5291,-2.4997,-2.473,-2.4262,-2.3768,-2.3768,0.0,0.0,-2.5218,-2.61,-2.7201,-2.7074,-2.6695,-2.6678,-2.8063,-2.8582,-2.8979,-3.0274,-3.0762,-3.0898,-3.0898,-3.0898,-3.0898,-3.0898,-3.0898,-3.0898,-3.0898,-3.0547,-3.0273,-3.0273,-2.9531,-2.8926,-2.8926,-2.8555,-2.8164,-2.7793,-2.7787,-2.7578,-2.7207,0.0,0.0,-2.581,-2.5,-2.4277,-2.3828,-2.3379,-2.3101,-2.3101,-2.3101,-2.3101,-2.3101,-2.3101,-2.3101,-2.3101,-2.3101,-2.3101,-2.3101,-2.3101,-2.3101,0.0,0.0,0.0,0.0,0.0,0.0,0.0,0.0,0.0,0.0,0.0,0.0,0.0,0.0,0.0,-2.1737,-2.3434,-2.501,-2.6306,-2.6587,-2.6694,-2.6747,-2.664,-2.6573,-2.6573,-2.6613,-2.6747,-2.6987,-2.7281,-2.7468,-2.7522,-2.7816,-2.7883,-2.7682,-2.7923,-2.8127,-2.8114,-2.8114,-2.81,-2.806,0.0,0.0,-2.7696,-2.7562,-2.7388,-2.7175,-2.6627,-2.6412,-2.637,-2.6366,-2.5796,-2.4846,-2.5108,-2.4983,-2.4716,-2.4589,-2.4262,-2.3768,-2.3768,-2.4525,-2.548,-2.544,-2.6574,-2.8196,-2.9223,-2.9197,0.0,-2.8932,-2.9655,-3.0216,-2.9157,-2.9903,-3.0898,-3.0898,-3.0898,-3.0898,-3.0898,-3.0898,-3.0898,-3.0898,-3.082,-3.0762,-3.0762,-2.9746,-2.8926,-2.8926,-2.8555,-2.8262,-2.8184,-2.8164,-2.8144,-2.8047,-2.7363,-2.6719,-2.6289,-2.5449,-2.4609,-2.3828,-2.3379,-2.3101,-2.3101,-2.3101,-2.3101,-2.3101,-2.3101,-2.3101,-2.3101,-2.3101,-2.3101,-2.3101,-2.3101,-2.3101,0.0,0.0,0.0,0.0,0.0,0.0,0.0,0.0,0.0,0.0,0.0,-1.8492,0.0,0.0,-2.2311,-2.3928,-2.5184,-2.6253,-2.7134,-2.7522,-2.7671,-2.7308,-2.7134,-2.7041,-2.7041,-2.6907,-2.7001,-2.7455,-2.7215,-2.7295,-2.7883,-2.7642,-2.7615,-2.7909,-2.7923,-2.7989,-2.8221,-2.8221,-2.8221,-2.8221,-2.7926,-2.7696,-2.7682,-2.7188,-2.6974,-2.6947,-2.656,-2.6397,-2.6361,-2.6058,-2.5451,-2.4591,-2.4789,-2.477,-2.4683,-2.5458,-2.5455,-2.5186,-2.5923,-2.7077,-2.818,-2.8129,-2.9236,-3.0635,-3.1283,-3.1011,-3.0503,-3.0313,-3.06,-3.0704,-2.9903,-3.0274,-3.0898,-3.0898,-3.0898,-3.0898,-3.0898,-3.0898,-3.0898,-3.0898,-3.0898,-3.0898,-3.0898,-3.0156,-2.9492,-2.9277,-2.8887,-2.8535,-2.832,-2.8301,-2.8301,-2.8301,-2.7519,-2.6934,-2.6719,-2.5703,-2.4785,-2.4141,-2.3711,-2.3457,-2.3457,-2.3218,-2.3101,-2.3101,-2.3101,-2.3101,-2.3101,-2.3101,-2.3101,-2.3101,-2.3101,-2.3101,0.0,0.0,0.0,0.0,0.0,0.0,0.0,0.0,-1.7221,-1.7929,-1.9243,-2.0623,-2.1683,-2.2966,-2.4342,-2.5879,-2.6613,-2.7161,-2.7629,-2.7909,-2.7856,-2.7321,-2.7321,-2.7308,-2.7188,-2.7014,-2.7081,-2.7495,-2.6974,-2.7054,-2.8087,-2.7428,-2.7402,-2.8207,-2.7909,-2.7896,-2.8221,-2.8221,-2.8221,-2.8221,-2.7752,-2.7495,-2.7589,-2.6881,-2.6667,-2.6841,-2.6533,-2.6381,-2.6348,-2.5621,-2.5018,-2.4636,-2.4636,-2.4857,-2.5318,-2.6474,-2.6736,-2.6758,-2.8325,-2.9776,-3.0905,-3.0912,-3.1819,-3.2922,-3.2922,-3.237,-3.1776,-3.1777,-3.1406,-3.1016,-3.1016,-3.0957,-3.0898,-3.0898,-3.0898,-3.0898,-3.0898,-3.0898,-3.0898,-3.0898,-3.0898,-3.0898,-3.0898,-3.0586,-3.0195,-2.9766,-2.9316,-2.8887,-2.8476,-2.8418,-2.8379,-2.8301,-2.7519,-2.6953,-2.6777,-2.5723,-2.4922,-2.457,-2.4141,-2.3867,-2.3789,-2.3457,-2.3179,-2.3101,-2.3101,-2.3101,-2.3101,-2.3101,-2.3101,-2.3101,-2.3101,-2.3101,-1.5022,-1.4981,-1.529,-1.6219,-1.6339,-1.6901,0.0,0.0,-2.0027,-2.0944,-2.2311,-2.3247,-2.314,-2.4516,-2.5892,-2.6613,-2.7215,-2.7615,-2.7682,-2.7722,-2.7629,-2.7308,-2.7495,-2.7442,-2.6921,-2.7081,-2.7134,-2.6934,-2.7308,-2.7602,-2.7749,-2.7909,-2.8127,-2.8221,-2.8194,-2.8194,-2.8221,-2.8221,-2.8221,-2.8221,-2.8167,-2.7872,-2.7308,-2.7215,-2.6907,-2.6453,-2.6413,-2.6439,-2.6305,-2.5144,-2.4676,-2.4636,-2.4636,-2.5639,-2.7215,-2.7388,-2.7221,-2.7191,-2.9109,-3.048,-3.1348,-3.1355,-3.2235,-3.3335,-3.3335,-3.3051,-3.2662,-3.2617,-3.207,-3.1445,-3.1445,-3.1172,-3.0898,-3.0898,-3.0898,-3.0898,-3.0898,-3.0898,-3.0898,-3.0898,-3.0898,-3.0898,-3.0898,-3.0859,-3.0664,-3.0195,-2.9766,-2.9336,-2.8906,-2.8848,-2.8711,-2.834,-2.7519,-2.6699,-2.5888,-2.5391,-2.5086,-2.5047,-2.459,-2.418,-2.3809,-2.375,-2.3535,-2.3101,-2.3101,-2.3101,-2.3101,-2.3101,-2.3101,-2.3101,-2.3101,-2.3101,-1.5852,-1.6027,0.0,0.0,-1.8036,-1.9158,-2.0401,-2.1243,-2.1964,-2.2767,-2.4022,-2.5104,-2.5317,-2.6239,-2.7054,0.0,-2.7535,-2.7642,-2.7468,-2.7295,-2.6961,-2.6319,-2.6507,-2.6787,-2.7054,-2.7041,-2.7028,-2.7081,-2.6987,-2.7161,-2.7669,-2.7335,-2.7428,-2.8207,-2.7899,-2.7872,-2.8221,-2.8221,-2.8221,-2.8221,-2.7963,-2.7669,-2.7255,-2.7094,-2.6787,-2.6373,-2.6378,-2.6026,-2.5483,-2.7203,-2.7909,-2.7909,-2.7909,-2.8398,-2.9099,-2.8893,-2.9223,-3.0121,-3.1743,-3.244,-3.255,-3.2539,-3.2919,-3.3418,-3.3418,-3.3105,-3.2737,-3.2542,-3.1992,-3.1465,-3.1211,-3.1016,-3.0898,-3.0898,-3.0898,-3.0898,-3.0898,-3.0898,-3.0898,-3.0898,-3.0898,-3.0898,-3.0898,-3.0898,-3.082,-3.0625,-3.0215,-2.9687,-2.9004,-2.8926,-2.8672,-2.7988,-2.7598,-2.7148,-2.6523,-2.6094,-2.584,-2.584,-2.5176,-2.4707,-2.4531,-2.4062,-2.3711,-2.3516,-2.3218,-2.3101,-2.3101,-2.3101,-2.3101,-2.3101,-2.3101,-2.3101,-1.6192,0.0,0.0,-1.8143,-1.9746,-2.1269,-2.167,-2.2779,-2.3933,-2.4382,-2.5398,-2.6279,-2.6533,-2.7001,-2.7335,-2.7335,-2.7402,-2.7362,-2.7068,-2.6694,-2.6159,-2.5371,-2.5317,-2.5598,-2.6239,-2.64,-2.6587,-2.6881,-2.6653,-2.6787,-2.7415,-2.7081,-2.7228,-2.8073,-2.7765,-2.7792,-2.8221,-2.8221,-2.8221,-2.8221,-2.7843,-2.7575,-2.7417,-2.6907,-2.6516,-2.6138,-2.632,-2.5704,-2.4918,-2.8757,-3.0946,-3.1808,-3.0734,-3.0526,-3.0831,-3.0578,-3.1149,-3.2258,-3.3888,-3.407,-3.3603,-3.3603,-3.353,-3.3418,-3.3418,-3.3203,-3.291,-3.2598,-3.2129,-3.1621,-3.1328,-3.1074,-3.0898,-3.0898,-3.0898,-3.0898,-3.0898,-3.0898,-3.0898,-3.0898,-3.0898,-3.0898,-3.0898,-3.0898,-3.0898,-3.0898,-3.0605,-3.0078,-2.9219,-2.8887,-2.8476,-2.7754,-2.7728,-2.748,-2.7051,-2.6738,-2.6562,-2.6562,-2.584,-2.5371,-2.5254,-2.4434,-2.3906,-2.3789,-2.3315,-2.3101,-2.3101,-2.3101,-2.3101,-2.3101,-2.3101,-2.3101,0.0,0.0,-1.7983,-1.972,-2.1269,-2.2739,-2.4195,-2.5211,-2.5945,-2.6253,-2.6573,-2.6627,-2.6079,-2.6226,-2.6426,-2.6426,-2.6667,-2.6747,-2.6453,-2.5919,-2.5331,-2.473,-2.4182,-2.3848,0.0,-2.489,-2.5678,-2.5972,-2.6507,-2.6827,-2.6854,-2.7642,-2.7976,-2.7722,-2.7976,-2.8207,-2.8221,-2.8221,-2.8221,-2.8221,-2.7843,-2.7642,-2.7591,-2.6762,-2.6047,-2.5571,-2.6116,-2.5704,-2.4918,-2.8757,-3.2508,-3.5451,-3.1738,-3.1164,-3.2438,-3.2438,-3.242,-3.2729,-3.4667,-3.4787,-3.4054,-3.4054,-3.3766,-3.3418,-3.3418,-3.3418,-3.3398,-3.3379,-3.2793,-3.2209,-3.2129,-3.1504,-3.0898,-3.0898,-3.0898,-3.0898,-3.0898,-3.0898,-3.0898,-3.0898,-3.0898,-3.0898,-3.0898,-3.0898,-3.0898,-3.0898,-3.0879,-3.0547,-2.9668,-2.8828,-2.8144,-2.7767,-2.7728,-2.748,-2.7051,-2.7012,-2.6992,-2.6992,-2.6582,-2.6152,-2.5693,-2.4816,-2.4199,-2.3789,-2.3315,-2.3101,-2.3101,-2.3101,-2.3101,-2.3101,-2.3101,-2.3101,0.0,0.0,-2.0054,-2.1817,-2.338,-2.4756,-2.5838,-2.6466,-2.6747,-2.6453,-2.5999,-2.5491,-2.4903,-2.4716,-2.4716,-2.4903,-2.5504,-2.5852,-2.5558,-2.5518,-2.493,-2.3354,-2.3354,0.0,0.0,0.0,0.0,-2.5331,-2.5558,-2.5999,-2.6787,-2.7108,-2.7402,-2.7682,-2.7789,-2.7949,-2.8221,-2.8221,-2.8127,-2.7843,-2.8417,-2.8128,-2.7234,-2.8883,-2.9498,-2.9375,-3.1743,-3.0788,-2.7819,-3.1873,-3.4107,-3.4751,-3.3669,-3.3516,-3.3956,-3.3956,-3.3757,-3.369,-3.4285,-3.416,-3.3617,-3.3617,-3.3506,-3.3418,-3.3418,-3.3418,-3.3359,-3.3086,-3.2793,-3.2441,-3.1875,-3.1738,-3.1601,-3.1035,-3.1094,-3.123,-3.0957,-3.0898,-3.0898,-3.0898,-3.0898,-3.0898,-3.0898,-3.0898,-3.0898,-3.0898,-3.0625,-3.0215,-2.9648,-2.9062,-2.8555,-2.8125,-2.8086,-2.8027,-2.7871,-2.7598,-2.7324,-2.7031,-2.6621,-2.6191,-2.5713,-2.5156,-2.4648,-2.4219,-2.3789,-2.3437,-2.3101,-2.3101,-2.3101,-2.3101,-2.3101,-2.3101,0.0,-2.0201,-2.1857,-2.3514,-2.505,-2.6266,-2.672,-2.6894,-2.672,-2.5932,-2.489,-2.3888,-2.3086,-2.2619,-2.2512,-2.302,-2.3661,-2.4222,-2.4569,-2.4583,-2.4115,-2.2886,-2.2899,0.0,0.0,0.0,0.0,-2.4703,-2.5157,-2.5772,-2.6627,-2.6867,-2.7201,-2.7682,-2.7696,-2.7789,-2.7989,-2.8181,-2.8397,-2.886,-3.0189,-3.0356,-2.9578,-3.0721,-3.1694,-3.2701,-3.437,-3.3563,-3.1261,-3.3814,-3.4629,-3.4316,-3.459,-3.4609,-3.4473,-3.4473,-3.4193,-3.3856,-3.405,-3.3823,-3.3418,-3.3418,-3.3418,-3.3418,-3.3418,-3.3418,-3.3359,-3.3105,-3.291,-3.2676,-3.2109,-3.207,-3.2031,-3.1484,-3.1426,-3.1445,-3.1172,-3.0996,-3.0898,-3.0898,-3.0898,-3.0898,-3.0898,-3.0898,-3.0898,-3.0898,-3.0644,-3.0234,-2.9648,-2.9062,-2.8594,-2.832,-2.8301,-2.8301,-2.8301,-2.8047,-2.7773,-2.748,-2.6934,-2.6484,-2.6161,-2.5469,-2.4941,-2.4648,-2.4082,-2.3652,-2.3379,-2.3179,-2.3101,-2.3101,-2.3101,-2.3101,-2.0214,-2.1923,-2.334,-2.4783,-2.6199,-2.7161,-2.6854,-2.6507,-2.5919,-2.473,-2.3273,-2.1871,0.0,0.0,-2.0,-2.0895,-2.1363,-2.2191,-2.3567,-2.3383,-2.306,0.0,0.0,0.0,0.0,0.0,0.0,-2.4182,0.0,-2.6052,-2.6386,-2.6961,-2.7402,-2.7682,-2.7682,-2.7696,-2.7722,-2.8117,-2.936,-3.1308,-3.2926,-3.3815,-3.3965,-3.2206,-3.28,-3.5112,-3.3994,-3.3918,-3.463,-3.4407,-3.4277,-3.4277,-3.4531,-3.4394,-3.4043,-3.4043,-3.3769,-3.3433,-3.3895,-3.3803,-3.3418,-3.3418,-3.3418,-3.3418,-3.3418,-3.3418,-3.3418,-3.3418,-3.3144,-3.2832,-3.2793,-3.2519,-3.2226,-3.2187,-3.1855,-3.1543,-3.1523,-3.1191,-3.0898,-3.0898,-3.0898,-3.0898,-3.0898,-3.0898,-3.0898,-3.0898,-3.0859,-3.0547,-2.9763,-2.8867,-2.8359,-2.832,-2.8301,-2.8301,-2.8301,-2.8301,-2.8281,-2.8262,-2.748,-2.7012,-2.6992,-2.5781,-2.5145,-2.5106,-2.4238,-2.3809,-2.3789,-2.3315,-2.3101,-2.3101,-2.3101,-2.3101,-2.1537,-2.338,-2.5037,-2.5852,-2.6493,-2.68,-2.6293,-2.5277,-2.4035,-2.2632,-2.0815,-1.9199,0.0,0.0,0.0,-1.996,-2.1483,0.0,-2.3661,-2.4195,0.0,0.0,0.0,-2.3487,-2.2819,-2.3621,0.0,0.0,-2.513,-2.5718,-2.6667,-2.7068,-2.7402,-2.7682,-2.7495,-2.7589,-2.8114,-2.9516,-3.2149,-3.5667,-3.4649,-3.3391,-3.2029,-3.3941,-3.4774,-3.4853,-3.4748,-3.4533,-3.4251,-3.418,-3.3945,-3.3652,-3.3711,-3.3691,-3.3594,-3.3594,-3.3516,-3.3437,-3.3511,-3.3472,-3.3418,-3.3418,-3.3418,-3.3418,-3.3418,-3.3418,-3.3418,-3.3418,-3.334,-3.3184,-3.2871,-3.2949,-3.2949,-3.2324,-3.209,-3.1914,-3.1582,-3.1191,-3.0898,-3.0898,-3.0898,-3.0898,-3.0898,-3.0898,-3.0898,-3.0898,-3.0586,-3.0293,-3.0059,-2.957,-2.9121,-2.8789,-2.8476,-2.8301,-2.8301,-2.8301,-2.8164,-2.7851,-2.7324,-2.6875,-2.6562,-2.5918,-2.541,-2.5125,-2.4531,-2.4102,-2.3789,-2.3315,-2.3101,-2.3101,-2.3101,-2.3101,-2.334,-2.481,-2.5999,-2.6466,-2.6507,-2.6159,-2.505,-2.3661,-2.2071,-2.0261,-1.849,0.0,0.0,0.0,0.0,0.0,0.0,0.0,-2.2966,-2.3607,-2.3794,0.0,-2.4008,0.0,-2.3688,-2.4596,-2.5331,0.0,-2.5651,-2.5999,-2.6774,-2.6987,-2.7201,-2.7495,-2.7268,-2.7455,-2.8221,-3.0849,-3.3913,-3.7285,-3.6015,-3.4759,-3.3723,-3.5272,-3.5714,-3.5285,0.0,-3.4537,-3.4062,-3.3867,-3.3633,-3.3418,-3.3418,-3.3418,-3.3418,-3.3418,-3.3418,-3.3418,-3.3418,-3.3418,-3.3418,-3.3418,-3.3418,-3.3418,-3.3418,-3.3418,-3.3418,-3.3418,-3.3418,-3.3359,-3.3125,-3.3242,-3.3262,-3.2598,-3.2305,-3.2051,-3.1621,-3.1191,-3.0898,-3.0898,-3.0898,-3.0898,-3.0898,-3.0898,-3.0898,-3.0898,-3.0664,-3.0508,-3.0508,-2.9961,-2.9394,-2.8965,-2.8711,-2.8496,-2.832,-2.8301,-2.8184,-2.7949,-2.7363,-2.6914,-2.668,-2.6025,-2.5577,-2.5371,-2.4922,-2.4492,-2.4062,-2.3633,-2.3276,-2.3101,-2.3101,-2.3101,-2.5064,-2.5972,-2.648,-2.6613,-2.6186,-2.5251,-2.3447,-2.179,-2.0,-1.7756,0.0,0.0,-1.4452,0.0,-1.5491,-1.6965,0.0,-1.9492,-2.2058,-2.2485,-2.2953,-2.4075,-2.4529,-2.4756,-2.4756,-2.5518,-2.6132,-2.6426,-2.6453,-2.6573,-2.6867,-2.6881,-2.7136,-2.7595,-2.7796,-2.8097,-2.8467,-3.2299,-3.5209,-3.7246,-3.6855,-3.6729,-3.6759,-3.6279,-3.5975,-3.5909,-3.4875,0.0,-3.4043,-3.3672,-3.3476,-3.3418,-3.3418,-3.3418,-3.3418,-3.3418,-3.3418,-3.3418,-3.3418,-3.3418,-3.3418,-3.3418,-3.3418,-3.3418,-3.3418,-3.3418,-3.3418,-3.3418,-3.3418,-3.3418,-3.3418,-3.3418,-3.332,-3.2891,-3.248,-3.207,-3.168,-3.1269,-3.0957,-3.0898,-3.0898,-3.0898,-3.0898,-3.0898,-3.0898,-3.0898,-3.0898,-3.0898,-3.0898,-3.0176,-2.9492,-2.9043,-2.8945,-2.875,-2.832,-2.8301,-2.8301,-2.8301,-2.7539,-2.707,-2.7012,-2.62,-2.5752,-2.5693,-2.5293,-2.4883,-2.4492,-2.4082,-2.3672,-2.3257,-2.3198,-2.3179,-2.5237,-2.6119,-2.6587,-2.5905,-2.5117,-2.3981,-2.1951,-1.9786,0.0,0.0,0.0,-1.3866,-1.3507,-1.4269,0.0,-1.6965,0.0,0.0,0.0,0.0,-2.342,0.0,0.0,0.0,0.0,0.0,0.0,0.0,0.0,-2.6881,-2.7175,-2.7188,-2.7891,-2.9412,-3.1273,-3.159,-3.0106,-3.448,-3.6784,-3.6973,-3.6758,-3.6484,-3.6133,-3.6055,-3.5975,-3.5996,-3.5465,0.0,-3.4062,-3.3984,-3.375,-3.3418,-3.3418,-3.3418,-3.3418,-3.3418,-3.3418,-3.3418,-3.3418,-3.3418,-3.3418,-3.3418,-3.3418,-3.3418,-3.3418,-3.3418,-3.3418,-3.3418,-3.3418,-3.3418,-3.3418,-3.3418,-3.332,-3.2891,-3.248,-3.2209,-3.207,-3.1719,-3.1309,-3.0957,-3.0898,-3.0898,-3.0898,-3.0898,-3.0898,-3.0898,-3.0898,-3.0898,-3.0898,-3.043,-2.9922,-2.9512,-2.9141,-2.875,-2.832,-2.8301,-2.8301,-2.8301,-2.7832,-2.7383,-2.7031,-2.6543,-2.6113,-2.5693,-2.5293,-2.5086,-2.5008,-2.4512,-2.4258,-2.418,-2.3828,-2.3672,-2.5692,-2.6172,-2.6226,-2.5651,-2.4275,-2.2512,-2.0441,0.0,0.0,0.0,0.0,-1.308,-1.2799,0.0,0.0,0.0,0.0,0.0,0.0,0.0,0.0,0.0,0.0,0.0,0.0,0.0,0.0,0.0,0.0,-2.7977,-2.7109,-2.7911,-2.9616,-3.2216,-3.3379,-3.4212,-3.4694,-3.6327,-3.7031,-3.6894,-3.6523,-3.623,-3.6016,-3.6016,-3.6005,-3.5984,-3.5575,0.0,-3.4375,-3.416,-3.3809,-3.3418,-3.3418,-3.3418,-3.3418,-3.3418,-3.3418,-3.3418,-3.3418,-3.3418,-3.3418,-3.3418,-3.3418,-3.3418,-3.3418,-3.3418,-3.3418,-3.3418,-3.3418,-3.3418,-3.3418,-3.3418,-3.3262,-3.2617,-3.2148,-3.1836,-3.1836,-3.166,-3.1387,-3.0976,-3.0898,-3.0898,-3.0898,-3.0898,-3.0898,-3.0898,-3.0898,-3.0898,-3.0898,-3.0703,-3.0391,-2.9941,-2.9512,-2.9082,-2.8652,-2.8418,-2.8301,-2.8301,-2.7891,-2.763,-2.7363,-2.6738,-2.6289,-2.6074,-2.5644,-2.5293,-2.5106,-2.4863,-2.4648,-2.4414,-2.4219,-2.4004,-2.5732,-2.5932,-2.5745,-2.5264,-2.346,-2.1243,-1.9118,-1.7034,0.0,0.0,-1.2904,-1.2623,-1.2345,0.0,0.0,0.0,0.0,0.0,0.0,0.0,0.0,0.0,0.0,0.0,0.0,0.0,0.0,0.0,0.0,0.0,-2.8213,-2.9769,-3.1988,-3.4724,-3.5178,-3.6386,-3.8437,-3.7402,-3.6875,-3.6836,-3.6289,-3.6016,-3.6016,-3.6016,-3.6016,-3.5996,-3.5664,0.0,0.0,-3.4336,-3.3906,-3.3418,-3.3418,-3.3418,-3.3418,-3.3418,-3.3418,-3.3418,-3.3418,-3.3418,-3.3418,-3.3418,-3.3418,-3.3418,-3.3418,-3.3418,-3.3418,-3.3418,-3.3418,-3.3418,-3.3418,-3.3418,-3.3242,-3.248,-3.1973,-3.166,-3.166,-3.1719,-3.1641,-3.1133,-3.1035,-3.0996,-3.0898,-3.0898,-3.0898,-3.0898,-3.0898,-3.0898,-3.0898,-3.0898,-3.0762,-3.0391,-2.9883,-2.9394,-2.8945,-2.8535,-2.8301,-2.8301,-2.7988,-2.7806,-2.7728,-2.6934,-2.6484,-2.6387,-2.5957,-2.5566,-2.5215,-2.5215,-2.5039,-2.4707,-2.4609,-2.4375,-2.4623,-2.517,-2.5291,-2.4209,-2.2552,-2.0575,-1.8237,0.0,0.0,0.0,-1.2583,-1.2331,-1.2305,-1.2623,0.0,0.0,0.0,0.0,0.0,0.0,0.0,0.0,0.0,0.0,0.0,0.0,0.0,0.0,0.0,0.0,-3.232,-3.3964,-3.5228,-3.5847,-3.7406,-3.8161,-3.7988,-3.7266,-3.6836,-3.668,-3.623,-3.6016,-3.6016,-3.6016,-3.6016,-3.6016,-3.5976,0.0,0.0,-3.4668,-3.416,-3.3418,-3.3418,-3.3418,-3.3418,-3.3418,-3.3418,-3.3418,-3.3418,-3.3418,-3.3418,-3.3418,-3.3418,-3.3418,-3.3418,-3.3418,-3.3418,-3.3418,-3.3418,-3.3418,-3.3418,-3.3418,-3.3301,-3.2851,-3.2422,-3.2109,-3.2109,-3.2402,-3.2441,-3.1621,-3.1465,-3.1348,-3.0957,-3.0898,-3.0898,-3.0898,-3.0898,-3.0898,-3.0898,-3.0898,-3.0879,-3.084,-3.0078,-2.9394,-2.8945,-2.8535,-2.8301,-2.8301,-2.8262,-2.8066,-2.7728,-2.7207,-2.6777,-2.6387,-2.5957,-2.5674,-2.5635,-2.5635,-2.5596,-2.5557,-2.5195,-2.5028,-2.3541,-2.4275,-2.4489,-2.3474,-2.1764,-1.98,-1.7836,0.0,0.0,-1.2998,-1.2543,-1.2305,-1.2305,-1.2398,-1.2759,0.0,0.0,0.0,0.0,0.0,0.0,0.0,0.0,0.0,0.0,0.0,0.0,0.0,0.0,0.0,-3.6291,-3.5829,-3.6126,-3.7536,-3.7962,-3.8105,-3.793,-3.7402,-3.6973,-3.668,-3.6592,-3.6358,-3.6016,-3.6016,-3.6016,-3.6016,-3.6016,0.0,0.0,-3.4707,-3.4199,-3.3418,-3.3418,-3.3418,-3.3418,-3.3418,-3.3418,-3.3418,-3.3418,-3.3418,-3.3418,-3.3418,-3.3418,-3.3418,-3.3418,-3.3418,-3.3418,-3.3418,-3.3418,-3.3418,-3.3418,-3.3242,-3.3066,-3.3144,-3.2851,-3.2539,-3.2539,-3.2676,-3.2617,-3.2031,-3.1914,-3.1777,-3.1348,-3.1269,-3.1191,-3.0937,-3.0898,-3.0898,-3.0898,-3.0898,-3.0898,-3.0898,-3.0332,-2.9766,-2.9355,-2.8926,-2.8555,-2.832,-2.8301,-2.8223,-2.8047,-2.7637,-2.7207,-2.6777,-2.6348,-2.5996,-2.5693,-2.5693,-2.5693,-2.5693,-2.5547,-2.5332,-2.1951,-2.2966,-2.346,-2.2565,-2.0935,-1.9078,0.0,0.0,0.0,-1.2837,-1.2452,-1.2305,-1.2305,-1.2305,-1.2465,0.0,0.0,0.0,0.0,0.0,0.0,0.0,0.0,0.0,0.0,0.0,0.0,0.0,0.0,0.0,0.0,-3.6897,-3.6732,-3.8379,-3.8086,-3.7812,-3.7559,-3.7266,-3.6894,-3.6484,-3.6573,-3.6416,-3.6016,-3.6016,-3.6016,-3.6016,-3.6016,0.0,0.0,-3.4746,-3.4199,-3.3418,-3.3418,-3.3418,-3.3418,-3.3418,-3.3418,-3.3418,-3.3418,-3.3418,-3.3418,-3.3418,-3.3418,-3.3418,-3.3418,-3.3418,-3.3418,-3.3418,-3.3418,-3.3418,-3.3418,-3.3105,-3.291,-3.332,-3.3105,-3.2832,-3.2949,-3.2988,-3.2851,-3.2441,-3.2363,-3.2168,-3.1621,-3.1523,-3.1367,-3.0957,-3.0898,-3.0898,-3.0898,-3.0898,-3.0898,-3.0898,-3.0586,-3.0234,-2.9785,-2.9238,-2.8789,-2.8496,-2.8359,-2.8301,-2.8301,-2.7891,-2.7519,-2.7207,-2.6797,-2.6367,-2.5937,-2.5937,-2.5859,-2.5693,-2.5693,-2.5488,-1.9679,-2.1109,-2.2231,-2.1349,-2.0027,-1.8464,0.0,0.0,0.0,-1.2492,-1.2305,-1.2305,-1.2305,-1.2305,-1.2398,-1.2744,-1.3253,0.0,0.0,0.0,0.0,0.0,0.0,0.0,0.0,0.0,0.0,0.0,0.0,0.0,0.0,-3.7539,-3.75,-3.791,-3.793,-3.7519,-3.6699,-3.668,-3.6465,-3.6035,-3.6035,-3.6035,-3.6016,-3.6016,-3.6016,0.0,0.0,0.0,0.0,-3.4824,-3.4199,-3.3418,-3.3418,-3.3418,-3.3418,-3.3418,-3.3418,-3.3418,-3.3418,-3.3418,-3.3418,-3.3418,-3.3418,-3.3418,-3.3418,-3.3418,-3.3418,-3.3418,-3.3418,-3.3418,-3.3418,-3.3105,-3.291,-3.332,-3.3105,-3.291,-3.332,-3.3418,-3.3281,-3.2871,-3.2793,-3.2519,-3.166,-3.1523,-3.1367,-3.0957,-3.0898,-3.0898,-3.0898,-3.0898,-3.0898,-3.0898,-3.0879,-3.0703,-3.0234,-2.9414,-2.8926,-2.8906,-2.8516,-2.8301,-2.8301,-2.7891,-2.7728,-2.7708,-2.7226,-2.6797,-2.6387,-2.6387,-2.6152,-2.5693,-2.5693,-2.5488,-1.7114,-1.809,-1.8814,-1.8532,-1.7595,-1.6648,-1.6134,0.0,-1.3304,-1.3292,-1.2732,-1.2305,-1.2305,-1.2305,-1.2818,-1.4394,-1.4805,0.0,0.0,0.0,0.0,0.0,0.0,0.0,0.0,0.0,0.0,0.0,0.0,0.0,0.0,-3.7363,-3.7363,-3.75,-3.7226,-3.6934,-3.668,-3.668,-3.6445,-3.6035,-3.6593,-3.6593,-3.6016,-3.5375,-3.5326,0.0,0.0,0.0,0.0,-3.4316,-3.3945,-3.3418,-3.3418,-3.3418,-3.3418,-3.3418,-3.3418,-3.3418,-3.3418,-3.3418,-3.3418,-3.3418,-3.3223,-3.3047,-3.334,-3.3418,-3.3418,-3.3418,-3.3418,-3.3418,-3.3418,-3.332,-3.3262,-3.3379,-3.332,-3.3262,-3.3398,-3.3418,-3.3379,-3.3242,-3.3223,-3.3047,-3.248,-3.2148,-3.1816,-3.1387,-3.1074,-3.0898,-3.0898,-3.0898,-3.0898,-3.0898,-3.0898,-3.0703,-3.0234,-2.9941,-2.9531,-2.8945,-2.8789,-2.8594,-2.8301,-2.8164,-2.7949,-2.7728,-2.7519,-2.7109,-2.6387,-2.6387,-2.6172,-2.5693,-2.5693,-2.5615,0.0,-1.5872,-1.6536,-1.6536,-1.5912,0.0,0.0,0.0,-1.3086,-1.3175,-1.2989,-1.2842,-1.2842,-1.3135,-1.3822,-1.5156,-1.5748,0.0,0.0,0.0,0.0,0.0,0.0,0.0,0.0,0.0,0.0,0.0,0.0,0.0,0.0,-3.6914,-3.6816,-3.6816,-3.6719,-3.6601,-3.6426,-3.6426,-3.6289,-3.6016,-3.6572,-3.6405,-3.5675,-3.4987,-3.4801,0.0,0.0,0.0,0.0,-3.4004,-3.3809,-3.3418,-3.3418,-3.3418,-3.3418,-3.3418,-3.3418,-3.3418,-3.3418,-3.3418,-3.3398,-3.3242,-3.3008,-3.2851,-3.3105,-3.3301,-3.3418,-3.3418,-3.3418,-3.3418,-3.3418,-3.3418,-3.3418,-3.3418,-3.3418,-3.3418,-3.3418,-3.3418,-3.3418,-3.3418,-3.3418,-3.3242,-3.2656,-3.2344,-3.1973,-3.1367,-3.1055,-3.0898,-3.0898,-3.0898,-3.0898,-3.0898,-3.0898,-3.0781,-3.0488,-3.0293,-2.9961,-2.9434,-2.9101,-2.8809,-2.8535,-2.8379,-2.8164,-2.791,-2.791,-2.7559,-2.6875,-2.6543,-2.625,-2.5977,-2.5771,-2.5693,0.0,0.0,0.0,0.0,0.0,0.0,0.0,0.0,0.0,-1.2654,-1.3244,-1.3825,-1.387,-1.4633,-1.5275,-1.548,-1.6405,0.0,0.0,0.0,0.0,0.0,0.0,0.0,0.0,0.0,0.0,0.0,0.0,0.0,0.0,-3.623,-3.6016,-3.6016,-3.6387,-3.6387,-3.5976,-3.5937,-3.5937,-3.5937,-3.5981,-3.5697,-3.514,-3.4778,-3.4512,0.0,0.0,0.0,0.0,-3.3867,-3.3789,-3.3418,-3.3418,-3.3418,-3.3418,-3.3418,-3.3418,-3.3418,-3.3418,-3.3398,-3.3301,-3.2891,-3.2754,-3.2754,-3.2793,-3.3086,-3.3418,-3.3418,-3.3418,-3.3418,-3.3418,-3.3418,-3.3418,-3.3418,-3.3418,-3.3418,-3.3418,-3.3418,-3.3418,-3.3418,-3.3418,-3.3164,-3.2383,-3.2268,-3.1955,-3.1094,-3.0937,-3.0898,-3.0898,-3.0898,-3.0898,-3.0898,-3.0898,-3.0898,-3.0898,-3.0488,-3.0234,-3.0195,-2.9453,-2.9004,-2.8965,-2.8555,-2.834,-2.834,-2.8281,-2.8047,-2.7728,-2.6836,-2.6426,-2.6426,-2.6016,-2.5771,-1.2306,0.0,-1.2222,-1.3112,0.0,0.0,0.0,0.0,0.0,0.0,0.0,0.0,0.0,-1.5462,-1.5981,0.0,0.0,0.0,0.0,0.0,0.0,0.0,0.0,0.0,0.0,0.0,0.0,0.0,0.0,0.0,-3.6172,-3.6074,-3.6016,-3.6016,-3.5801,-3.5644,-3.5547,-3.5195,-3.5105,-3.5362,-3.5798,-3.5482,-3.4502,-3.3972,-3.3843,0.0,0.0,0.0,-3.3437,-3.3535,-3.3516,-3.3418,-3.3418,-3.3418,-3.3418,-3.3418,-3.3418,-3.3418,-3.3418,-3.3203,-3.2871,-3.2461,-3.2324,-3.2383,-3.2695,-3.3086,-3.3418,-3.3418,-3.3418,-3.3418,-3.3418,-3.3418,-3.3418,-3.3418,-3.3418,-3.3418,-3.3418,-3.3418,-3.3418,-3.3418,-3.3418,-3.3359,-3.3164,-3.2598,-3.215,-3.1894,-3.1309,-3.0898,-3.0898,-3.0898,-3.0898,-3.0898,-3.0898,-3.0898,-3.0898,-3.0801,-3.0586,-3.0215,-3.0,-2.9746,-2.9434,-2.9004,-2.8769,-2.8769,-2.8144,-2.7806,-2.7728,-2.7129,-2.6875,-2.6875,-2.6758,-2.6719,-1.2565,-1.2442,-1.2704,-1.3442,-1.3577,-1.3924,0.0,0.0,0.0,0.0,0.0,0.0,0.0,0.0,0.0,0.0,0.0,0.0,0.0,0.0,0.0,0.0,0.0,0.0,0.0,0.0,0.0,0.0,0.0,-3.6016,-3.6016,-3.6016,-3.6016,-3.6016,-3.541,-3.5176,-3.5391,-3.4922,-3.4792,-3.4962,-3.5125,-3.4752,-3.3869,-3.3547,-3.352,0.0,0.0,0.0,-3.3418,-3.3418,-3.3418,-3.3418,-3.3418,-3.3418,-3.3379,-3.3172,-3.3132,-3.3105,-3.291,-3.2578,-3.2168,-3.1953,-3.1875,-3.1914,-3.2148,-3.2519,-3.293,-3.332,-3.3281,-3.3184,-3.3379,-3.3418,-3.3418,-3.3418,-3.3418,-3.3418,-3.3418,-3.3418,-3.3418,-3.3418,-3.3418,-3.3359,-3.3164,-3.2754,-3.2383,-3.2268,-3.1777,-3.1406,-3.1211,-3.1172,-3.1113,-3.0918,-3.0898,-3.0898,-3.0898,-3.0898,-3.0781,-3.0527,-3.0312,-3.0098,-2.9863,-2.9453,-2.9121,-2.8926,-2.8476,-2.8144,-2.7949,-2.7519,-2.7305,-2.7305,-2.7109,-2.7012,-1.3501,-1.4066,-1.4845,-1.4748,-1.5085,-1.5505,0.0,0.0,0.0,0.0,0.0,0.0,0.0,0.0,0.0,0.0,0.0,0.0,0.0,0.0,0.0,0.0,0.0,0.0,0.0,0.0,0.0,0.0,0.0,-3.5918,-3.5918,-3.5859,-3.582,-3.582,-3.5019,-3.4805,-3.5262,-3.4746,-3.4492,-3.4492,-3.4309,-3.3881,-3.336,-3.3408,-3.3379,-3.332,0.0,0.0,-3.3223,-3.3223,-3.3223,-3.3242,-3.3214,-3.3194,-3.3144,-3.2826,-3.2706,-3.2637,-3.2226,-3.1816,-3.1523,-3.1523,-3.1465,-3.1445,-3.1582,-3.1777,-3.2148,-3.2988,-3.3027,-3.2891,-3.332,-3.3418,-3.3418,-3.3418,-3.3418,-3.3418,-3.3418,-3.3418,-3.3418,-3.3418,-3.3418,-3.3281,-3.2871,-3.2793,-3.2656,-3.2226,-3.2229,-3.2012,-3.1562,-3.1523,-3.1367,-3.0937,-3.0898,-3.0898,-3.0898,-3.0898,-3.0898,-3.0898,-3.0527,-3.0273,-3.0195,-2.9863,-2.9453,-2.9023,-2.9023,-2.8848,-2.8476,-2.8066,-2.7851,-2.7851,-2.7402,-2.7207,-1.472,-1.597,-1.7006,-1.5287,-1.5151,-1.5703,0.0,0.0,0.0,0.0,0.0,0.0,0.0,0.0,0.0,0.0,0.0,0.0,0.0,0.0,0.0,0.0,0.0,0.0,0.0,0.0,0.0,0.0,0.0,0.0,-3.5488,-3.5117,-3.4902,-3.4902,-3.4434,-3.4283,-3.4446,-3.3912,-3.3613,-3.3613,-3.3555,-3.3516,-3.3369,-3.3374,-3.3223,-3.2891,0.0,-3.2695,-3.2363,-3.2363,-3.2363,-3.2361,-3.2387,-3.2397,-3.2405,-3.2287,-3.2287,-3.2207,-3.1758,-3.1562,-3.1523,-3.1523,-3.1269,-3.1113,-3.1855,-3.1601,-3.1269,-3.2129,-3.2578,-3.2891,-3.332,-3.3418,-3.3418,-3.3418,-3.3418,-3.3418,-3.3418,-3.3418,-3.3418,-3.3418,-3.3418,-3.3281,-3.2871,-3.2793,-3.2656,-3.2226,-3.2229,-3.2012,-3.1562,-3.1523,-3.1367,-3.0937,-3.0898,-3.0898,-3.0898,-3.0898,-3.0898,-3.0898,-3.082,-3.0605,-3.0215,-3.0137,-2.9902,-2.9473,-2.9473,-2.9434,-2.9375,-2.8945,-2.873,-2.8711,-2.8301,-2.8086,-1.5199,-1.6203,-1.7129,-1.644,-1.7073,-1.7951,-1.8321,0.0,0.0,0.0,0.0,0.0,0.0,0.0,0.0,0.0,0.0,0.0,0.0,0.0,0.0,0.0,0.0,0.0,0.0,0.0,0.0,0.0,0.0,0.0,-3.5019,-3.4824,-3.4707,-3.4707,-3.4297,-3.423,-3.4502,-3.3799,-3.3418,-3.3418,-3.3121,-3.3004,-3.2984,-3.2832,-3.2637,-3.2461,0.0,-3.2344,-3.2229,-3.2229,-3.2166,-3.2221,-3.2231,-3.2221,-3.2154,-3.1916,-3.168,-3.1445,-3.125,-3.1191,-3.1191,-3.1191,-3.1055,-3.0957,-3.1367,-3.1211,-3.1016,-3.1641,-3.2129,-3.25,-3.2695,-3.291,-3.3027,-3.2793,-3.2734,-3.2734,-3.2734,-3.293,-3.3086,-3.3086,-3.3262,-3.3359,-3.3164,-3.3125,-3.3066,-3.2871,-3.2851,-3.2695,-3.2266,-3.2012,-3.1797,-3.1601,-3.1172,-3.0976,-3.1211,-3.1016,-3.0898,-3.0898,-3.0898,-3.0801,-3.0586,-3.0566,-3.0351,-2.9922,-2.9902,-2.9805,-2.9626,-2.9375,-2.9277,-2.9258,-2.9082,-2.8867,-1.5527,-1.6102,-1.6804,-1.7285,0.0,-1.9492,-1.957,0.0,0.0,0.0,0.0,0.0,0.0,0.0,0.0,0.0,0.0,0.0,0.0,0.0,0.0,0.0,0.0,0.0,0.0,0.0,0.0,0.0,0.0,0.0,-3.4551,-3.4453,-3.4355,-3.4258,-3.4029,-3.4044,-3.4215,-3.3466,-3.3019,-3.2787,-3.2685,-3.251,-3.2393,-3.2244,-3.2109,-3.2012,-3.2012,-3.1953,-3.1935,-3.1935,-3.1912,-3.1908,-3.1873,-3.1878,-3.182,-3.1485,-3.1172,-3.0898,-3.0898,-3.0898,-3.0898,-3.0898,-3.0898,-3.0898,-3.0898,-3.0898,-3.0957,-3.1269,-3.168,-3.2031,-3.2148,-3.2402,-3.2559,-3.2246,-3.2229,-3.2268,-3.2285,-3.2559,-3.2832,-3.293,-3.3203,-3.3398,-3.3301,-3.3359,-3.3379,-3.3281,-3.3359,-3.3262,-3.2851,-3.2422,-3.2229,-3.2229,-3.1406,-3.1016,-3.1348,-3.1074,-3.0898,-3.0898,-3.0898,-3.0898,-3.0898,-3.0898,-3.0723,-3.0371,-3.0351,-3.0195,-2.9883,-2.9766,-2.9726,-2.9707,-2.9609,-2.9394,-1.5928,-1.6367,-1.6804,-1.7285,0.0,0.0,-2.0155,0.0,0.0,0.0,0.0,0.0,0.0,0.0,0.0,0.0,0.0,0.0,0.0,0.0,0.0,0.0,0.0,0.0,0.0,0.0,0.0,0.0,0.0,0.0,-3.4121,-3.373,-3.334,-3.2949,-3.3237,-3.3203,-3.2789,-3.2427,-3.1876,-3.1108,-3.208,-3.2335,-3.1786,-3.2088,-3.1953,-3.1562,-3.1562,-3.1348,-3.0976,-3.0976,-3.0996,-3.0996,-3.0996,-3.0976,-3.1015,-3.0937,-3.0918,-3.0898,-3.0898,-3.0898,-3.0898,-3.0898,-3.0898,-3.0898,-3.0898,-3.0898,-3.0898,-3.0918,-3.125,-3.166,-3.207,-3.2187,-3.2268,-3.2229,-3.2229,-3.2285,-3.2656,-3.2773,-3.291,-3.3301,-3.3398,-3.3301,-3.291,-3.3164,-3.3281,-3.2891,-3.3164,-3.3262,-3.2851,-3.2422,-3.2229,-3.2229,-3.1406,-3.0898,-3.0937,-3.0918,-3.0898,-3.0898,-3.0898,-3.0898,-3.0898,-3.0898,-3.0879,-3.084,-3.084,-3.082,-3.0801,-3.0351,-3.0156,-3.0137,-2.9746,-2.9551,-1.5605,-1.6191,-1.6804,-1.7285,0.0,0.0,0.0,0.0,0.0,0.0,0.0,0.0,0.0,0.0,0.0,0.0,0.0,0.0,0.0,0.0,0.0,0.0,0.0,0.0,0.0,0.0,0.0,0.0,0.0,0.0,0.0,-3.2871,-3.2559,-3.2402,-3.2726,-3.2647,-3.2068,-3.1927,-3.1549,-3.0895,-3.1353,-3.1535,-3.1579,-3.1484,-3.1289,-3.1133,-3.1133,-3.1035,-3.0898,-3.0898,-3.0898,-3.0898,-3.0898,-3.0898,-3.0898,-3.0898,-3.0898,-3.0898,-3.0898,-3.0898,-3.0898,-3.0898,-3.0898,-3.0898,-3.0898,-3.0898,-3.0898,-3.0898,-3.0996,-3.1172,-3.1328,-3.1562,-3.1758,-3.1758,-3.1758,-3.1875,-3.2305,-3.2617,-3.2832,-3.3008,-3.3242,-3.3379,-3.3203,-3.332,-3.3379,-3.3203,-3.332,-3.3359,-3.3203,-3.2812,-3.2656,-3.293,-3.2187,-3.1582,-3.1309,-3.1035,-3.0898,-3.0898,-3.0898,-3.0898,-3.0898,-3.0898,-3.0898,-3.0898,-3.0898,-3.0898,-3.0898,-3.0703,-3.0625,-3.0625,-3.0469,-3.0234,-1.541,-1.5957,-1.666,0.0,0.0,0.0,0.0,0.0,0.0,0.0,0.0,0.0,0.0,0.0,0.0,0.0,0.0,0.0,0.0,0.0,0.0,0.0,0.0,0.0,0.0,0.0,0.0,0.0,0.0,0.0,0.0,-3.2405,-3.225,-3.2053,-3.2353,-3.2134,-3.144,-3.144,-3.1285,-3.0916,-3.0916,-3.1013,-3.1309,-3.1016,-3.0898,-3.0898,-3.0898,-3.0898,-3.0898,-3.0898,-3.0898,-3.0898,-3.0898,-3.0898,-3.0898,-3.0898,-3.0898,-3.0898,-3.0898,-3.0898,-3.0898,-3.0898,-3.0898,-3.0898,-3.0898,-3.0898,-3.0898,-3.0898,-3.0898,-3.0898,-3.0898,-3.1094,-3.1328,-3.1328,-3.1426,-3.1601,-3.1894,-3.2402,-3.2793,-3.2793,-3.3144,-3.3418,-3.3418,-3.3418,-3.3418,-3.3418,-3.3418,-3.3418,-3.3418,-3.3066,-3.2851,-3.3008,-3.2637,-3.2129,-3.1562,-3.125,-3.1035,-3.0898,-3.0898,-3.0898,-3.0898,-3.0898,-3.0898,-3.0898,-3.0898,-3.0898,-3.0898,-3.0898,-3.0898,-3.0898,-3.0898,-3.0723,-1.541,-1.5742,0.0,0.0,0.0,0.0,0.0,0.0,0.0,0.0,0.0,0.0,0.0,0.0,0.0,0.0,0.0,0.0,0.0,0.0,0.0,0.0,0.0,0.0,0.0,0.0,0.0,0.0,0.0,0.0,0.0,-3.247,-3.2273,-3.1701,-3.1999,-3.1781,-3.0898,-3.0898,-3.0898,-3.0898,-3.0898,-3.0898,-3.0898,-3.0898,-3.0898,-3.0898,-3.0898,-3.0898,-3.0898,-3.0898,-3.0898,-3.0898,-3.0898,-3.0898,-3.0898,-3.0898,-3.0898,-3.0898,-3.0898,-3.0898,-3.0898,-3.0898,-3.0898,-3.0898,-3.0898,-3.0898,-3.0898,-3.0898,-3.0898,-3.0898,-3.0898,-3.0898,-3.0898,-3.0898,-3.1211,-3.1523,-3.1523,-3.2187,-3.2793,-3.2793,-3.3144,-3.3418,-3.3418,-3.3418,-3.3418,-3.3418,-3.3418,-3.3418,-3.3418,-3.3066,-3.2637,-3.2226,-3.2559,-3.2461,-3.1601,-3.1523,-3.1348,-3.0918,-3.0898,-3.0898,-3.0898,-3.0898,-3.0898,-3.0898,-3.0898,-3.0898,-3.0898,-3.0898,-3.0898,-3.0898,-3.0898,-3.0898,-1.541,0.0,0.0,0.0,0.0,0.0,0.0,0.0,0.0,0.0,0.0,0.0,0.0,0.0,0.0,0.0,0.0,0.0,0.0,0.0,0.0,0.0,0.0,0.0,0.0,0.0,0.0,0.0,0.0,0.0,0.0,-3.1505,-3.1289,-3.1152,-3.1231,-3.1172,-3.0898,-3.0898,-3.0898,-3.0898,-3.0898,-3.0898,-3.0898,-3.0898,-3.0898,-3.0898,-3.0898,-3.0898,-3.0898,-3.0898,-3.0898,-3.0898,-3.0898,-3.0898,-3.0898,-3.0898,-3.0898,-3.0898,-3.0898,-3.0898,-3.0898,-3.0898,-3.0898,-3.0898,-3.0898,-3.0898,-3.0898,-3.0898,-3.0898,-3.0898,-3.0898,-3.0898,-3.0957,-3.1269,-3.1426,-3.1601,-3.1914,-3.2402,-3.2793,-3.2793,-3.3144,-3.3418,-3.3418,-3.3418,-3.3418,-3.3418,-3.3418,-3.3418,-3.3418,-3.332,-3.3184,-3.3066,-3.2891,-3.2578,-3.2031,-3.1699,-3.1348,-3.0918,-3.0898,-3.0898,-3.0898,-3.0898,-3.0898,-3.0898,-3.0898,-3.0898,-3.0898,-3.0898,-3.0898,-3.0898,-3.0898,-3.0898,-1.5625,0.0,0.0,0.0,0.0,0.0,0.0,0.0,0.0,0.0,0.0,0.0,0.0,0.0,0.0,0.0,0.0,0.0,0.0,0.0,0.0,0.0,0.0,0.0,0.0,0.0,0.0,0.0,0.0,0.0,0.0,-3.1035,-3.0898,-3.0898,-3.0898,-3.0898,-3.0898,-3.0703,-3.0605,-3.0605,-3.0449,-3.0449,-3.0625,-3.0801,-3.0898,-3.0898,-3.0898,-3.0898,-3.0898,-3.0898,-3.0898,-3.0898,-3.0898,-3.0898,-3.0898,-3.0898,-3.0898,-3.0898,-3.0898,-3.0898,-3.0898,-3.0898,-3.0898,-3.0898,-3.0898,-3.0898,-3.0898,-3.0898,-3.0898,-3.0898,-3.0898,-3.0898,-3.0957,-3.1211,-3.1406,-3.1543,-3.1641,-3.2129,-3.2539,-3.2539,-3.2891,-3.3223,-3.3398,-3.3418,-3.3418,-3.3418,-3.3418,-3.3418,-3.3418,-3.3418,-3.3418,-3.3418,-3.3047,-3.2695,-3.2441,-3.2031,-3.1601,-3.1172,-3.1133,-3.1074,-3.0898,-3.0898,-3.0898,-3.0898,-3.0898,-3.0898,-3.0898,-3.0898,-3.0898,-3.0898,-3.0898,-3.0898,0.0,0.0,0.0,0.0,0.0,0.0,0.0,0.0,0.0,0.0,0.0,0.0,0.0,0.0,0.0,0.0,0.0,0.0,0.0,0.0,0.0,0.0,0.0,0.0,0.0,0.0,0.0,0.0,0.0,0.0,0.0,-3.0839,-3.0917,-3.0917,-3.0839,-3.0762,-3.0762,-3.0351,-3.0137,-3.0137,-2.9746,-2.9766,-3.0156,-3.0586,-3.0762,-3.0762,-3.082,-3.0801,-3.0781,-3.0781,-3.0781,-3.084,-3.0859,-3.0879,-3.0898,-3.0898,-3.0898,-3.0898,-3.0898,-3.0898,-3.0898,-3.0898,-3.0898,-3.0898,-3.0898,-3.0898,-3.0898,-3.0898,-3.0898,-3.0898,-3.0898,-3.0898,-3.0898,-3.0898,-3.1191,-3.1367,-3.0976,-3.1543,-3.2109,-3.2109,-3.248,-3.291,-3.3301,-3.3398,-3.3418,-3.3418,-3.3418,-3.3418,-3.3418,-3.3418,-3.3398,-3.3379,-3.3066,-3.2812,-3.2734,-3.2422,-3.2051,-3.1601,-3.1543,-3.1348,-3.0957,-3.0918,-3.0898,-3.0898,-3.0898,-3.0898,-3.0898,-3.0898,-3.0898,-3.0898,-3.0898,-3.0898,0.0,0.0,0.0,0.0,0.0,0.0,0.0,0.0,0.0,0.0,0.0,0.0,0.0,0.0,0.0,0.0,0.0,0.0,0.0,0.0,0.0,0.0,0.0,0.0,0.0,0.0,0.0,0.0,0.0,0.0,-2.9844,-3.0528,-3.091,-3.091,-3.0224,-2.9844,-2.9844,-2.9746,-2.9707,0.0,-2.9609,-2.9665,-2.9707,-2.9805,-2.9844,-2.9883,-3.0195,-3.0156,-2.9902,-2.9911,-3.0065,-3.0371,-3.0355,-3.0587,-3.0898,-3.0898,-3.0898,-3.0898,-3.0898,-3.0898,-3.0898,-3.0898,-3.0898,-3.0898,-3.0898,-3.0898,-3.0898,-3.0898,-3.0898,-3.0898,-3.0898,-3.0898,-3.0898,-3.0898,-3.0957,-3.0996,-3.0918,-3.1289,-3.166,-3.166,-3.2266,-3.2832,-3.291,-3.3203,-3.3418,-3.3418,-3.3418,-3.3418,-3.3418,-3.3418,-3.3301,-3.2969,-3.3144,-3.3027,-3.2363,-3.2519,-3.248,-3.2051,-3.1699,-3.1484,-3.1387,-3.1074,-3.0898,-3.0898,-3.0898,-3.0898,-3.0898,-3.0898,-3.0898,-3.0898,-3.0898,-3.0898,0.0,0.0,0.0,0.0,0.0,0.0,0.0,0.0,0.0,0.0,0.0,0.0,0.0,0.0,0.0,0.0,0.0,0.0,0.0,0.0,0.0,0.0,0.0,0.0,0.0,0.0,0.0,0.0,0.0,-2.9626,-2.9626,-3.0023,-3.0306,-3.0306,-2.942,-2.8968,-2.8968,-2.915,-2.9258,-2.9258,-2.9062,-2.8965,-2.8965,-2.9375,-2.9626,-2.9646,-2.9805,-2.9766,-2.959,-2.9601,-2.9735,-2.9922,-2.9927,-3.016,-3.0566,-3.0566,-3.0703,-3.0859,-3.0644,-3.0703,-3.0859,-3.0625,-3.0703,-3.0898,-3.0898,-3.0898,-3.0898,-3.0898,-3.0898,-3.0898,-3.0898,-3.0898,-3.0898,-3.0898,-3.0898,-3.0898,-3.0898,-3.1055,-3.1269,-3.1484,-3.1875,-3.2305,-3.2734,-3.3144,-3.3418,-3.3418,-3.3418,-3.3418,-3.3418,-3.3418,-3.334,-3.3125,-3.293,-3.2812,-3.2773,-3.2402,-3.2266,-3.2461,-3.207,-3.1836,-3.1836,-3.1426,-3.1094,-3.0898,-3.0898,-3.0898,-3.0898,-3.0898,-3.0898,-3.0898,-3.0898,-3.0898,0.0,0.0,0.0,0.0,0.0,0.0,0.0,0.0,0.0,0.0,0.0,0.0,0.0,0.0,0.0,0.0,0.0,0.0,0.0,0.0,0.0,0.0,0.0,0.0,0.0,0.0,0.0,0.0,0.0,-2.9411,-2.9411,-2.9352,-2.9388,-2.9388,-2.8509,-2.81,-2.81,-2.842,-2.8594,-2.8594,-2.8242,-2.8105,-2.8203,-2.8906,-2.9333,-2.9355,-2.9434,-2.9414,-2.9411,-2.9411,-2.9394,-2.9453,-2.945,-2.9724,-3.0098,-3.0098,-3.0332,-3.0605,-3.0215,-3.0351,-3.0605,-3.0215,-3.041,-3.0762,-3.0762,-3.082,-3.0898,-3.0898,-3.0898,-3.0898,-3.0898,-3.0898,-3.0898,-3.0898,-3.0898,-3.0898,-3.0898,-3.0898,-3.0996,-3.1348,-3.1523,-3.1875,-3.2656,-3.3144,-3.3418,-3.3418,-3.3418,-3.3418,-3.3418,-3.3418,-3.3359,-3.3223,-3.2656,-3.2519,-3.3144,-3.2305,-3.207,-3.2851,-3.2519,-3.2285,-3.2285,-3.1797,-3.1348,-3.0996,-3.0918,-3.0898,-3.0898,-3.0898,-3.0898,-3.0898,-3.0898,-3.0898,0.0,0.0,0.0,0.0,0.0,0.0,0.0,0.0,0.0,0.0,0.0,0.0,0.0,0.0,0.0,0.0,0.0,0.0,0.0,0.0,0.0,0.0,0.0,0.0,0.0,0.0,0.0,0.0,-2.8262,-2.8457,-2.8457,-2.8469,-2.847,-2.847,-2.763,-2.715,-2.715,-2.7234,-2.7266,-2.7266,-2.7207,-2.7383,-2.7806,-2.7924,-2.8125,-2.8476,-2.8848,-2.8789,-2.8457,-2.8457,-2.8672,-2.8984,-2.8962,-2.9242,-2.9648,-2.9648,-2.9744,-2.9726,-2.9668,-2.9687,-2.9726,-2.9668,-2.9941,-3.0293,-3.0293,-3.0566,-3.0898,-3.0898,-3.0898,-3.0898,-3.0898,-3.0898,-3.0898,-3.0898,-3.0898,-3.0898,-3.0898,-3.0898,-3.0918,-3.0957,-3.1582,-3.2226,-3.2715,-3.3144,-3.3418,-3.3418,-3.3418,-3.3418,-3.3418,-3.3418,-3.3144,-3.2422,-3.2559,-3.2598,-3.2363,-3.2519,-3.2832,-3.3301,-3.2949,-3.2715,-3.2715,-3.1934,-3.1484,-3.1445,-3.1074,-3.0898,-3.0898,-3.0898,-3.0898,-3.0898,-3.0898,-3.0898,0.0,0.0,0.0,0.0,0.0,0.0,0.0,0.0,0.0,0.0,0.0,0.0,0.0,0.0,0.0,0.0,0.0,0.0,0.0,0.0,0.0,0.0,0.0,0.0,0.0,0.0,0.0,0.0,-2.7461,-2.7578,-2.7578,-2.8026,-2.8069,-2.757,-2.6724,-2.6276,-2.6276,-2.6749,-2.7012,-2.7012,-2.7012,-2.7109,-2.7305,-2.7305,-2.7656,-2.8301,-2.8496,-2.8457,-2.8301,-2.8301,-2.8398,-2.8555,-2.8579,-2.8819,-2.9199,-2.9199,-2.9355,-2.9531,-2.9297,-2.9355,-2.9587,-2.9277,-2.9648,-3.0195,-3.0195,-3.0527,-3.0898,-3.0898,-3.0898,-3.1112,-3.194,-3.1498,-3.1344,-3.2985,-3.2701,-3.2379,-3.3212,-3.2055,-3.0957,-3.1191,-3.1738,-3.259,-3.3882,-3.4513,-3.5026,-3.5949,-3.6072,-3.6072,-3.6072,-3.6072,-3.5964,-3.5562,-3.5537,-3.5116,-3.4268,-3.3943,-3.3638,-3.3442,-3.3027,-3.291,-3.3144,-3.2324,-3.2276,-3.313,-3.1681,-3.0898,-3.0898,-3.0898,-3.0898,-3.0898,-3.0898,-3.0898,0.0,0.0,0.0,0.0,0.0,0.0,0.0,0.0,0.0,0.0,0.0,0.0,0.0,0.0,0.0,0.0,0.0,0.0,0.0,0.0,0.0,0.0,0.0,0.0,0.0,0.0,0.0,0.0,-2.6953,-2.6973,-2.6855,-2.7562,-2.7673,-2.6992,-2.5941,-2.537,-2.537,-2.6417,-2.7013,-2.7162,-2.7162,-2.7041,-2.6855,-2.719,-2.7688,-2.8423,-2.8595,-2.8635,-2.8707,-2.9113,-2.9133,-2.8814,-2.8807,-2.877,-2.8769,-2.8769,-2.9164,-2.9729,-2.9391,-2.9707,-3.0255,-3.0032,-3.0478,-3.1147,-3.1248,-3.1405,-3.1441,-3.1441,-3.1441,-3.171,-3.2794,-3.253,-3.255,-3.4792,-3.4459,-3.3957,-3.5068,-3.3586,-3.1984,-3.1917,-3.2693,-3.3696,-3.4844,-3.5791,-3.682,-3.8045,-3.8223,-3.8179,-3.7985,-3.8134,-3.8111,-3.7865,-3.7699,-3.7229,-3.6324,-3.5665,-3.5086,-3.4633,-3.4328,-3.4288,-3.4612,-3.3963,-3.4015,-3.4971,-3.3165,-3.2157,-3.1998,-3.1672,-3.1652,-3.1998,-3.1286,-3.1112,0.0,0.0,0.0,0.0,0.0,0.0,0.0,0.0,0.0,0.0,0.0,0.0,0.0,0.0,0.0,0.0,0.0,0.0,0.0,0.0,0.0,0.0,0.0,0.0,0.0,0.0,0.0,0.0,-2.6777,-2.6836,-2.6445,-2.6823,-2.7049,-2.6989,-2.5344,-2.4485,-2.4485,-2.609,-2.7128,-2.7568,-2.7568,-2.7194,-2.6476,-2.7652,-2.8369,-2.8778,-2.9387,-2.9627,-2.9782,-3.1402,-3.1339,-3.0214,-3.0187,-2.9454,-2.832,-2.832,-2.9152,-3.0287,-3.0266,-3.1073,-3.2234,-3.2804,-3.3272,-3.3732,-3.4231,-3.3735,-3.2964,-3.2964,-3.2964,-3.3021,-3.3077,-3.4069,-3.5123,-3.5233,-3.5233,-3.5233,-3.5288,-3.5178,-3.4626,-3.3268,-3.4905,-3.6055,-3.4757,-3.6513,-3.8104,-3.8164,-3.8223,-3.7985,-3.7537,-3.7873,-3.7806,-3.6866,-3.7296,-3.7565,-3.7529,-3.7426,-3.7568,-3.794,-3.7903,-3.7963,-3.7925,-3.7554,-3.7063,-3.6573,-3.6082,-3.5592,-3.5068,-3.3698,-3.3677,-3.5013,-3.2207,-3.1652,0.0,0.0,0.0,0.0,0.0,0.0,0.0,0.0,0.0,0.0,0.0,0.0,0.0,0.0,0.0,0.0,0.0,0.0,0.0,0.0,0.0,0.0,0.0,0.0,0.0,0.0,0.0,0.0,0.0,-2.5607,-2.618,-2.5637,-2.5335,-2.5333,-2.4185,-2.4199,-2.5492,-2.679,-2.7477,-2.7651,-2.8069,-2.808,-2.781,-2.7826,-2.8322,-2.9205,-2.9781,-3.0127,-3.0428,-3.136,-3.152,-3.1105,-3.1483,-3.0745,-2.9723,-3.0566,-3.0618,-3.0411,-3.1286,-3.1876,-3.2325,-3.2555,-3.316,-3.3854,-3.4034,-3.426,-3.4515,-3.4515,-3.4515,-3.4736,-3.5649,-3.5617,-3.5508,-3.6487,-3.7423,-3.8084,-3.8084,-3.6619,-3.5212,-3.4965,-3.59,-3.6949,-3.7782,-3.8943,-4.0129,-4.1133,-4.1015,-4.0789,-4.0958,-4.0837,-4.0773,-4.0749,-4.0918,-4.0673,-3.9616,-3.9558,-3.9162,-3.8283,-3.8223,-3.8223,-3.8223,-3.7812,-3.794,-3.8674,-3.8274,-3.7155,-3.5288,-3.4792,-3.4792,-3.5288,-3.4202,-3.4035,0.0,0.0,0.0,0.0,0.0,0.0,0.0,0.0,0.0,0.0,0.0,0.0,0.0,0.0,0.0,0.0,0.0,0.0,0.0,0.0,0.0,0.0,0.0,0.0,0.0,0.0,0.0,0.0,0.0,0.0,-2.5805,-2.5633,-2.5711,-2.6195,-2.4925,-2.5134,-2.7042,-2.7757,-2.8168,-2.835,-2.8735,-2.8719,-2.8299,-2.8495,-2.899,-2.9782,-3.0741,-3.1159,-3.1244,-3.2216,-3.242,-3.2225,-3.2548,-3.2001,-3.1081,-3.1977,-3.205,-3.1796,-3.2705,-3.3304,-3.3723,-3.3887,-3.4423,-3.4955,-3.517,-3.5455,-3.5748,-3.5748,-3.5916,-3.6271,-3.7263,-3.7156,-3.7049,-3.8031,-3.8973,-3.9697,-3.9697,-3.8137,-3.6712,-3.6466,-3.7419,-3.8526,-3.9442,-4.0595,-4.1736,-4.2599,-4.2439,-4.2288,-4.2409,-4.2313,-4.2363,-4.266,-4.2861,-4.2569,-4.1476,-4.1419,-4.0961,-3.9873,-3.9814,-3.9814,-3.9814,-3.9569,-3.977,-4.0587,-4.028,-3.9211,-3.7294,-3.6671,-3.6579,-3.7037,-3.5872,-3.5288,0.0,0.0,0.0,0.0,0.0,0.0,0.0,0.0,0.0,0.0,0.0,0.0,0.0,0.0,0.0,0.0,0.0,0.0,0.0,0.0,0.0,0.0,0.0,0.0,0.0,0.0,0.0,0.0,-2.4467,-2.4771,-2.5457,-2.6911,-2.8408,-2.9753,-2.7736,-2.7328,-2.8845,-2.8886,-2.9148,-2.9629,-2.9629,-2.8994,-2.7851,-2.9592,-3.0414,-3.0524,-3.2253,-3.2665,-3.2258,-3.3975,-3.4219,-3.3506,-3.3505,-3.3021,-3.2359,-3.2359,-3.3231,-3.4385,-3.4434,-3.5331,-3.6505,-3.6985,-3.7161,-3.7287,-3.7814,-3.7412,-3.672,-3.6744,-3.7154,-3.7559,-3.7559,-3.8635,-3.9697,-3.9697,-3.9697,-3.9697,-3.9697,-3.9697,-3.931,-3.7849,-3.9545,-4.0794,-3.941,-4.1274,-4.2735,-4.2263,-4.2162,-4.1932,-4.1376,-4.1806,-4.2213,-4.2238,-4.2715,-4.2986,-4.2986,-4.2986,-4.2986,-4.2986,-4.2986,-4.2986,-4.2986,-4.2986,-4.2791,-4.2238,-4.2238,-4.1907,-4.1326,-3.931,-3.9097,-4.0448,-3.7014,-3.5398,-1.9042,0.0,0.0,0.0,0.0,0.0,0.0,0.0,0.0,0.0,0.0,0.0,0.0,0.0,0.0,0.0,0.0,0.0,0.0,0.0,0.0,0.0,0.0,0.0,0.0,0.0,0.0,0.0,-2.5915,-2.6358,-2.7282,-2.8545,-2.9407,-2.9788,-2.9218,-2.8681,-2.8338,-2.9129,-2.9623,-2.9732,-3.0128,-3.0138,-2.9813,-2.9822,-3.0314,-3.1116,-3.115,-3.1552,-3.229,-3.36,-3.3997,-3.381,-3.4202,-3.3881,-3.3285,-3.4293,-3.4535,-3.4532,-3.5523,-3.6121,-3.643,-3.6581,-3.6908,-3.7211,-3.7362,-3.7543,-3.7741,-3.8161,-3.8384,-3.8582,-3.8978,-3.9413,-3.9697,-3.9697,-3.9697,-3.9697,-3.9697,-3.9697,-3.9569,-3.9181,-3.9987,-4.0567,-4.017,-4.1035,-4.1731,-4.158,-4.1229,-4.1204,-4.1856,-4.1731,-4.1856,-4.266,-4.2886,-4.2986,-4.2986,-4.2986,-4.2986,-4.2986,-4.2986,-4.2986,-4.2986,-4.2986,-4.2911,-4.276,-4.2816,-4.2685,-4.2534,-4.0778,-4.0106,-4.0448,-3.9115,-3.8477,0.0,0.0,0.0,0.0,0.0,0.0,-1.9422,-2.0161,0.0,0.0,0.0,0.0,0.0,0.0,0.0,0.0,0.0,0.0,0.0,0.0,0.0,0.0,0.0,0.0,0.0,-2.5268,-2.5496,-2.6419,-2.6524,-2.6762,-2.7409,-2.8955,-2.9795,-2.9831,-2.9818,-2.9474,-2.8806,-2.9482,-2.9804,-2.9804,-3.0131,-3.0281,-3.0242,-3.0098,-3.0384,-3.1044,-3.0883,-3.1336,-3.2265,-3.291,-3.3488,-3.3953,-3.4234,-3.4222,-3.4108,-3.5127,-3.5216,-3.5014,-3.6046,-3.6405,-3.6405,-3.6405,-3.6631,-3.6883,-3.6883,-3.7236,-3.7739,-3.8065,-3.8517,-3.9045,-3.9546,-3.9697,-3.9697,-3.9697,-3.9697,-3.9697,-3.9697,-3.9697,-3.9697,-3.9697,-4.0149,-4.0526,-4.0526,-4.0924,-4.12,-4.0974,-4.0727,-4.0827,-4.1706,-4.153,-4.1756,-4.2861,-4.2986,-4.2986,-4.2986,-4.2986,-4.2986,-4.2986,-4.2986,-4.2986,-4.2986,-4.2986,-4.2986,-4.2986,-4.2986,-4.276,-4.2283,-4.1329,-4.0626,-4.0174,-3.9848,-3.9697,0.0,0.0,0.0,0.0,0.0,0.0,-1.9802,-2.0313,-2.069,0.0,0.0,0.0,0.0,0.0,0.0,0.0,0.0,0.0,0.0,0.0,0.0,0.0,0.0,0.0,-2.6445,-2.6021,-2.5994,-2.6649,-2.6671,-2.6697,-2.6672,-2.8637,-2.9688,-2.9451,-2.9568,-2.9631,-2.9704,-2.9704,-2.9729,-2.9804,-2.9804,-2.9804,-2.9804,-3.0306,-3.0532,-3.0557,-3.1085,-3.1587,-3.2022,-3.2152,-3.2866,-3.3815,-3.3815,-3.4117,-3.4686,-3.5148,-3.5382,-3.5583,-3.6107,-3.6355,-3.6405,-3.6405,-3.6405,-3.6405,-3.6405,-3.6757,-3.7111,-3.7161,-3.7939,-3.8944,-3.9446,-3.9597,-3.9622,-3.9672,-3.9697,-3.9697,-3.9697,-3.9697,-3.9697,-3.9697,-4.0099,-4.0425,-4.0425,-4.0827,-4.0949,-4.0501,-4.0425,-4.0626,-4.1125,-4.125,-4.1731,-4.2785,-4.2936,-4.2986,-4.2986,-4.2986,-4.2986,-4.2986,-4.2986,-4.2986,-4.2986,-4.2986,-4.2986,-4.2986,-4.2986,-4.2434,-4.1275,-4.1275,-4.0777,-3.9697,-3.9697,-3.9697,0.0,0.0,0.0,0.0,0.0,0.0,-2.169,-2.2399,-2.2781,0.0,0.0,0.0,0.0,0.0,0.0,0.0,0.0,0.0,0.0,0.0,0.0,0.0,0.0,0.0,-2.6487,-2.6394,-2.6714,-2.7704,-2.7803,-2.7816,-2.7792,-2.9068,-2.8966,-2.7188,-2.7977,-2.8611,-2.9063,-2.9063,-2.9327,-2.9804,-2.9804,-2.9804,-2.9804,-2.9905,-2.9955,-2.998,-3.0532,-3.0834,-3.1009,-3.1855,-3.2607,-3.3269,-3.3269,-3.3568,-3.4081,-3.4161,-3.4776,-3.5508,-3.5608,-3.5981,-3.6405,-3.6405,-3.6405,-3.6405,-3.6405,-3.648,-3.6656,-3.7061,-3.7663,-3.8316,-3.8868,-3.9044,-3.9145,-3.9597,-3.9697,-3.9697,-3.9697,-3.9697,-3.9697,-3.9697,-3.9772,-3.9848,-3.9848,-3.9948,-3.9973,-3.9873,-3.9848,-4.0049,-4.0601,-4.1025,-4.158,-4.2313,-4.271,-4.2986,-4.2986,-4.2986,-4.2986,-4.2986,-4.2986,-4.2986,-4.2986,-4.2986,-4.2986,-4.2986,-4.2986,-4.2434,-4.1275,-4.1275,-4.0777,-3.9697,-3.9697,-3.9697,0.0,0.0,0.0,-2.3948,0.0,0.0,0.0,-2.2941,-2.3183,0.0,0.0,0.0,0.0,0.0,0.0,0.0,0.0,0.0,0.0,0.0,0.0,0.0,0.0,0.0,-2.6468,-2.6212,-2.65,-2.7609,-2.7695,-2.7821,-2.8097,-2.8145,-2.7641,-2.653,-2.7027,-2.7701,-2.8499,-2.8762,-2.9038,-2.9377,-2.9654,-2.9804,-2.9804,-2.9804,-2.9804,-2.9804,-3.008,-3.0357,-3.0658,-3.1185,-3.1905,-3.2678,-3.2975,-3.3273,-3.351,-3.379,-3.4424,-3.5132,-3.5408,-3.5906,-3.6405,-3.6405,-3.6405,-3.6405,-3.6405,-3.6405,-3.6531,-3.7036,-3.7387,-3.7789,-3.8642,-3.8919,-3.907,-3.9572,-3.9697,-3.9697,-3.9697,-3.9697,-3.9697,-3.9697,-3.9697,-3.9697,-3.9697,-3.9697,-3.9697,-3.9697,-3.9697,-3.9898,-4.045,-4.0752,-4.1254,-4.2112,-4.2464,-4.274,-4.2961,-4.2986,-4.2986,-4.2986,-4.2986,-4.2986,-4.2986,-4.2986,-4.2986,-4.2986,-4.2986,-4.2434,-4.1275,-4.1275,-4.0777,-3.9697,-3.9697,-3.9697,0.0,0.0,0.0,0.0,0.0,-2.3941,0.0,0.0,0.0,0.0,0.0,0.0,0.0,0.0,0.0,0.0,0.0,0.0,0.0,0.0,0.0,0.0,0.0,0.0,0.0,-2.5711,-2.5862,-2.6927,-2.6967,-2.7193,-2.777,-2.6977,-2.6507,-2.6492,-2.6498,-2.6909,-2.7762,-2.8436,-2.8787,-2.8888,-2.9528,-2.9804,-2.9804,-2.9804,-2.9804,-2.9804,-2.9804,-3.0055,-3.0457,-3.0583,-3.1113,-3.197,-3.2632,-3.2993,-3.3144,-3.3571,-3.4098,-3.465,-3.5157,-3.5755,-3.6279,-3.638,-3.6405,-3.6405,-3.6405,-3.6405,-3.6505,-3.691,-3.7111,-3.7412,-3.8442,-3.8844,-3.907,-3.9572,-3.9697,-3.9697,-3.9697,-3.9697,-3.9697,-3.9697,-3.9697,-3.9697,-3.9697,-3.9697,-3.9697,-3.9697,-3.9697,-3.9848,-4.03,-4.045,-4.0852,-4.1785,-4.2087,-4.2389,-4.2841,-4.2911,-4.2986,-4.2986,-4.2986,-4.2986,-4.2986,-4.2986,-4.2986,-4.2986,-4.2986,-4.2484,-4.1505,-4.1351,-4.0777,-3.9697,-3.9697,-3.9697,0.0,0.0,0.0,0.0,-2.475,0.0,0.0,0.0,-2.3747,-2.3174,0.0,0.0,0.0,0.0,0.0,0.0,0.0,0.0,0.0,0.0,0.0,0.0,0.0,0.0,0.0,-2.4926,-2.5159,-2.5737,-2.5787,-2.6038,-2.665,-2.6575,-2.649,-2.6496,-2.6506,-2.6552,-2.6703,-2.7676,-2.8448,-2.8888,-2.9528,-2.9804,-2.9804,-2.9804,-2.9804,-2.9804,-2.9804,-2.9829,-2.993,-3.0407,-3.0651,-3.0888,-3.1896,-3.2616,-3.3136,-3.3144,-3.352,-3.4073,-3.4625,-3.5132,-3.5683,-3.6207,-3.6405,-3.6405,-3.6405,-3.6405,-3.643,-3.648,-3.6857,-3.7337,-3.7939,-3.8492,-3.907,-3.9572,-3.9697,-3.9697,-3.9697,-3.9697,-3.9697,-3.9697,-3.9697,-3.9697,-3.9697,-3.9697,-3.9697,-3.9697,-3.9697,-3.9722,-3.9772,-4.0224,-4.0576,-4.0701,-4.158,-4.2238,-4.2313,-4.2766,-4.2986,-4.2986,-4.2986,-4.2986,-4.2986,-4.2986,-4.2986,-4.2986,-4.2986,-4.2685,-4.2112,-4.158,-4.0777,-3.9697,-3.9697,-3.9697,0.0,0.0,0.0,0.0,0.0,0.0,-2.4983,0.0,-2.4029,0.0,0.0,0.0,0.0,0.0,0.0,0.0,0.0,0.0,0.0,0.0,0.0,0.0,0.0,0.0,0.0,0.0,0.0,0.0,-2.5234,-2.5862,-2.6468,-2.6501,-2.6499,-2.6499,-2.6499,-2.6506,-2.6492,-2.7258,-2.7745,-2.7971,-2.8875,-2.9302,-2.9302,-2.9628,-2.9804,-2.9804,-2.9804,-2.9804,-2.9804,-3.003,-3.0326,-3.0661,-3.1433,-3.2064,-3.261,-3.2975,-3.3621,-3.4399,-3.465,-3.5303,-3.6056,-3.6329,-3.6405,-3.6405,-3.6405,-3.6405,-3.6405,-3.6405,-3.6807,-3.7312,-3.7864,-3.8442,-3.907,-3.9572,-3.9697,-3.9697,-3.9697,-3.9697,-3.9697,-3.9697,-3.9697,-3.9697,-3.9697,-3.9697,-3.9697,-3.9697,-3.9697,-3.9697,-3.9697,-3.9898,-4.0174,-4.0475,-4.0927,-4.1455,-4.2162,-4.2414,-4.269,-4.2961,-4.2986,-4.2986,-4.2986,-4.2986,-4.2986,-4.2986,-4.2986,-4.2766,-4.2213,-4.1932,-4.1254,-4.0174,-3.9848,-3.9697,-2.6499,0.0,0.0,0.0,0.0,0.0,0.0,0.0,0.0,0.0,0.0,0.0,0.0,0.0,0.0,0.0,0.0,0.0,0.0,0.0,0.0,0.0,0.0,0.0,0.0,0.0,0.0,-2.3979,-2.4732,-2.555,-2.644,-2.6494,-2.6501,-2.6499,-2.6499,-2.6499,-2.6499,-2.7027,-2.7293,-2.7293,-2.8398,-2.8888,-2.8913,-2.9528,-2.9804,-2.9804,-2.9804,-2.9804,-2.9804,-2.9804,-3.0035,-3.0443,-3.1115,-3.1639,-3.2068,-3.2839,-3.3671,-3.4525,-3.4675,-3.5454,-3.6405,-3.6405,-3.6405,-3.6405,-3.6405,-3.6505,-3.6631,-3.6631,-3.7086,-3.7739,-3.814,-3.8668,-3.9195,-3.9597,-3.9697,-3.9697,-3.9697,-3.9697,-3.9697,-3.9697,-3.9697,-3.9697,-3.9697,-3.9697,-3.9697,-3.9697,-3.9697,-3.9697,-3.9697,-3.9697,-3.9848,-4.0249,-4.0425,-4.0827,-4.163,-4.2037,-4.2439,-4.2936,-4.2986,-4.2986,-4.2986,-4.2986,-4.2986,-4.2986,-4.2986,-4.2841,-4.2439,-4.2288,-4.1681,-4.0727,-4.0174,-3.9848,0.0,0.0,0.0,-2.6499,0.0,0.0,0.0,0.0,-2.541,0.0,0.0,0.0,0.0,0.0,0.0,0.0,0.0,0.0,0.0,0.0,0.0,0.0,0.0,0.0,0.0,0.0,0.0,-2.3954,-2.4029,-2.4766,-2.6389,-2.6491,-2.651,-2.6474,-2.6499,-2.6499,-2.6499,-2.7027,-2.7293,-2.7293,-2.8398,-2.8888,-2.8913,-2.9528,-2.9804,-2.9804,-2.9804,-2.9804,-2.9804,-2.9804,-2.9804,-2.9905,-3.0984,-3.1414,-3.1547,-3.2703,-3.3445,-3.3997,-3.4525,-3.5454,-3.6405,-3.6405,-3.6405,-3.6405,-3.6405,-3.6782,-3.7161,-3.7161,-3.7965,-3.8869,-3.8894,-3.9245,-3.9672,-3.9697,-3.9697,-3.9697,-3.9697,-3.9697,-3.9697,-3.9697,-3.9697,-3.9697,-3.9697,-3.9697,-3.9697,-3.9697,-3.9697,-3.9697,-3.9697,-3.9697,-3.9697,-3.9722,-4.0199,-4.0526,-4.0576,-4.1555,-4.2439,-4.2936,-4.2986,-4.2986,-4.2986,-4.2986,-4.2986,-4.2986,-4.2986,-4.2961,-4.2961,-4.2464,-4.1856,-4.125,-4.0752,-4.0199,0.0,0.0,-2.6499,-2.6499,0.0,0.0,0.0,0.0,0.0,0.0,0.0,0.0,0.0,0.0,0.0,0.0,0.0,0.0,0.0,0.0,0.0,0.0,0.0,0.0,0.0,0.0,0.0,-2.3371,-2.3778,-2.4047,-2.4247,-2.5676,-2.6485,-2.6474,-2.6499,-2.6499,-2.6499,-2.6675,-2.6776,-2.6776,-2.7871,-2.8373,-2.8423,-2.9352,-2.9804,-2.9804,-2.9804,-2.9804,-2.9804,-2.9804,-2.9804,-2.9905,-3.0959,-3.1373,-3.1547,-3.2678,-3.3646,-3.4575,-3.5504,-3.6103,-3.6405,-3.6405,-3.6405,-3.6405,-3.6405,-3.6782,-3.7186,-3.7186,-3.799,-3.8919,-3.8919,-3.927,-3.9697,-3.9697,-3.9697,-3.9697,-3.9697,-3.9697,-3.9697,-3.9697,-3.9697,-3.9697,-3.9697,-3.9697,-3.9697,-3.9697,-3.9697,-3.9697,-3.9697,-3.9697,-3.9697,-3.9697,-3.9848,-4.0124,-4.0475,-4.153,-4.2439,-4.2936,-4.2986,-4.2986,-4.2986,-4.2986,-4.2986,-4.2986,-4.2986,-4.2986,-4.2986,-4.2489,-4.1882,-4.1275,-4.0777,-4.0224,-2.6499,-2.6499,0.0,-2.6499,-2.6499,0.0,-2.6499,0.0,0.0,0.0,0.0,0.0,0.0,0.0,0.0,0.0,0.0,0.0,0.0,-2.3095,0.0,0.0,0.0,0.0,0.0,0.0,-2.3095,-2.3095,-2.3446,-2.3517,0.0,0.0,-2.6071,-2.6474,-2.6499,-2.6499,-2.6499,-2.6499,-2.6499,-2.6499,-2.757,-2.8097,-2.8147,-2.9277,-2.9804,-2.9804,-2.9804,-2.9804,-2.9804,-2.9804,-2.9907,-3.0161,-3.1055,-3.1539,-3.1816,-3.2771,-3.3771,-3.4876,-3.5981,-3.6405,-3.6405,-3.6405,-3.6405,-3.6455,-3.6631,-3.6958,-3.7312,-3.7914,-3.8467,-3.902,-3.9346,-3.9572,-3.9697,-3.9697,-3.9697,-3.9697,-3.9697,-3.9697,-3.9697,-3.9697,-3.9697,-3.9697,-3.9697,-3.9697,-3.9697,-3.9697,-3.9697,-3.9697,-3.9697,-3.9697,-3.9697,-3.9697,-3.9697,-3.9923,-4.0475,-4.1354,-4.2108,-4.2715,-4.2861,-4.2986,-4.2986,-4.2986,-4.3162,-4.3564,-4.3162,-4.3062,-4.3263,-4.2564,-4.1781,-4.0974,-4.0676,-4.0224]},{"header":{"parameterUnit":"m.s-1","parameterCategory":1,"la1":30.6,"la2":29.2853,"lo1":-89.7004,"lo2":-87.6739,"dy":0.0162,"dx":0.0183,"nx":112,"ny":82,"refTime":"2023-07-20T00:00:00:Z","depth":0,"parameterNumber":3,"parameterNumberName":"V-component_of_WINDS"},"data":[0.0,0.0,0.0,0.0,0.0,0.0,0.0,0.0,0.0,0.0,0.0,0.0,0.0,0.0,0.0,0.0,0.0,0.0,0.0,0.0,0.0,0.0,0.0,0.0,0.0,0.0,0.0,0.0,0.0,0.0,0.0,0.0,0.0,0.0,0.0,0.0,0.0,0.0,0.0,0.0,0.0,0.0,0.0,0.0,0.0,0.0,0.0,0.0,0.0,0.0,0.0,0.0,0.0,0.0,0.0,0.0,0.0,0.0,0.0,0.0,0.0,0.0,0.0,0.0,0.0,0.0,0.0,0.0,0.0,0.0,0.0,0.0,0.0,0.0,0.0,0.0,0.0,0.0,0.0,0.0,0.0,0.0,0.0,0.0,0.0,0.0,0.0,0.0,0.0,0.0,-3.2713,-3.6242,-4.2083,-4.5805,-4.6041,-4.6278,-4.4418,-3.9648,0.0,0.0,0.0,0.0,0.0,0.0,0.0,0.0,0.0,0.0,0.0,0.0,0.0,0.0,0.0,0.0,0.0,0.0,0.0,0.0,0.0,0.0,0.0,0.0,0.0,0.0,0.0,0.0,0.0,0.0,0.0,0.0,0.0,0.0,0.0,0.0,0.0,0.0,0.0,0.0,0.0,0.0,0.0,0.0,0.0,0.0,0.0,0.0,0.0,0.0,0.0,0.0,0.0,0.0,0.0,0.0,0.0,0.0,0.0,0.0,0.0,0.0,0.0,0.0,0.0,0.0,0.0,0.0,0.0,0.0,0.0,0.0,0.0,0.0,0.0,0.0,0.0,0.0,0.0,0.0,0.0,0.0,0.0,0.0,0.0,0.0,0.0,0.0,0.0,0.0,0.0,0.0,0.0,0.0,0.0,0.0,0.0,0.0,0.0,0.0,0.0,0.0,0.0,0.0,-3.4493,-4.0629,-4.3944,-4.621,-4.7432,-4.594,-4.3741,-4.1035,0.0,0.0,0.0,0.0,0.0,0.0,0.0,0.0,0.0,0.0,0.0,0.0,0.0,0.0,0.0,0.0,0.0,0.0,0.0,0.0,0.0,0.0,0.0,0.0,0.0,0.0,0.0,0.0,0.0,0.0,0.0,0.0,0.0,0.0,0.0,0.0,0.0,0.0,0.0,0.0,0.0,0.0,0.0,0.0,0.0,0.0,0.0,0.0,0.0,0.0,0.0,0.0,0.0,0.0,0.0,0.0,0.0,0.0,0.0,0.0,0.0,0.0,0.0,0.0,0.0,0.0,0.0,0.0,0.0,0.0,0.0,0.0,0.0,0.0,0.0,0.0,0.0,0.0,0.0,0.0,0.0,0.0,0.0,0.0,0.0,0.0,0.0,0.0,0.0,0.0,0.0,0.0,0.0,0.0,0.0,0.0,0.0,0.0,0.0,0.0,0.0,0.0,0.0,-3.3931,-3.711,-4.1779,-4.4688,-4.6583,-4.7259,-4.5635,-4.3606,-4.1339,-3.9445,0.0,0.0,0.0,0.0,0.0,0.0,0.0,0.0,0.0,0.0,0.0,0.0,0.0,0.0,0.0,0.0,0.0,0.0,0.0,0.0,0.0,0.0,0.0,0.0,0.0,0.0,0.0,0.0,0.0,0.0,0.0,0.0,0.0,0.0,0.0,0.0,0.0,0.0,0.0,0.0,0.0,0.0,0.0,0.0,0.0,0.0,0.0,0.0,0.0,0.0,0.0,0.0,0.0,0.0,0.0,0.0,0.0,0.0,0.0,0.0,0.0,0.0,0.0,0.0,0.0,0.0,0.0,0.0,0.0,0.0,0.0,0.0,0.0,0.0,0.0,0.0,0.0,0.0,0.0,0.0,0.0,0.0,0.0,0.0,0.0,0.0,0.0,0.0,0.0,0.0,0.0,0.0,0.0,0.0,0.0,0.0,0.0,0.0,0.0,0.0,0.0,0.0,-3.6603,-3.9106,-4.2219,-4.4959,-4.6616,-4.6786,-4.5122,-4.3234,-4.1339,-3.8802,0.0,0.0,0.0,0.0,0.0,0.0,0.0,0.0,0.0,0.0,0.0,0.0,0.0,0.0,0.0,0.0,0.0,0.0,0.0,0.0,0.0,0.0,0.0,0.0,0.0,0.0,0.0,0.0,0.0,0.0,0.0,0.0,0.0,0.0,0.0,0.0,0.0,0.0,0.0,0.0,0.0,0.0,0.0,0.0,0.0,0.0,0.0,0.0,0.0,0.0,0.0,0.0,0.0,0.0,0.0,0.0,0.0,0.0,0.0,0.0,0.0,0.0,0.0,0.0,0.0,0.0,0.0,0.0,0.0,0.0,0.0,0.0,0.0,0.0,0.0,0.0,0.0,0.0,0.0,0.0,0.0,0.0,0.0,0.0,0.0,0.0,0.0,0.0,0.0,0.0,0.0,0.0,0.0,0.0,0.0,0.0,0.0,0.0,0.0,0.0,0.0,0.0,-3.6884,-3.9309,-4.2936,-4.4823,-4.6041,-4.6718,-4.4113,-4.2083,-4.1271,-3.7763,0.0,0.0,0.0,0.0,0.0,0.0,0.0,0.0,0.0,0.0,0.0,0.0,0.0,0.0,0.0,0.0,0.0,0.0,0.0,0.0,0.0,0.0,0.0,0.0,0.0,0.0,0.0,0.0,0.0,0.0,0.0,0.0,0.0,0.0,0.0,0.0,0.0,0.0,0.0,0.0,0.0,0.0,0.0,0.0,0.0,0.0,0.0,0.0,0.0,0.0,0.0,0.0,0.0,0.0,0.0,0.0,0.0,0.0,0.0,0.0,0.0,0.0,0.0,0.0,0.0,0.0,0.0,0.0,0.0,0.0,0.0,0.0,0.0,0.0,0.0,0.0,0.0,0.0,0.0,0.0,0.0,0.0,0.0,0.0,0.0,0.0,0.0,0.0,0.0,0.0,0.0,0.0,0.0,0.0,0.0,0.0,0.0,0.0,0.0,0.0,0.0,0.0,-3.7347,-3.9648,0.0,-4.4519,-4.5635,-4.5461,-4.3944,-4.2286,-4.0595,0.0,0.0,0.0,0.0,0.0,0.0,0.0,0.0,0.0,0.0,0.0,0.0,0.0,0.0,0.0,0.0,0.0,0.0,0.0,0.0,0.0,0.0,0.0,0.0,0.0,0.0,0.0,0.0,0.0,0.0,0.0,0.0,0.0,0.0,0.0,0.0,0.0,0.0,0.0,0.0,0.0,0.0,0.0,0.0,0.0,0.0,0.0,0.0,0.0,0.0,0.0,0.0,0.0,0.0,0.0,0.0,0.0,0.0,0.0,0.0,0.0,0.0,0.0,0.0,0.0,0.0,0.0,0.0,0.0,0.0,0.0,0.0,0.0,0.0,0.0,0.0,0.0,0.0,0.0,0.0,0.0,0.0,0.0,0.0,0.0,0.0,0.0,0.0,0.0,0.0,0.0,0.0,0.0,0.0,0.0,0.0,0.0,0.0,0.0,0.0,0.0,0.0,-3.5329,-3.7584,-3.9749,0.0,-4.3775,-4.4688,-4.3938,-4.2726,-4.1373,-3.9876,0.0,0.0,0.0,0.0,0.0,0.0,0.0,0.0,0.0,0.0,0.0,0.0,0.0,0.0,0.0,0.0,0.0,0.0,0.0,0.0,0.0,0.0,0.0,0.0,0.0,0.0,0.0,0.0,0.0,0.0,0.0,0.0,0.0,0.0,0.0,0.0,0.0,0.0,0.0,0.0,0.0,0.0,0.0,0.0,0.0,0.0,0.0,0.0,0.0,0.0,0.0,0.0,0.0,0.0,0.0,0.0,0.0,0.0,0.0,0.0,0.0,0.0,0.0,0.0,0.0,0.0,0.0,0.0,0.0,0.0,0.0,0.0,0.0,0.0,0.0,0.0,0.0,0.0,0.0,0.0,0.0,0.0,0.0,0.0,0.0,0.0,0.0,0.0,0.0,0.0,0.0,0.0,0.0,0.0,0.0,0.0,0.0,0.0,0.0,0.0,0.0,0.0,-3.5329,-3.7584,-3.958,-4.1035,-4.2496,-4.3098,-4.2354,-4.029,-3.9005,0.0,0.0,0.0,0.0,0.0,0.0,0.0,0.0,0.0,0.0,0.0,0.0,0.0,0.0,0.0,0.0,0.0,0.0,0.0,0.0,0.0,0.0,0.0,0.0,0.0,0.0,0.0,0.0,0.0,0.0,0.0,0.0,0.0,0.0,0.0,0.0,0.0,0.0,0.0,0.0,0.0,0.0,0.0,0.0,0.0,0.0,0.0,0.0,0.0,0.0,0.0,0.0,0.0,0.0,0.0,0.0,0.0,0.0,0.0,0.0,0.0,0.0,0.0,0.0,0.0,0.0,0.0,0.0,0.0,0.0,0.0,0.0,0.0,0.0,0.0,0.0,0.0,0.0,0.0,0.0,0.0,0.0,0.0,0.0,0.0,0.0,0.0,0.0,0.0,0.0,0.0,0.0,0.0,0.0,0.0,0.0,0.0,0.0,0.0,0.0,0.0,0.0,0.0,-3.6197,-3.7922,-3.958,-4.1035,-4.2049,-4.2523,-4.232,-4.1238,-4.0121,-3.9073,0.0,0.0,0.0,0.0,0.0,0.0,0.0,0.0,0.0,0.0,0.0,0.0,0.0,0.0,0.0,0.0,0.0,0.0,0.0,0.0,0.0,0.0,0.0,0.0,0.0,0.0,0.0,0.0,0.0,0.0,0.0,0.0,0.0,0.0,0.0,0.0,0.0,0.0,0.0,0.0,0.0,0.0,0.0,0.0,0.0,0.0,0.0,0.0,0.0,0.0,0.0,0.0,0.0,0.0,0.0,0.0,0.0,0.0,0.0,0.0,0.0,0.0,0.0,0.0,0.0,0.0,0.0,0.0,0.0,0.0,0.0,0.0,0.0,0.0,0.0,0.0,0.0,0.0,0.0,0.0,0.0,0.0,0.0,0.0,0.0,0.0,0.0,0.0,0.0,0.0,0.0,0.0,0.0,0.0,0.0,0.0,0.0,0.0,0.0,0.0,0.0,0.0,-3.6592,-3.8115,-3.9445,-4.0629,-4.1407,-4.1745,-4.1467,-4.073,-3.9952,-3.9039,0.0,0.0,0.0,0.0,0.0,0.0,0.0,0.0,0.0,0.0,0.0,0.0,0.0,0.0,0.0,0.0,0.0,0.0,0.0,0.0,0.0,0.0,0.0,0.0,0.0,0.0,0.0,0.0,0.0,0.0,0.0,0.0,0.0,0.0,0.0,0.0,0.0,0.0,0.0,0.0,0.0,0.0,0.0,0.0,0.0,0.0,0.0,0.0,0.0,0.0,0.0,0.0,0.0,0.0,0.0,0.0,0.0,0.0,0.0,0.0,0.0,0.0,0.0,0.0,0.0,0.0,0.0,0.0,0.0,0.0,0.0,0.0,0.0,0.0,0.0,0.0,0.0,0.0,0.0,0.0,0.0,0.0,0.0,0.0,0.0,0.0,0.0,0.0,0.0,0.0,0.0,0.0,0.0,0.0,0.0,0.0,0.0,0.0,0.0,0.0,0.0,0.0,-3.6728,-3.8125,-3.9276,-4.0011,-4.0696,-4.0832,-4.018,-3.9503,-3.9073,-3.9005,0.0,0.0,0.0,0.0,0.0,0.0,0.0,0.0,0.0,0.0,0.0,0.0,0.0,0.0,0.0,0.0,0.0,0.0,0.0,0.0,0.0,0.0,0.0,0.0,0.0,0.0,0.0,0.0,0.0,0.0,0.0,0.0,0.0,0.0,0.0,0.0,0.0,0.0,0.0,0.0,0.0,0.0,0.0,0.0,0.0,0.0,0.0,0.0,0.0,0.0,0.0,0.0,0.0,0.0,0.0,0.0,0.0,0.0,0.0,0.0,-3.979,0.0,0.0,0.0,0.0,0.0,0.0,0.0,0.0,0.0,0.0,0.0,0.0,0.0,0.0,0.0,0.0,0.0,0.0,0.0,0.0,0.0,0.0,0.0,0.0,0.0,0.0,0.0,0.0,0.0,0.0,0.0,0.0,0.0,0.0,0.0,0.0,0.0,0.0,0.0,0.0,0.0,-3.755,-3.843,-3.9276,-4.0011,-4.0248,-4.0282,-4.0113,-3.9977,-3.9639,-3.9039,-3.87,0.0,0.0,0.0,0.0,0.0,0.0,0.0,0.0,0.0,0.0,0.0,0.0,0.0,0.0,0.0,0.0,0.0,0.0,0.0,0.0,0.0,0.0,0.0,0.0,0.0,0.0,0.0,0.0,0.0,0.0,0.0,0.0,0.0,0.0,0.0,0.0,0.0,0.0,0.0,0.0,0.0,0.0,0.0,0.0,0.0,0.0,0.0,0.0,0.0,0.0,0.0,0.0,0.0,0.0,0.0,0.0,0.0,0.0,0.0,0.0,-4.2213,0.0,0.0,0.0,0.0,0.0,0.0,0.0,0.0,0.0,0.0,0.0,0.0,0.0,0.0,0.0,0.0,0.0,0.0,0.0,0.0,0.0,0.0,0.0,0.0,0.0,0.0,0.0,0.0,0.0,0.0,0.0,0.0,0.0,0.0,0.0,0.0,0.0,0.0,0.0,0.0,-3.8328,-3.9073,-3.9817,-4.0527,-4.0629,-4.0629,-4.0629,-4.0316,-3.9943,-3.9571,-3.9174,0.0,0.0,0.0,0.0,0.0,0.0,0.0,0.0,0.0,0.0,0.0,0.0,0.0,0.0,0.0,0.0,0.0,0.0,0.0,0.0,0.0,0.0,0.0,0.0,0.0,0.0,0.0,0.0,0.0,0.0,0.0,0.0,0.0,0.0,0.0,0.0,0.0,0.0,0.0,0.0,0.0,0.0,0.0,0.0,0.0,0.0,0.0,0.0,0.0,0.0,0.0,0.0,0.0,-4.77,-4.8563,-4.9794,-4.9077,-4.9481,-5.0655,-4.7829,-4.5883,-4.4726,-4.4291,0.0,0.0,0.0,0.0,0.0,0.0,0.0,0.0,0.0,0.0,0.0,0.0,0.0,0.0,0.0,0.0,0.0,0.0,0.0,0.0,0.0,0.0,0.0,0.0,-4.3722,-4.343,0.0,0.0,0.0,0.0,0.0,0.0,0.0,0.0,0.0,0.0,0.0,0.0,-3.9073,-3.9851,-4.0569,-4.1305,-4.1407,-4.1407,-4.1407,-4.0696,-4.0282,-4.0282,-3.9605,-3.9106,0.0,0.0,0.0,0.0,0.0,0.0,0.0,0.0,0.0,0.0,0.0,0.0,0.0,0.0,0.0,0.0,0.0,0.0,0.0,0.0,0.0,0.0,0.0,0.0,0.0,0.0,0.0,0.0,0.0,0.0,0.0,0.0,-3.6413,-3.7235,0.0,0.0,0.0,0.0,0.0,0.0,0.0,0.0,0.0,0.0,0.0,0.0,0.0,-4.625,-4.8619,-5.0124,-4.9958,-4.814,-5.0105,-5.0875,-5.0655,-5.0508,-5.0582,-5.0949,-5.3188,0.0,-4.9684,-4.7497,0.0,0.0,0.0,0.0,0.0,0.0,0.0,0.0,0.0,0.0,0.0,0.0,0.0,0.0,0.0,0.0,0.0,0.0,0.0,0.0,0.0,0.0,-4.3955,-4.4848,-4.4791,-4.4218,0.0,-4.2274,-4.138,-4.0133,-3.9874,0.0,0.0,0.0,0.0,0.0,0.0,0.0,-3.9876,-4.0595,-4.1339,-4.2083,-4.2151,-4.2151,-4.2151,-4.1474,-4.1068,-4.1068,-4.0358,-3.9673,-3.9005,-3.8903,0.0,0.0,0.0,0.0,0.0,0.0,0.0,0.0,0.0,0.0,0.0,0.0,0.0,0.0,0.0,0.0,0.0,0.0,0.0,0.0,0.0,0.0,0.0,0.0,0.0,0.0,0.0,0.0,0.0,-3.7,-3.8285,-3.8175,-3.8982,-3.9313,0.0,0.0,0.0,0.0,0.0,0.0,0.0,0.0,0.0,-4.8086,-4.8893,-5.0508,-5.2952,-5.4106,-5.4399,-5.3775,-5.5354,-5.6602,-5.7519,-5.6602,-5.6712,-5.7629,-5.9024,-5.8841,-5.7226,-5.3138,-5.0084,-4.7913,0.0,0.0,0.0,0.0,-4.693,-4.7003,-4.7425,-4.7334,0.0,-4.6654,0.0,0.0,0.0,0.0,0.0,0.0,0.0,0.0,0.0,0.0,-4.6564,-4.6274,-4.6569,-4.6653,-4.5563,-4.4674,-4.3447,0.0,-4.0696,-4.046,-3.9774,0.0,0.0,0.0,0.0,-4.0358,-4.0663,-4.1711,-4.2557,-4.2895,-4.2929,-4.2929,-4.2929,-4.188,-4.1204,-4.1204,-4.0493,-3.9977,-3.9639,-3.9639,-3.9276,0.0,0.0,0.0,0.0,0.0,0.0,0.0,0.0,0.0,0.0,0.0,0.0,0.0,0.0,0.0,0.0,0.0,0.0,0.0,0.0,0.0,0.0,0.0,0.0,0.0,0.0,0.0,0.0,-3.8872,-4.0047,-3.8836,-4.0855,-4.1552,0.0,0.0,0.0,0.0,0.0,0.0,-4.6507,-4.8673,-5.0729,-5.2564,-5.3628,-5.5317,-5.7762,-5.8143,-5.8841,-5.9869,-6.0236,-6.1704,-6.4016,-6.2805,-6.2915,-6.4053,-6.4053,-6.4053,-6.3613,-5.7941,-5.4072,-5.1658,-5.0851,-5.0134,-4.9634,-5.0305,-5.0508,-5.0582,-5.1206,-5.0875,-5.0088,-4.926,0.0,-4.7754,-4.4492,0.0,0.0,0.0,0.0,-4.632,-4.6601,-4.7831,-4.8758,-4.786,-4.8398,-4.8723,-4.7384,-4.665,-4.5432,0.0,-4.1914,-4.1542,-4.079,0.0,0.0,0.0,0.0,-4.1542,-4.1745,-4.2699,-4.3477,-4.3707,-4.3707,-4.3707,-4.3707,-4.2354,-4.1474,-4.1474,-4.0595,-4.0113,-4.0113,-4.0113,-3.9842,-3.9276,0.0,0.0,0.0,0.0,0.0,0.0,0.0,0.0,0.0,0.0,0.0,0.0,0.0,0.0,0.0,0.0,0.0,0.0,0.0,0.0,0.0,0.0,0.0,0.0,0.0,0.0,0.0,0.0,0.0,-3.8982,-4.2837,0.0,0.0,0.0,0.0,-4.6636,-4.7553,-4.9114,-5.1499,-5.3188,-5.517,-5.7556,-5.9171,-6.1153,-6.3649,-6.2879,-6.3319,-6.4934,-6.3392,-6.4347,-6.743,-6.7357,-6.7357,-6.743,-6.743,-6.743,-6.6953,-6.0517,-5.7744,-5.7265,-5.4231,-5.2967,-5.294,-5.3002,-5.3041,-5.3041,-5.3057,-5.2564,-5.2123,-5.3555,-5.3004,-5.0721,-4.5187,-4.6219,0.0,0.0,-4.9992,-4.9588,-5.049,-5.023,-4.9758,-4.9896,-4.9928,-4.9522,-4.815,-4.7804,-4.7124,0.0,-4.3809,-4.3064,-4.232,0.0,-4.1948,-4.1238,-4.1779,-4.2489,-4.3172,-4.3341,-4.3707,-4.4479,-4.4547,-4.4547,-4.4547,-4.3132,-4.2219,-4.2219,-4.0891,-4.0113,-4.0113,-4.0113,-4.0079,-4.0045,-3.9368,0.0,0.0,0.0,0.0,0.0,0.0,0.0,0.0,0.0,0.0,0.0,0.0,0.0,0.0,0.0,0.0,0.0,0.0,0.0,0.0,0.0,0.0,0.0,0.0,0.0,0.0,0.0,0.0,-4.4929,-4.8269,0.0,-4.7572,-4.86,-4.9848,-5.0929,-5.2747,-5.484,-5.7262,-5.9465,-6.152,-6.3392,-6.453,-6.5778,-6.7173,-6.6366,-6.6256,-6.6843,-6.7283,-6.8641,-7.077,-7.077,-7.077,-7.077,-7.077,-6.9596,-6.7677,-6.7436,-6.5324,-6.1932,-5.9334,-5.7826,-5.7083,-5.7061,-5.7056,-5.713,-5.7666,-5.7299,-5.6492,-5.55,-5.3371,-5.0835,-4.8798,-4.9228,-5.0855,-5.3258,-5.2967,-5.1869,-5.1815,-5.2303,-5.2588,-5.18,-5.1523,-5.1218,-5.0224,-5.0002,-4.9661,-4.8376,-4.638,-4.4485,-4.3234,-4.3031,-4.276,-4.2016,-4.2963,-4.3673,-4.3409,-4.4282,-4.4823,-4.4615,-4.4615,-4.4384,-4.3876,-4.2895,-4.2083,-4.161,-4.0629,-4.0113,-4.0113,-4.0113,-4.0113,-4.0113,-3.9842,-3.9343,0.0,0.0,0.0,0.0,0.0,0.0,0.0,0.0,0.0,0.0,0.0,0.0,0.0,0.0,0.0,0.0,0.0,0.0,0.0,0.0,0.0,0.0,0.0,0.0,0.0,0.0,-4.9131,-4.915,-5.2726,-5.4509,-5.2601,-5.3885,-5.506,-5.5611,-5.8143,-6.0382,-6.1961,-6.464,-6.6366,-6.688,-6.8201,-6.9119,-6.9559,-6.8862,-6.8605,-6.8788,-7.022,-7.1762,-7.3303,-7.2753,-7.2496,-7.2496,-7.2496,-7.1284,-6.9477,-7.1625,-7.0196,-6.6434,-6.4259,-6.2508,-6.1274,-6.1251,-6.1239,-6.1239,-6.1227,-6.0676,-5.9685,-5.7519,-5.517,-5.3225,-5.3219,-5.2983,-5.314,-5.5361,-5.5051,-5.3905,-5.3207,-5.3553,-5.3847,-5.2641,-5.2347,-5.2114,-5.1344,-5.1185,-5.1082,-5.0574,-4.8477,-4.6346,-4.4823,-4.4553,-4.4316,-4.3572,-4.4519,-4.506,-4.4282,-4.5094,-4.5432,-4.4682,-4.4615,-4.4248,-4.3443,-4.2726,-4.1982,-4.1271,-4.0493,-4.0113,-4.0113,-4.0113,-4.0113,-4.0113,-3.9876,-3.9503,-3.9005,0.0,0.0,0.0,0.0,0.0,0.0,0.0,0.0,0.0,0.0,0.0,0.0,0.0,0.0,0.0,0.0,0.0,0.0,0.0,0.0,0.0,0.0,0.0,-4.4048,-4.937,-5.2858,-5.1426,-5.6102,-5.8547,-5.6198,-5.8804,-6.0639,-6.0713,-6.3649,-6.5485,-6.5521,-6.8495,-6.9486,-6.7944,-7.0183,-7.1284,-7.1027,-7.044,-7.044,-7.0991,-7.2055,-7.3413,-7.4882,-7.3303,-7.2569,-7.2569,-7.2532,-7.2496,-7.2488,-7.2484,-7.1876,-7.0697,-6.8531,-6.6743,-6.537,-6.5312,-6.5301,-6.5044,-6.3404,-6.2291,-6.1337,-5.9795,-5.8731,-5.8033,-5.7955,-5.7226,-5.6397,-5.6453,-5.6081,-5.5552,-5.4818,-5.4021,-5.3256,-5.2529,-5.2364,-5.2153,-5.1446,-5.1252,-5.1252,-5.1251,-5.0101,-4.8646,-4.7124,-4.6853,-4.6583,-4.5838,-4.6346,0.0,-4.5838,-4.5771,-4.55,-4.475,-4.4649,-4.4282,-4.3477,-4.2726,-4.1982,-4.1204,-4.0519,-4.0113,-4.0113,-4.0113,-4.0113,-4.0113,-3.9377,-3.9039,-3.9039,0.0,0.0,0.0,0.0,0.0,0.0,0.0,0.0,0.0,0.0,0.0,0.0,0.0,0.0,0.0,0.0,0.0,0.0,0.0,0.0,0.0,0.0,-5.1903,-5.1463,-5.495,-5.8487,-6.1006,-6.3723,-6.5081,-6.442,-6.5154,-6.6182,-6.7357,-6.8274,-6.9302,-7.0477,-7.1908,-7.2496,-7.2055,-7.3266,-7.3891,-7.3817,-7.2496,-7.2312,-7.323,-7.3927,-7.4698,-7.5439,-7.4625,-7.4258,-7.4184,-7.301,-7.2496,-7.2496,-7.25,-7.1863,-7.0666,-6.8541,-6.743,-6.6916,-6.5742,-6.4934,-6.4347,-6.3906,-6.2805,-6.152,-6.108,-6.0138,-5.8859,-5.7386,-5.674,-5.6309,-5.5606,-5.5553,-5.5667,-5.5466,-5.4825,-5.4233,-5.4015,-5.3562,-5.3105,-5.2908,-5.2875,-5.2706,-5.2131,-5.1657,-5.0744,-4.8748,-4.797,-4.7361,-4.6616,-4.7124,0.0,-4.6583,-4.6955,-4.7022,-4.6244,-4.5703,-4.4857,-4.3511,-4.2726,-4.1745,-4.0485,-4.0214,-4.0113,-4.0113,-4.0113,-4.0113,-4.0113,-3.991,-3.9808,0.0,0.0,0.0,0.0,0.0,0.0,0.0,0.0,0.0,0.0,0.0,0.0,0.0,0.0,0.0,0.0,0.0,0.0,0.0,0.0,0.0,0.0,-5.4142,-5.8143,-6.0199,-6.152,-6.3282,-6.5999,-6.7724,-6.8715,-6.8715,-6.9009,-6.9596,-7.055,-7.0917,-7.1651,-7.2936,-7.378,-7.4294,-7.4515,-7.5102,-7.5359,-7.5249,-7.4331,-7.4037,-7.4441,-7.4515,-7.5028,-7.5873,-7.5212,-7.5285,0.0,-7.3487,-7.2108,-7.15,-7.1749,-7.1317,0.0,0.0,0.0,0.0,0.0,-6.5595,-6.4604,-6.4604,-6.3288,-6.1532,-6.1204,-6.1028,-6.0392,-5.7487,-5.5963,-5.5202,-5.4899,-5.5027,-5.5144,-5.4848,-5.4485,-5.4139,-5.4139,-5.3816,-5.3518,-5.3518,-5.3518,-5.3382,-5.2909,-5.2536,0.0,-5.0608,-4.9526,-4.868,-4.824,-4.8274,-4.8105,-4.7361,-4.7631,-4.7631,-4.6887,-4.6143,-4.5229,-4.4012,-4.2929,0.0,0.0,0.0,-4.0113,-4.0113,-4.0113,0.0,0.0,0.0,-4.0113,-4.0113,0.0,0.0,0.0,-3.8802,-3.8802,0.0,0.0,0.0,0.0,0.0,0.0,0.0,0.0,0.0,0.0,0.0,0.0,0.0,0.0,0.0,0.0,-5.9722,-6.4053,-6.8788,-6.8274,-6.7724,-6.8421,-6.9669,-7.0513,-7.0513,-7.1174,-7.1586,-7.1725,-7.2459,-7.323,-7.3927,0.0,0.0,0.0,0.0,-7.613,-7.5879,-7.5879,-7.5622,-7.5175,-7.4698,-7.5028,-7.6056,-7.5322,-7.5696,-7.676,-7.378,-7.1712,-7.0404,-7.0689,-7.0482,-7.0017,-7.0,-6.9486,-6.8678,-6.7944,-6.6659,-6.5301,-6.5301,0.0,0.0,-6.0882,-6.1487,-6.1819,-5.806,-5.5344,-5.3655,-5.4487,-5.4614,-5.4359,-5.3783,-5.3551,-5.3518,-5.3518,-5.3518,-5.3518,-5.3518,-5.3518,-5.3518,-5.3518,-5.2909,-5.2435,-5.2435,-5.115,-5.0101,-5.0101,-4.9458,-4.8781,-4.8139,-4.8007,-4.7767,-4.7124,0.0,0.0,-4.4818,-4.3301,-4.2049,-4.1271,-4.0493,-4.0113,-4.0113,-4.0113,-4.0113,-4.0113,-4.0113,-4.0113,-4.0113,-4.0113,-4.0113,-4.0113,-4.0113,-4.0113,0.0,0.0,0.0,0.0,0.0,0.0,0.0,0.0,0.0,0.0,0.0,0.0,0.0,0.0,0.0,-5.9722,-6.4383,-6.8715,-7.2275,-7.3046,-7.334,-7.3487,-7.3193,-7.301,-7.301,-7.312,-7.3487,-7.4147,-7.4955,-7.5469,-7.5616,-7.6423,-7.6607,-7.6056,-7.6717,-7.7017,-7.698,-7.698,-7.6943,-7.6833,0.0,0.0,-7.6093,-7.5726,-7.5249,-7.4661,-7.3156,-7.232,-7.1961,-7.0755,-6.9924,-6.9439,-6.9219,-6.8641,-6.7907,-6.7787,-6.6659,-6.5301,-6.5301,-6.3683,-6.1704,-6.2185,-6.1666,-6.0468,-5.8453,-5.579,0.0,-5.5136,-5.4617,-5.3816,-5.4264,-5.3946,-5.3518,-5.3518,-5.3518,-5.3518,-5.3518,-5.3518,-5.3518,-5.3518,-5.3382,-5.3281,-5.3281,-5.1522,-5.0101,-5.0101,-4.9458,-4.8951,-4.8815,-4.8781,-4.8748,-4.8578,-4.7394,-4.6278,-4.5534,-4.4079,-4.2625,-4.1271,-4.0493,-4.0113,-4.0113,-4.0113,-4.0113,-4.0113,-4.0113,-4.0113,-4.0113,-4.0113,-4.0113,-4.0113,-4.0113,-4.0113,0.0,0.0,0.0,0.0,0.0,0.0,0.0,0.0,0.0,0.0,0.0,-5.0635,0.0,0.0,-6.13,-6.5742,-6.9192,-7.2129,-7.4551,-7.5616,-7.5769,-7.5028,-7.4551,-7.4294,-7.4294,-7.3927,-7.4184,-7.5432,-7.4771,-7.4992,-7.6607,-7.5946,-7.5873,-7.668,-7.6717,-7.69,-7.7273,-7.7273,-7.7273,-7.7273,-7.6466,-7.6093,-7.6056,-7.4698,-7.4111,-7.4037,-7.2973,-7.2034,-7.1215,-7.0161,-6.9219,-6.8492,-6.8338,-6.8054,-6.7587,-6.6755,-6.5669,-6.4558,-6.376,-6.2087,-6.0432,-6.1016,-6.0276,-5.9006,-5.8221,-5.6235,-5.4327,-5.4969,-5.4362,-5.3584,-5.3946,-5.3783,-5.3518,-5.3518,-5.3518,-5.3518,-5.3518,-5.3518,-5.3518,-5.3518,-5.3518,-5.3518,-5.3518,-5.2232,-5.1082,-5.071,-5.0033,-4.9424,-4.9052,-4.9018,-4.9018,-4.9018,-4.7665,-4.665,-4.6278,-4.4519,-4.2929,-4.1813,-4.1068,-4.0629,-4.0629,-4.0316,-4.0113,-4.0113,-4.0113,-4.0113,-4.0113,-4.0113,-4.0113,-4.0113,-4.0113,-4.0113,0.0,0.0,0.0,0.0,0.0,0.0,0.0,0.0,-4.7315,-4.9094,-5.269,-5.6469,-5.9575,-6.3099,-6.688,-7.1101,-7.312,-7.4625,-7.5909,-7.668,-7.6533,-7.5065,-7.5065,-7.5028,-7.4698,-7.4221,-7.4404,-7.5542,-7.4111,-7.4331,-7.6907,-7.5359,-7.5285,-7.7237,-7.668,-7.6644,-7.7273,-7.7273,-7.7273,-7.7273,-7.5989,-7.5542,-7.5799,-7.3854,-7.3266,-7.3744,-7.2899,-7.1749,-7.047,-6.9448,-6.8504,-6.7687,-6.7687,-6.7606,-6.7268,-6.5939,-6.4946,-6.4007,-6.2515,-6.0882,-5.9526,-5.9698,-5.8909,-5.7895,-5.7895,-5.6636,-5.5176,-5.504,-5.4397,-5.3721,-5.3721,-5.3619,-5.3518,-5.3518,-5.3518,-5.3518,-5.3518,-5.3518,-5.3518,-5.3518,-5.3518,-5.3518,-5.3518,-5.2976,-5.23,-5.1555,-5.0777,-5.0033,-4.9323,-4.9221,-4.9154,-4.9018,-4.7665,-4.6684,-4.638,-4.4553,-4.3166,-4.2557,-4.1813,-4.1339,-4.1204,-4.0629,-4.0248,-4.0113,-4.0113,-4.0113,-4.0113,-4.0113,-4.0113,-4.0113,-4.0113,-4.0113,-4.1132,-4.1022,-4.1866,-4.4562,-4.4892,-4.6434,0.0,0.0,-5.5023,-5.735,-6.1092,-6.387,-6.3576,-6.7357,-7.1138,-7.312,-7.4771,-7.5873,-7.6056,-7.6166,-7.5909,-7.5028,-7.5542,-7.5395,-7.3964,-7.4404,-7.4551,-7.4001,-7.5028,-7.5836,-7.624,-7.668,-7.7017,-7.7273,-7.72,-7.72,-7.7273,-7.7273,-7.7273,-7.7273,-7.7127,-7.6319,-7.5028,-7.4771,-7.3927,-7.2679,-7.2569,-7.2393,-7.2027,-6.9082,-6.7797,-6.7687,-6.7687,-6.723,-6.6523,-6.6325,-6.5718,-6.4842,-6.3875,-6.232,-6.0704,-6.0392,-5.9216,-5.7884,-5.7884,-5.7101,-5.6288,-5.6494,-5.5547,-5.4465,-5.4465,-5.3991,-5.3518,-5.3518,-5.3518,-5.3518,-5.3518,-5.3518,-5.3518,-5.3518,-5.3518,-5.3518,-5.3518,-5.345,-5.3112,-5.23,-5.1555,-5.0811,-5.0067,-4.9965,-4.9729,-4.9086,-4.7665,-4.6244,-4.4953,-4.3978,-4.3341,-4.3274,-4.2591,-4.188,-4.1238,-4.1136,-4.0764,-4.0113,-4.0113,-4.0113,-4.0113,-4.0113,-4.0113,-4.0113,-4.0113,-4.0113,-4.3407,-4.3884,0.0,0.0,-4.9554,-5.2637,-5.6051,-5.8364,-6.0346,-6.234,-6.5999,-6.8972,-6.9559,-7.2092,-7.4331,0.0,-7.5652,-7.5946,-7.5469,-7.4992,-7.4074,-7.2312,-7.2826,-7.3597,-7.4331,-7.4294,-7.4258,-7.4404,-7.4147,-7.4625,-7.6019,-7.5102,-7.5359,-7.7237,-7.6393,-7.6319,-7.7273,-7.7273,-7.7273,-7.7273,-7.6827,-7.6019,-7.4882,-7.4441,-7.3597,-7.2459,-7.15,-7.0547,-6.954,-6.7119,-6.615,-6.615,-6.615,-6.5899,-6.555,-6.5086,-6.4124,-6.2798,-6.1467,-6.0216,-5.9178,-5.9005,-5.8481,-5.7881,-5.7881,-5.734,-5.656,-5.6222,-5.5412,-5.4499,-5.4059,-5.3721,-5.3518,-5.3518,-5.3518,-5.3518,-5.3518,-5.3518,-5.3518,-5.3518,-5.3518,-5.3518,-5.3518,-5.3518,-5.3382,-5.3044,-5.2334,-5.142,-5.0236,-5.0101,-4.9661,-4.8477,-4.78,-4.7022,-4.594,-4.5196,-4.4756,-4.4756,-4.3606,-4.2794,-4.2489,-4.1677,-4.1068,-4.073,-4.0316,-4.0113,-4.0113,-4.0113,-4.0113,-4.0113,-4.0113,-4.0113,-4.4488,0.0,0.0,-4.9848,-5.4252,-5.8437,-5.9538,-6.2585,-6.5532,-6.699,-6.9779,-7.2202,-7.2899,-7.4184,-7.5102,-7.5102,-7.5285,-7.5175,-7.4368,-7.334,-7.1872,-6.9706,-6.9559,-7.033,-7.2092,-7.2532,-7.3046,-7.3854,-7.323,-7.3597,-7.5322,-7.4404,-7.4808,-7.687,-7.6026,-7.6099,-7.7273,-7.7273,-7.7273,-7.7273,-7.6497,-7.5763,-7.5072,-7.3428,-7.2116,-7.1089,-7.0397,-6.9209,-6.7542,-6.5743,-6.4698,-6.4323,-6.4799,-6.4725,-6.4277,-6.3749,-6.2818,-6.1639,-6.0356,-5.9309,-5.8496,-5.8496,-5.8223,-5.7881,-5.7881,-5.7509,-5.7002,-5.6461,-5.5649,-5.4769,-5.4262,-5.3822,-5.3518,-5.3518,-5.3518,-5.3518,-5.3518,-5.3518,-5.3518,-5.3518,-5.3518,-5.3518,-5.3518,-5.3518,-5.3518,-5.3518,-5.301,-5.2097,-5.0608,-5.0033,-4.9323,-4.8071,-4.7906,-4.7597,-4.6853,-4.6312,-4.6007,-4.6007,-4.4756,-4.3944,-4.3741,-4.232,-4.1407,-4.1204,-4.0485,-4.0113,-4.0113,-4.0113,-4.0113,-4.0113,-4.0113,-4.0113,0.0,0.0,-4.9407,-5.4179,-5.8437,-6.2475,-6.6476,-6.9265,-7.1284,-7.2129,-7.301,-7.3156,-7.1651,-7.2055,-7.2606,-7.2606,-7.3266,-7.3487,-7.2679,-7.1211,-6.9596,-6.7944,-6.6439,-6.5521,0.0,-6.8385,-7.055,-7.1358,-7.2826,-7.3707,-7.378,-7.5946,-7.6864,-7.6166,-7.6864,-7.7237,-7.7273,-7.7273,-7.7273,-7.7273,-7.6497,-7.5946,-7.5549,-7.1816,-6.9206,-6.7715,-6.9388,-6.9209,-6.7542,-6.5743,-6.3972,-6.2659,-6.4357,-6.4073,-6.2647,-6.2647,-6.2612,-6.2539,-6.2381,-6.1329,-6.0038,-6.0038,-5.9078,-5.7881,-5.7881,-5.7881,-5.7848,-5.7814,-5.6799,-5.5647,-5.5649,-5.4566,-5.3518,-5.3518,-5.3518,-5.3518,-5.3518,-5.3518,-5.3518,-5.3518,-5.3518,-5.3518,-5.3518,-5.3518,-5.3518,-5.3518,-5.3484,-5.2909,-5.1386,-4.9932,-4.8748,-4.7973,-4.7906,-4.7597,-4.6853,-4.6786,-4.6752,-4.6752,-4.6041,-4.5297,-4.4615,-4.3091,-4.1914,-4.1204,-4.0485,-4.0113,-4.0113,-4.0113,-4.0113,-4.0113,-4.0113,-4.0113,0.0,0.0,-5.5097,-5.9942,-6.4237,-6.8017,-7.0991,-7.2716,-7.3487,-7.2679,-7.1431,-7.0036,-6.8421,-6.7907,-6.7907,-6.8421,-7.0073,-7.1027,-7.022,-7.011,-6.8495,-6.4163,-6.4163,0.0,0.0,0.0,0.0,-6.9596,-7.022,-7.1431,-7.3597,-7.4478,-7.5285,-7.6056,-7.635,-7.679,-7.7273,-7.7273,-7.7017,-7.6497,-7.403,-7.2802,-7.2599,-6.9088,-6.7039,-6.6368,-6.6179,-6.5465,-6.4362,-6.2892,-6.1531,-6.0495,-6.1371,-6.141,-6.0944,-6.0944,-6.0742,-6.0467,-6.0445,-5.9617,-5.8668,-5.8668,-5.8327,-5.7881,-5.7881,-5.7881,-5.778,-5.7306,-5.6799,-5.619,-5.5209,-5.4972,-5.4735,-5.3754,-5.3856,-5.4093,-5.3619,-5.3518,-5.3518,-5.3518,-5.3518,-5.3518,-5.3518,-5.3518,-5.3518,-5.3518,-5.3044,-5.2334,-5.1352,-5.0338,-4.9458,-4.8714,-4.8646,-4.8545,-4.8274,-4.78,-4.7327,-4.6819,-4.6109,-4.5365,-4.4649,-4.3572,-4.2692,-4.1948,-4.1204,-4.0595,-4.0113,-4.0113,-4.0113,-4.0113,-4.0113,-4.0113,0.0,-5.55,-6.0052,-6.4604,-6.8825,-7.2165,-7.3413,-7.3891,-7.3413,-7.1248,-6.8385,-6.5632,-6.3429,-6.2144,-6.1851,-6.3246,-6.5007,-6.6549,-6.7504,-6.754,-6.6256,-6.2879,-6.2915,0.0,0.0,0.0,0.0,-6.7871,-6.9119,-7.0807,-7.3156,-7.3817,-7.4735,-7.6056,-7.6093,-7.635,-7.69,-7.7163,-7.6459,-7.4696,-7.1336,-6.9606,-6.9261,-6.6832,-6.5162,-6.418,-6.3302,-6.2628,-6.202,-6.0845,-5.9979,-5.9438,-5.9911,-5.9945,-5.9708,-5.9708,-5.9373,-5.8937,-5.9275,-5.873,-5.7881,-5.7881,-5.7881,-5.7881,-5.7881,-5.7881,-5.778,-5.734,-5.7002,-5.6596,-5.5615,-5.5547,-5.548,-5.4532,-5.4431,-5.4465,-5.3991,-5.3687,-5.3518,-5.3518,-5.3518,-5.3518,-5.3518,-5.3518,-5.3518,-5.3518,-5.3078,-5.2367,-5.1352,-5.0338,-4.9526,-4.9052,-4.9018,-4.9018,-4.9018,-4.8578,-4.8105,-4.7597,-4.665,-4.5872,-4.5427,-4.4113,-4.32,-4.2692,-4.1711,-4.0967,-4.0493,-4.0248,-4.0113,-4.0113,-4.0113,-4.0113,-5.5537,-6.0028,-6.4127,-6.8091,-7.1982,-7.4625,-7.378,-7.2826,-7.1211,-6.7944,-6.3943,-6.0089,0.0,0.0,-5.495,-5.7409,-5.8694,-6.0762,-6.4751,-6.4028,-6.3356,0.0,0.0,0.0,0.0,0.0,0.0,-6.6439,0.0,-7.1578,-7.2496,-7.4074,-7.5285,-7.6056,-7.6056,-7.6093,-7.6166,-7.6729,-7.5257,-7.179,-6.8645,-6.6725,-6.5947,-6.5128,-6.3515,-6.1278,-6.1013,-6.0876,-6.0744,-5.9746,-5.937,-5.937,-5.981,-5.9573,-5.8964,-5.8964,-5.849,-5.8053,-5.9004,-5.8696,-5.7881,-5.7881,-5.7881,-5.7881,-5.7881,-5.7881,-5.7881,-5.7881,-5.7408,-5.6867,-5.6799,-5.6325,-5.5818,-5.575,-5.5175,-5.4634,-5.46,-5.4025,-5.3518,-5.3518,-5.3518,-5.3518,-5.3518,-5.3518,-5.3518,-5.3518,-5.345,-5.2909,-5.1422,-4.9999,-4.912,-4.9052,-4.9018,-4.9018,-4.9018,-4.9018,-4.8984,-4.8951,-4.7597,-4.6786,-4.6752,-4.4654,-4.3443,-4.3375,-4.1982,-4.1238,-4.1204,-4.0485,-4.0113,-4.0113,-4.0113,-4.0113,-5.9171,-6.4237,-6.8788,-7.1027,-7.2789,-7.3634,-7.2239,-6.9449,-6.6035,-6.2181,-5.7189,-5.2747,0.0,0.0,0.0,-5.484,-5.9024,0.0,-6.5007,-6.6476,0.0,0.0,0.0,-6.453,-6.2695,-6.4897,0.0,0.0,-6.9045,-7.066,-7.3266,-7.4368,-7.5285,-7.6056,-7.5542,-7.5799,-7.698,-7.4692,-7.1161,-6.6553,-6.6384,-6.5889,-6.5128,-6.3666,-6.2412,-6.1291,-6.1261,-6.0574,-5.9475,-5.9201,-5.8795,-5.8287,-5.8389,-5.8355,-5.8186,-5.8186,-5.8051,-5.7915,-5.8189,-5.8121,-5.7881,-5.7881,-5.7881,-5.7881,-5.7881,-5.7881,-5.7881,-5.7881,-5.7746,-5.7476,-5.6934,-5.707,-5.707,-5.5987,-5.5581,-5.5277,-5.4702,-5.4025,-5.3518,-5.3518,-5.3518,-5.3518,-5.3518,-5.3518,-5.3518,-5.3518,-5.2976,-5.2469,-5.2063,-5.1217,-5.0439,-4.9864,-4.9323,-4.9018,-4.9018,-4.9018,-4.8781,-4.824,-4.7327,-4.6549,-4.6007,-4.4891,-4.4012,-4.3409,-4.2489,-4.1745,-4.1204,-4.0485,-4.0113,-4.0113,-4.0113,-4.0113,-6.4127,-6.8164,-7.1431,-7.2716,-7.2826,-7.1872,-6.8825,-6.5007,-6.0639,-5.5478,-5.0802,0.0,0.0,0.0,0.0,0.0,0.0,0.0,-6.3099,-6.4861,-6.5375,0.0,-6.5962,0.0,-6.5081,-6.7577,-6.9596,0.0,-7.0477,-7.1431,-7.356,-7.4147,-7.4735,-7.5542,-7.4918,-7.5432,-7.7273,-7.2456,-6.8206,-6.458,-6.4805,-6.469,-6.4267,-6.2983,-6.2014,-6.1269,0.0,-6.0122,-5.8998,-5.866,-5.8254,-5.7881,-5.7881,-5.7881,-5.7881,-5.7881,-5.7881,-5.7881,-5.7881,-5.7881,-5.7881,-5.7881,-5.7881,-5.7881,-5.7881,-5.7881,-5.7881,-5.7881,-5.7881,-5.778,-5.7374,-5.7577,-5.7611,-5.6461,-5.5953,-5.5513,-5.4769,-5.4025,-5.3518,-5.3518,-5.3518,-5.3518,-5.3518,-5.3518,-5.3518,-5.3518,-5.3112,-5.2841,-5.2841,-5.1894,-5.0913,-5.0168,-4.9729,-4.9357,-4.9052,-4.9018,-4.8815,-4.8409,-4.7394,-4.6616,-4.621,-4.519,-4.4412,-4.3944,-4.3166,-4.2422,-4.1677,-4.0933,-4.0417,-4.0113,-4.0113,-4.0113,-6.8862,-7.1358,-7.2753,-7.312,-7.1945,-6.9376,-6.442,-5.9869,-5.495,-4.8783,0.0,0.0,-3.9843,0.0,-4.2416,-4.6452,0.0,-5.3555,-6.0603,-6.1777,-6.3062,-6.6145,-6.7393,-6.8017,-6.8017,-7.011,-7.1798,-7.2606,-7.2679,-7.301,-7.3817,-7.3854,-7.4052,-7.4549,-7.4098,-7.4653,-7.6392,-7.0062,-6.6045,-6.4512,-6.3835,-6.3457,-6.3349,-6.268,-6.1998,-6.1267,-6.0558,0.0,-5.8964,-5.8321,-5.7983,-5.7881,-5.7881,-5.7881,-5.7881,-5.7881,-5.7881,-5.7881,-5.7881,-5.7881,-5.7881,-5.7881,-5.7881,-5.7881,-5.7881,-5.7881,-5.7881,-5.7881,-5.7881,-5.7881,-5.7881,-5.7881,-5.7712,-5.6968,-5.6258,-5.5547,-5.4871,-5.416,-5.3619,-5.3518,-5.3518,-5.3518,-5.3518,-5.3518,-5.3518,-5.3518,-5.3518,-5.3518,-5.3518,-5.2266,-5.1082,-5.0304,-5.0135,-4.9796,-4.9052,-4.9018,-4.9018,-4.9018,-4.7699,-4.6887,-4.6786,-4.5495,-4.4716,-4.4615,-4.3809,-4.3098,-4.2422,-4.1711,-4.1001,-4.0383,-4.0282,-4.0248,-6.9339,-7.1762,-7.3046,-7.1174,-6.9009,-6.5888,-6.0309,-5.4363,0.0,0.0,0.0,-3.8227,-3.711,-3.9203,0.0,-4.6452,0.0,0.0,0.0,0.0,-6.4347,0.0,0.0,0.0,0.0,0.0,0.0,0.0,0.0,-7.3854,-7.4661,-7.4698,-7.4105,-7.2798,-7.2572,-7.2221,-7.1795,-6.7307,-6.4686,-6.4038,-6.3666,-6.3193,-6.2584,-6.2448,-6.1998,-6.1262,-6.112,0.0,-5.8998,-5.8863,-5.8457,-5.7881,-5.7881,-5.7881,-5.7881,-5.7881,-5.7881,-5.7881,-5.7881,-5.7881,-5.7881,-5.7881,-5.7881,-5.7881,-5.7881,-5.7881,-5.7881,-5.7881,-5.7881,-5.7881,-5.7881,-5.7881,-5.7712,-5.6968,-5.6258,-5.5647,-5.5547,-5.4938,-5.4228,-5.3619,-5.3518,-5.3518,-5.3518,-5.3518,-5.3518,-5.3518,-5.3518,-5.3518,-5.3518,-5.2706,-5.1826,-5.1116,-5.0473,-4.9796,-4.9052,-4.9018,-4.9018,-4.9018,-4.8206,-4.7428,-4.6819,-4.5974,-4.5229,-4.4615,-4.3809,-4.3341,-4.3206,-4.2455,-4.2016,-4.188,-4.1271,-4.1001,-7.0587,-7.1908,-7.2055,-7.0477,-6.6696,-6.1851,-5.6161,0.0,0.0,0.0,0.0,-3.5936,-3.5165,0.0,0.0,0.0,0.0,0.0,0.0,0.0,0.0,0.0,0.0,0.0,0.0,0.0,0.0,0.0,0.0,-7.3362,-7.4228,-7.3429,-7.2167,-7.0487,-7.0376,-6.9757,-6.8645,-6.5704,-6.414,-6.3903,-6.326,-6.2753,-6.2381,-6.2381,-6.2206,-6.1857,-6.1462,0.0,-5.9539,-5.9167,-5.8558,-5.7881,-5.7881,-5.7881,-5.7881,-5.7881,-5.7881,-5.7881,-5.7881,-5.7881,-5.7881,-5.7881,-5.7881,-5.7881,-5.7881,-5.7881,-5.7881,-5.7881,-5.7881,-5.7881,-5.7881,-5.7881,-5.7611,-5.6494,-5.5683,-5.5141,-5.5141,-5.4837,-5.4363,-5.3653,-5.3518,-5.3518,-5.3518,-5.3518,-5.3518,-5.3518,-5.3518,-5.3518,-5.3518,-5.3179,-5.2638,-5.186,-5.1116,-5.0371,-4.9627,-4.9221,-4.9018,-4.9018,-4.8308,-4.7736,-4.7394,-4.6312,-4.5534,-4.5162,-4.4418,-4.3809,-4.3375,-4.3064,-4.2692,-4.2286,-4.1948,-4.1576,-7.0697,-7.1248,-7.0734,-6.9412,-6.4457,-5.8364,-5.2527,-4.6801,0.0,0.0,-3.5334,-3.4564,-3.3917,0.0,0.0,0.0,0.0,0.0,0.0,0.0,0.0,0.0,0.0,0.0,0.0,0.0,0.0,0.0,0.0,0.0,-7.302,-7.1427,-6.9989,-6.8892,-6.8486,-6.7718,-6.6576,-6.4783,-6.3869,-6.3802,-6.2854,-6.2381,-6.2381,-6.2381,-6.2381,-6.2347,-6.1772,0.0,0.0,-5.9471,-5.8727,-5.7881,-5.7881,-5.7881,-5.7881,-5.7881,-5.7881,-5.7881,-5.7881,-5.7881,-5.7881,-5.7881,-5.7881,-5.7881,-5.7881,-5.7881,-5.7881,-5.7881,-5.7881,-5.7881,-5.7881,-5.7881,-5.7577,-5.6258,-5.5378,-5.4837,-5.4837,-5.4938,-5.4803,-5.3923,-5.3754,-5.3687,-5.3518,-5.3518,-5.3518,-5.3518,-5.3518,-5.3518,-5.3518,-5.3518,-5.3281,-5.2638,-5.1758,-5.0913,-5.0135,-4.9424,-4.9018,-4.9018,-4.8477,-4.8041,-4.7906,-4.665,-4.5872,-4.5703,-4.4959,-4.4282,-4.3673,-4.3673,-4.3369,-4.2794,-4.2625,-4.2219,-6.765,-6.9155,-6.9486,-6.6512,-6.1961,-5.6528,-5.0105,0.0,0.0,0.0,-3.4454,-3.388,-3.3807,-3.4564,0.0,0.0,0.0,0.0,0.0,0.0,0.0,0.0,0.0,0.0,0.0,0.0,0.0,0.0,0.0,0.0,-7.1126,-6.9444,-6.8767,-6.9415,-6.783,-6.6599,-6.5797,-6.4546,-6.3802,-6.3531,-6.2753,-6.2381,-6.2381,-6.2381,-6.2381,-6.2381,-6.2313,0.0,0.0,-6.0047,-5.9167,-5.7881,-5.7881,-5.7881,-5.7881,-5.7881,-5.7881,-5.7881,-5.7881,-5.7881,-5.7881,-5.7881,-5.7881,-5.7881,-5.7881,-5.7881,-5.7881,-5.7881,-5.7881,-5.7881,-5.7881,-5.7881,-5.7679,-5.69,-5.6156,-5.5615,-5.5615,-5.6122,-5.619,-5.4769,-5.4499,-5.4296,-5.3619,-5.3518,-5.3518,-5.3518,-5.3518,-5.3518,-5.3518,-5.3518,-5.3484,-5.3416,-5.2097,-5.0913,-5.0135,-4.9424,-4.9018,-4.9018,-4.8951,-4.8612,-4.7906,-4.7124,-4.638,-4.5703,-4.4959,-4.4581,-4.4513,-4.4513,-4.4445,-4.4378,-4.3639,-4.324,-6.4677,-6.6696,-6.7283,-6.4494,-5.9795,-5.4399,-4.8837,0.0,0.0,-3.5591,-3.4344,-3.3807,-3.3807,-3.4064,-3.5055,0.0,0.0,0.0,0.0,0.0,0.0,0.0,0.0,0.0,0.0,0.0,0.0,0.0,0.0,0.0,-6.8433,-6.828,-6.8123,-6.7892,-6.6758,-6.6,-6.5696,-6.4783,-6.4038,-6.3531,-6.322,-6.2815,-6.2381,-6.2381,-6.2381,-6.2381,-6.2381,0.0,0.0,-6.0114,-5.9235,-5.7881,-5.7881,-5.7881,-5.7881,-5.7881,-5.7881,-5.7881,-5.7881,-5.7881,-5.7881,-5.7881,-5.7881,-5.7881,-5.7881,-5.7881,-5.7881,-5.7881,-5.7881,-5.7881,-5.7881,-5.7577,-5.7273,-5.7408,-5.69,-5.6359,-5.6359,-5.6596,-5.6494,-5.548,-5.5277,-5.504,-5.4296,-5.416,-5.4025,-5.3585,-5.3518,-5.3518,-5.3518,-5.3518,-5.3518,-5.3518,-5.2536,-5.1555,-5.0845,-5.0101,-4.9458,-4.9052,-4.9018,-4.8883,-4.8578,-4.7868,-4.7124,-4.638,-4.5635,-4.5026,-4.4615,-4.4615,-4.4615,-4.4615,-4.4248,-4.3876,-6.0309,-6.3099,-6.4457,-6.1998,-5.7519,-5.2417,0.0,0.0,0.0,-3.5151,-3.4211,-3.3807,-3.3807,-3.3807,-3.4247,0.0,0.0,0.0,0.0,0.0,0.0,0.0,0.0,0.0,0.0,0.0,0.0,0.0,0.0,0.0,0.0,-6.6907,-6.6953,-6.6474,-6.5967,-6.5493,-6.5053,-6.4546,-6.3903,-6.3193,-6.3187,-6.2916,-6.2381,-6.2381,-6.2381,-6.2381,-6.2381,0.0,0.0,-6.0182,-5.9235,-5.7881,-5.7881,-5.7881,-5.7881,-5.7881,-5.7881,-5.7881,-5.7881,-5.7881,-5.7881,-5.7881,-5.7881,-5.7881,-5.7881,-5.7881,-5.7881,-5.7881,-5.7881,-5.7881,-5.7881,-5.734,-5.7002,-5.7712,-5.734,-5.6867,-5.707,-5.7137,-5.69,-5.619,-5.6055,-5.5716,-5.4769,-5.46,-5.4329,-5.3619,-5.3518,-5.3518,-5.3518,-5.3518,-5.3518,-5.3518,-5.2976,-5.2367,-5.1589,-5.0642,-4.9864,-4.9357,-4.912,-4.9018,-4.9018,-4.8308,-4.7665,-4.7124,-4.6413,-4.5669,-4.4925,-4.4925,-4.479,-4.4615,-4.4615,-4.4147,-5.4069,-5.7997,-6.108,-5.8657,-5.5023,-5.0729,0.0,0.0,0.0,-3.4321,-3.3807,-3.3807,-3.3807,-3.3807,-3.4064,-3.4894,-3.6413,0.0,0.0,0.0,0.0,0.0,0.0,0.0,0.0,0.0,0.0,0.0,0.0,0.0,0.0,-6.5019,-6.4952,-6.5662,-6.5696,-6.4986,-6.3565,-6.3531,-6.3159,-6.2415,-6.2415,-6.2415,-6.2381,-6.2381,-6.2381,0.0,0.0,0.0,0.0,-6.0317,-5.9235,-5.7881,-5.7881,-5.7881,-5.7881,-5.7881,-5.7881,-5.7881,-5.7881,-5.7881,-5.7881,-5.7881,-5.7881,-5.7881,-5.7881,-5.7881,-5.7881,-5.7881,-5.7881,-5.7881,-5.7881,-5.734,-5.7002,-5.7712,-5.734,-5.7002,-5.7712,-5.7881,-5.7645,-5.6934,-5.6799,-5.6325,-5.4837,-5.46,-5.4329,-5.3619,-5.3518,-5.3518,-5.3518,-5.3518,-5.3518,-5.3518,-5.3484,-5.3179,-5.2367,-5.0947,-5.0101,-5.0067,-4.939,-4.9018,-4.9018,-4.8308,-4.7906,-4.7872,-4.7158,-4.6413,-4.5703,-4.5703,-4.5297,-4.4615,-4.4615,-4.4147,-4.7021,-4.9701,-5.1516,-5.0745,-4.8343,-4.5278,-4.1757,0.0,-3.6062,-3.3851,-3.3606,-3.3807,-3.3807,-3.3807,-3.4284,-3.5851,-3.6528,0.0,0.0,0.0,0.0,0.0,0.0,0.0,0.0,0.0,0.0,0.0,0.0,0.0,0.0,-6.4715,-6.4715,-6.4952,-6.4478,-6.3971,-6.3531,-6.3531,-6.3125,-6.2415,-6.2904,-6.2904,-6.2381,-6.1893,-6.1651,0.0,0.0,0.0,0.0,-5.9438,-5.8795,-5.7881,-5.7881,-5.7881,-5.7881,-5.7881,-5.7881,-5.7881,-5.7881,-5.7881,-5.7881,-5.7881,-5.7543,-5.7239,-5.7746,-5.7881,-5.7881,-5.7881,-5.7881,-5.7881,-5.7881,-5.7712,-5.7611,-5.7814,-5.7712,-5.7611,-5.7848,-5.7881,-5.7814,-5.7577,-5.7543,-5.7239,-5.6258,-5.5683,-5.5108,-5.4363,-5.3822,-5.3518,-5.3518,-5.3518,-5.3518,-5.3518,-5.3518,-5.3179,-5.2367,-5.186,-5.115,-5.0135,-4.9864,-4.9526,-4.9018,-4.8781,-4.8409,-4.7906,-4.7665,-4.6955,-4.5703,-4.5703,-4.5331,-4.4615,-4.4615,-4.4479,0.0,-4.3608,-4.5278,-4.5278,-4.3718,0.0,0.0,0.0,-3.5351,-3.3771,-3.3508,-3.3564,-3.3564,-3.3451,-3.368,-3.4855,-3.579,0.0,0.0,0.0,0.0,0.0,0.0,0.0,0.0,0.0,0.0,0.0,0.0,0.0,0.0,-6.3937,-6.3768,-6.3768,-6.3599,-6.3396,-6.3091,-6.3091,-6.2854,-6.2381,-6.2554,-6.2425,-6.1946,-6.1215,-6.0736,0.0,0.0,0.0,0.0,-5.8896,-5.8558,-5.7881,-5.7881,-5.7881,-5.7881,-5.7881,-5.7881,-5.7881,-5.7881,-5.7881,-5.7848,-5.7577,-5.7171,-5.69,-5.734,-5.7679,-5.7881,-5.7881,-5.7881,-5.7881,-5.7881,-5.7881,-5.7881,-5.7881,-5.7881,-5.7881,-5.7881,-5.7881,-5.7881,-5.7881,-5.7881,-5.7577,-5.6562,-5.6021,-5.5378,-5.4329,-5.3788,-5.3518,-5.3518,-5.3518,-5.3518,-5.3518,-5.3518,-5.3315,-5.2807,-5.2469,-5.1894,-5.098,-5.0405,-4.9898,-4.9424,-4.9154,-4.8781,-4.8342,-4.8342,-4.7733,-4.6549,-4.5974,-4.5466,-4.4993,-4.475,-4.4615,0.0,0.0,0.0,0.0,0.0,0.0,0.0,0.0,0.0,-3.3845,-3.3408,-3.3172,-3.328,-3.2866,-3.2573,-3.2822,-3.4588,0.0,0.0,0.0,0.0,0.0,0.0,0.0,0.0,0.0,0.0,0.0,0.0,0.0,0.0,-6.2753,-6.2381,-6.2381,-6.3024,-6.3024,-6.2313,-6.2245,-6.2245,-6.2245,-6.1543,-6.1211,-6.1172,-6.0389,-5.9776,0.0,0.0,0.0,0.0,-5.866,-5.8524,-5.7881,-5.7881,-5.7881,-5.7881,-5.7881,-5.7881,-5.7881,-5.7881,-5.7848,-5.7679,-5.6968,-5.6731,-5.6731,-5.6799,-5.7306,-5.7881,-5.7881,-5.7881,-5.7881,-5.7881,-5.7881,-5.7881,-5.7881,-5.7881,-5.7881,-5.7881,-5.7881,-5.7881,-5.7881,-5.7881,-5.7442,-5.6089,-5.5749,-5.5208,-5.3856,-5.3585,-5.3518,-5.3518,-5.3518,-5.3518,-5.3518,-5.3518,-5.3518,-5.3518,-5.2807,-5.2367,-5.23,-5.1014,-5.0236,-5.0168,-4.9458,-4.9086,-4.9086,-4.8984,-4.8578,-4.7906,-4.6481,-4.5771,-4.5771,-4.506,-4.475,-3.008,0.0,-3.313,-3.3502,0.0,0.0,0.0,0.0,0.0,0.0,0.0,0.0,0.0,-3.3348,-3.3318,0.0,0.0,0.0,0.0,0.0,0.0,0.0,0.0,0.0,0.0,0.0,0.0,0.0,0.0,0.0,-6.2651,-6.2482,-6.2381,-6.2381,-6.2009,-6.1738,-6.1569,-6.096,-6.0651,-6.0637,-6.0472,-6.0386,-6.0367,-5.959,-5.9214,0.0,0.0,0.0,-5.7915,-5.8084,-5.8051,-5.7881,-5.7881,-5.7881,-5.7881,-5.7881,-5.7881,-5.7881,-5.7881,-5.7509,-5.6934,-5.6224,-5.5987,-5.6089,-5.663,-5.7306,-5.7881,-5.7881,-5.7881,-5.7881,-5.7881,-5.7881,-5.7881,-5.7881,-5.7881,-5.7881,-5.7881,-5.7881,-5.7881,-5.7881,-5.7881,-5.778,-5.7442,-5.6461,-5.5546,-5.5243,-5.4228,-5.3518,-5.3518,-5.3518,-5.3518,-5.3518,-5.3518,-5.3518,-5.3518,-5.3348,-5.2976,-5.2334,-5.1961,-5.1522,-5.098,-5.0236,-4.983,-4.983,-4.8748,-4.8041,-4.7906,-4.6989,-4.6549,-4.6549,-4.6346,-4.6278,-2.8057,-2.9134,-3.0296,-3.0915,-3.1793,-3.2409,0.0,0.0,0.0,0.0,0.0,0.0,0.0,0.0,0.0,0.0,0.0,0.0,0.0,0.0,0.0,0.0,0.0,0.0,0.0,0.0,0.0,0.0,0.0,-6.2381,-6.2381,-6.2381,-6.2381,-6.2381,-6.1332,-6.0926,-6.1298,-6.0486,-6.011,-6.0102,-5.978,-5.9591,-5.9559,-5.8843,-5.8499,0.0,0.0,0.0,-5.7881,-5.7881,-5.7881,-5.7881,-5.7881,-5.7881,-5.7814,-5.7167,-5.7099,-5.734,-5.7002,-5.6427,-5.5716,-5.5344,-5.5209,-5.5277,-5.5683,-5.6325,-5.7036,-5.7712,-5.7645,-5.7476,-5.7814,-5.7881,-5.7881,-5.7881,-5.7881,-5.7881,-5.7881,-5.7881,-5.7881,-5.7881,-5.7881,-5.778,-5.7442,-5.6731,-5.6089,-5.5749,-5.504,-5.4397,-5.4059,-5.3991,-5.389,-5.3551,-5.3518,-5.3518,-5.3518,-5.3518,-5.3315,-5.2875,-5.2503,-5.2131,-5.1725,-5.1014,-5.0439,-5.0101,-4.9323,-4.8748,-4.8409,-4.7665,-4.7293,-4.7293,-4.6955,-4.6786,-2.7836,-2.9081,-3.0353,-3.0747,-3.1626,-3.2507,0.0,0.0,0.0,0.0,0.0,0.0,0.0,0.0,0.0,0.0,0.0,0.0,0.0,0.0,0.0,0.0,0.0,0.0,0.0,0.0,0.0,0.0,0.0,-6.2212,-6.2212,-6.211,-6.2042,-6.2042,-6.0655,-6.0283,-6.0921,-6.0182,-5.9742,-5.9742,-5.9126,-5.8832,-5.8815,-5.8157,-5.7814,-5.7712,0.0,0.0,-5.7543,-5.7543,-5.7543,-5.7577,-5.7819,-5.7785,-5.7408,-5.6147,-5.6082,-5.6528,-5.5818,-5.5108,-5.46,-5.46,-5.4499,-5.4465,-5.4702,-5.504,-5.5683,-5.7137,-5.7205,-5.6968,-5.7712,-5.7881,-5.7881,-5.7881,-5.7881,-5.7881,-5.7881,-5.7881,-5.7881,-5.7881,-5.7881,-5.7645,-5.6934,-5.6799,-5.6562,-5.5818,-5.5681,-5.5446,-5.4668,-5.46,-5.4329,-5.3585,-5.3518,-5.3518,-5.3518,-5.3518,-5.3518,-5.3518,-5.2875,-5.2435,-5.23,-5.1725,-5.1014,-5.027,-5.027,-4.9965,-4.9323,-4.8612,-4.824,-4.824,-4.7462,-4.7124,-2.8052,-2.9644,-3.068,-2.921,-3.0638,-3.2108,0.0,0.0,0.0,0.0,0.0,0.0,0.0,0.0,0.0,0.0,0.0,0.0,0.0,0.0,0.0,0.0,0.0,0.0,0.0,0.0,0.0,0.0,0.0,0.0,-6.1467,-6.0825,-6.0452,-6.0452,-5.9641,-5.9231,-5.9363,-5.8589,-5.822,-5.822,-5.8118,-5.8051,-5.809,-5.7952,-5.7543,-5.6968,0.0,-5.663,-5.6055,-5.6055,-5.6055,-5.6192,-5.739,-5.7116,-5.5986,-5.5783,-5.5783,-5.5784,-5.5006,-5.4668,-5.46,-5.46,-5.416,-5.389,-5.5175,-5.4735,-5.416,-5.5649,-5.6427,-5.6968,-5.7712,-5.7881,-5.7881,-5.7881,-5.7881,-5.7881,-5.7881,-5.7881,-5.7881,-5.7881,-5.7881,-5.7645,-5.6934,-5.6799,-5.6562,-5.5818,-5.5681,-5.5446,-5.4668,-5.46,-5.4329,-5.3585,-5.3518,-5.3518,-5.3518,-5.3518,-5.3518,-5.3518,-5.3382,-5.301,-5.2334,-5.2198,-5.1792,-5.1048,-5.1048,-5.098,-5.0879,-5.0135,-4.9763,-4.9729,-4.9018,-4.8646,-2.7349,-2.8712,-2.9893,-2.9431,-3.1445,-3.3235,-3.2137,0.0,0.0,0.0,0.0,0.0,0.0,0.0,0.0,0.0,0.0,0.0,0.0,0.0,0.0,0.0,0.0,0.0,0.0,0.0,0.0,0.0,0.0,0.0,-6.0655,-6.0317,-6.0114,-6.0114,-5.9404,-5.8991,-5.9014,-5.8248,-5.7881,-5.7881,-5.7512,-5.7309,-5.7275,-5.6867,-5.6528,-5.6224,0.0,-5.6021,-5.5681,-5.5681,-5.5853,-5.6091,-5.6536,-5.6091,-5.5273,-5.514,-5.4871,-5.4465,-5.4126,-5.4025,-5.4025,-5.4025,-5.3788,-5.3619,-5.4329,-5.4059,-5.3721,-5.4803,-5.5649,-5.6292,-5.663,-5.7002,-5.7205,-5.6799,-5.6697,-5.6697,-5.6697,-5.7036,-5.7306,-5.7306,-5.7611,-5.778,-5.7442,-5.7374,-5.7273,-5.6934,-5.69,-5.663,-5.5886,-5.5446,-5.5074,-5.4735,-5.3991,-5.3653,-5.4059,-5.3721,-5.3518,-5.3518,-5.3518,-5.3348,-5.2976,-5.2942,-5.257,-5.1826,-5.1792,-5.1623,-5.1185,-5.0879,-5.071,-5.0676,-5.0371,-4.9999,-2.6894,-2.796,-2.9179,-2.9939,0.0,-3.3761,-3.3897,0.0,0.0,0.0,0.0,0.0,0.0,0.0,0.0,0.0,0.0,0.0,0.0,0.0,0.0,0.0,0.0,0.0,0.0,0.0,0.0,0.0,0.0,0.0,-5.9844,-5.9674,-5.9505,-5.9336,-5.8792,-5.8376,-5.8231,-5.7673,-5.748,-5.7658,-5.7042,-5.6737,-5.6533,-5.5988,-5.5615,-5.5446,-5.5446,-5.5344,-5.5174,-5.5174,-5.5413,-5.5686,-5.5345,-5.4937,-5.4563,-5.4397,-5.3991,-5.3518,-5.3518,-5.3518,-5.3518,-5.3518,-5.3518,-5.3518,-5.3518,-5.3518,-5.3619,-5.416,-5.4871,-5.548,-5.5683,-5.6122,-5.6393,-5.5852,-5.5681,-5.5749,-5.5919,-5.6393,-5.6867,-5.7036,-5.7509,-5.7848,-5.7679,-5.778,-5.7814,-5.7645,-5.778,-5.7611,-5.69,-5.6156,-5.5681,-5.5681,-5.4397,-5.3721,-5.4296,-5.3822,-5.3518,-5.3518,-5.3518,-5.3518,-5.3518,-5.3518,-5.3213,-5.2604,-5.257,-5.23,-5.1758,-5.1555,-5.1488,-5.1454,-5.1285,-5.0913,-2.7519,-2.8349,-2.9179,-2.9939,0.0,0.0,-3.4822,0.0,0.0,0.0,0.0,0.0,0.0,0.0,0.0,0.0,0.0,0.0,0.0,0.0,0.0,0.0,0.0,0.0,0.0,0.0,0.0,0.0,0.0,0.0,-5.9099,-5.8423,-5.7746,-5.707,-5.6993,-5.6651,-5.5943,-5.5883,-5.6198,-5.685,-5.6846,-5.6431,-5.5755,-5.5718,-5.5344,-5.4668,-5.4668,-5.4296,-5.3653,-5.3653,-5.3687,-5.3687,-5.3687,-5.3653,-5.3585,-5.3585,-5.3551,-5.3518,-5.3518,-5.3518,-5.3518,-5.3518,-5.3518,-5.3518,-5.3518,-5.3518,-5.3518,-5.3551,-5.4126,-5.4837,-5.5547,-5.575,-5.5749,-5.5681,-5.5681,-5.5919,-5.6562,-5.6765,-5.7002,-5.7679,-5.7848,-5.7679,-5.7002,-5.7442,-5.7645,-5.6968,-5.7442,-5.7611,-5.69,-5.6156,-5.5681,-5.5681,-5.4397,-5.3518,-5.3585,-5.3551,-5.3518,-5.3518,-5.3518,-5.3518,-5.3518,-5.3518,-5.3484,-5.3416,-5.3416,-5.3382,-5.3348,-5.257,-5.2232,-5.2198,-5.1522,-5.1183,-2.7029,-2.8044,-2.9179,-2.9939,0.0,0.0,0.0,0.0,0.0,0.0,0.0,0.0,0.0,0.0,0.0,0.0,0.0,0.0,0.0,0.0,0.0,0.0,0.0,0.0,0.0,0.0,0.0,0.0,0.0,0.0,0.0,-5.6934,-5.6393,-5.6122,-5.6115,-5.598,-5.5684,-5.572,-5.5621,-5.545,-5.5417,-5.5314,-5.4974,-5.4532,-5.4194,-5.3923,-5.3923,-5.3754,-5.3518,-5.3518,-5.3518,-5.3518,-5.3518,-5.3518,-5.3518,-5.3518,-5.3518,-5.3518,-5.3518,-5.3518,-5.3518,-5.3518,-5.3518,-5.3518,-5.3518,-5.3518,-5.3518,-5.3518,-5.3687,-5.3991,-5.4262,-5.4668,-5.5006,-5.5006,-5.5006,-5.5209,-5.5953,-5.6494,-5.6867,-5.7171,-5.7577,-5.7814,-5.7509,-5.7712,-5.7814,-5.7509,-5.7712,-5.778,-5.7509,-5.6833,-5.6562,-5.7036,-5.575,-5.4702,-5.4228,-5.3754,-5.3518,-5.3518,-5.3518,-5.3518,-5.3518,-5.3518,-5.3518,-5.3518,-5.3518,-5.3518,-5.3518,-5.3179,-5.3044,-5.3044,-5.2773,-5.2367,-2.6691,-2.7638,-2.8856,0.0,0.0,0.0,0.0,0.0,0.0,0.0,0.0,0.0,0.0,0.0,0.0,0.0,0.0,0.0,0.0,0.0,0.0,0.0,0.0,0.0,0.0,0.0,0.0,0.0,0.0,0.0,0.0,-5.5986,-5.5579,-5.5377,-5.5338,-5.5239,-5.5008,-5.5008,-5.4737,-5.4228,-5.4228,-5.4262,-5.4228,-5.3721,-5.3518,-5.3518,-5.3518,-5.3518,-5.3518,-5.3518,-5.3518,-5.3518,-5.3518,-5.3518,-5.3518,-5.3518,-5.3518,-5.3518,-5.3518,-5.3518,-5.3518,-5.3518,-5.3518,-5.3518,-5.3518,-5.3518,-5.3518,-5.3518,-5.3518,-5.3518,-5.3518,-5.3856,-5.4262,-5.4262,-5.4431,-5.4735,-5.5243,-5.6122,-5.6799,-5.6799,-5.7408,-5.7881,-5.7881,-5.7881,-5.7881,-5.7881,-5.7881,-5.7881,-5.7881,-5.7273,-5.69,-5.7171,-5.6528,-5.5649,-5.4668,-5.4126,-5.3754,-5.3518,-5.3518,-5.3518,-5.3518,-5.3518,-5.3518,-5.3518,-5.3518,-5.3518,-5.3518,-5.3518,-5.3518,-5.3518,-5.3518,-5.3213,-2.6691,-2.7266,0.0,0.0,0.0,0.0,0.0,0.0,0.0,0.0,0.0,0.0,0.0,0.0,0.0,0.0,0.0,0.0,0.0,0.0,0.0,0.0,0.0,0.0,0.0,0.0,0.0,0.0,0.0,0.0,0.0,-5.5677,-5.5339,-5.4633,-5.4595,-5.4224,-5.3518,-5.3518,-5.3518,-5.3518,-5.3518,-5.3518,-5.3518,-5.3518,-5.3518,-5.3518,-5.3518,-5.3518,-5.3518,-5.3518,-5.3518,-5.3518,-5.3518,-5.3518,-5.3518,-5.3518,-5.3518,-5.3518,-5.3518,-5.3518,-5.3518,-5.3518,-5.3518,-5.3518,-5.3518,-5.3518,-5.3518,-5.3518,-5.3518,-5.3518,-5.3518,-5.3518,-5.3518,-5.3518,-5.4059,-5.46,-5.46,-5.575,-5.6799,-5.6799,-5.7408,-5.7881,-5.7881,-5.7881,-5.7881,-5.7881,-5.7881,-5.7881,-5.7881,-5.7273,-5.6528,-5.5818,-5.6393,-5.6224,-5.4735,-5.46,-5.4296,-5.3551,-5.3518,-5.3518,-5.3518,-5.3518,-5.3518,-5.3518,-5.3518,-5.3518,-5.3518,-5.3518,-5.3518,-5.3518,-5.3518,-5.3518,-2.6691,0.0,0.0,0.0,0.0,0.0,0.0,0.0,0.0,0.0,0.0,0.0,0.0,0.0,0.0,0.0,0.0,0.0,0.0,0.0,0.0,0.0,0.0,0.0,0.0,0.0,0.0,0.0,0.0,0.0,0.0,-5.443,-5.4059,-5.3822,-5.3822,-5.372,-5.3518,-5.3518,-5.3518,-5.3518,-5.3518,-5.3518,-5.3518,-5.3518,-5.3518,-5.3518,-5.3518,-5.3518,-5.3518,-5.3518,-5.3518,-5.3518,-5.3518,-5.3518,-5.3518,-5.3518,-5.3518,-5.3518,-5.3518,-5.3518,-5.3518,-5.3518,-5.3518,-5.3518,-5.3518,-5.3518,-5.3518,-5.3518,-5.3518,-5.3518,-5.3518,-5.3518,-5.3619,-5.416,-5.4431,-5.4735,-5.5277,-5.6122,-5.6799,-5.6799,-5.7408,-5.7881,-5.7881,-5.7881,-5.7881,-5.7881,-5.7881,-5.7881,-5.7881,-5.7712,-5.7476,-5.7273,-5.6968,-5.6427,-5.548,-5.4905,-5.4296,-5.3551,-5.3518,-5.3518,-5.3518,-5.3518,-5.3518,-5.3518,-5.3518,-5.3518,-5.3518,-5.3518,-5.3518,-5.3518,-5.3518,-5.3518,-2.7063,0.0,0.0,0.0,0.0,0.0,0.0,0.0,0.0,0.0,0.0,0.0,0.0,0.0,0.0,0.0,0.0,0.0,0.0,0.0,0.0,0.0,0.0,0.0,0.0,0.0,0.0,0.0,0.0,0.0,0.0,-5.3754,-5.3518,-5.3518,-5.3518,-5.3518,-5.3518,-5.3179,-5.301,-5.301,-5.2739,-5.2739,-5.3044,-5.3348,-5.3518,-5.3518,-5.3518,-5.3518,-5.3518,-5.3518,-5.3518,-5.3518,-5.3518,-5.3518,-5.3518,-5.3518,-5.3518,-5.3518,-5.3518,-5.3518,-5.3518,-5.3518,-5.3518,-5.3518,-5.3518,-5.3518,-5.3518,-5.3518,-5.3518,-5.3518,-5.3518,-5.3518,-5.3619,-5.4059,-5.4397,-5.4634,-5.4803,-5.5649,-5.6359,-5.6359,-5.6968,-5.7543,-5.7848,-5.7881,-5.7881,-5.7881,-5.7881,-5.7881,-5.7881,-5.7881,-5.7881,-5.7881,-5.7239,-5.663,-5.619,-5.548,-5.4735,-5.3991,-5.3923,-5.3822,-5.3518,-5.3518,-5.3518,-5.3518,-5.3518,-5.3518,-5.3518,-5.3518,-5.3518,-5.3518,-5.3518,-5.3518,0.0,0.0,0.0,0.0,0.0,0.0,0.0,0.0,0.0,0.0,0.0,0.0,0.0,0.0,0.0,0.0,0.0,0.0,0.0,0.0,0.0,0.0,0.0,0.0,0.0,0.0,0.0,0.0,0.0,0.0,0.0,-5.3281,-5.3281,-5.3281,-5.3281,-5.3281,-5.3281,-5.257,-5.2198,-5.2198,-5.1522,-5.1555,-5.2232,-5.2976,-5.3281,-5.3281,-5.3382,-5.3348,-5.3315,-5.345,-5.345,-5.3416,-5.345,-5.3484,-5.3518,-5.3518,-5.3518,-5.3518,-5.3518,-5.3518,-5.3518,-5.3518,-5.3518,-5.3518,-5.3518,-5.3518,-5.3518,-5.3518,-5.3518,-5.3518,-5.3518,-5.3518,-5.3518,-5.3518,-5.4025,-5.4329,-5.3653,-5.4634,-5.5615,-5.5615,-5.6258,-5.7002,-5.7679,-5.7848,-5.7881,-5.7881,-5.7881,-5.7881,-5.7881,-5.7881,-5.7848,-5.7814,-5.7273,-5.6833,-5.6697,-5.6156,-5.5513,-5.4735,-5.4634,-5.4296,-5.3619,-5.3551,-5.3518,-5.3518,-5.3518,-5.3518,-5.3518,-5.3518,-5.3518,-5.3518,-5.3518,-5.3518,0.0,0.0,0.0,0.0,0.0,0.0,0.0,0.0,0.0,0.0,0.0,0.0,0.0,0.0,0.0,0.0,0.0,0.0,0.0,0.0,0.0,0.0,0.0,0.0,0.0,0.0,0.0,0.0,0.0,0.0,-5.1691,-5.1698,-5.1698,-5.1698,-5.1696,-5.1691,-5.1691,-5.1522,-5.1454,0.0,-5.1285,-5.1252,-5.1454,-5.1623,-5.1691,-5.1758,-5.23,-5.2232,-5.1792,-5.3002,-5.3139,-5.2604,-5.3244,-5.3516,-5.3518,-5.3518,-5.3518,-5.3518,-5.3518,-5.3518,-5.3518,-5.3518,-5.3518,-5.3518,-5.3518,-5.3518,-5.3518,-5.3518,-5.3518,-5.3518,-5.3518,-5.3518,-5.3518,-5.3518,-5.3619,-5.3687,-5.3551,-5.4194,-5.4837,-5.4837,-5.5886,-5.6867,-5.7002,-5.7509,-5.7881,-5.7881,-5.7881,-5.7881,-5.7881,-5.7881,-5.7679,-5.7103,-5.7408,-5.7205,-5.6055,-5.6325,-5.6258,-5.5513,-5.4905,-5.4532,-5.4363,-5.3822,-5.3518,-5.3518,-5.3518,-5.3518,-5.3518,-5.3518,-5.3518,-5.3518,-5.3518,-5.3518,0.0,0.0,0.0,0.0,0.0,0.0,0.0,0.0,0.0,0.0,0.0,0.0,0.0,0.0,0.0,0.0,0.0,0.0,0.0,0.0,0.0,0.0,0.0,0.0,0.0,0.0,0.0,0.0,0.0,-5.1185,-5.1185,-5.1225,-5.1194,-5.1194,-5.1214,-5.1201,-5.1201,-5.0873,-5.0676,-5.0676,-5.0338,-5.0168,-5.0168,-5.0879,-5.1185,-5.1219,-5.1623,-5.1555,-5.1251,-5.2055,-5.2158,-5.1826,-5.2229,-5.2635,-5.2942,-5.2942,-5.3179,-5.345,-5.3078,-5.3179,-5.345,-5.3044,-5.3179,-5.3518,-5.3518,-5.3518,-5.3518,-5.3518,-5.3518,-5.3518,-5.3518,-5.3518,-5.3518,-5.3518,-5.3518,-5.3518,-5.3518,-5.3788,-5.416,-5.4532,-5.5209,-5.5953,-5.6697,-5.7408,-5.7881,-5.7881,-5.7881,-5.7881,-5.7881,-5.7881,-5.7746,-5.7374,-5.7036,-5.6833,-5.6765,-5.6122,-5.5886,-5.6224,-5.5547,-5.5141,-5.5141,-5.4431,-5.3856,-5.3518,-5.3518,-5.3518,-5.3518,-5.3518,-5.3518,-5.3518,-5.3518,-5.3518,0.0,0.0,0.0,0.0,0.0,0.0,0.0,0.0,0.0,0.0,0.0,0.0,0.0,0.0,0.0,0.0,0.0,0.0,0.0,0.0,0.0,0.0,0.0,0.0,0.0,0.0,0.0,0.0,0.0,-5.0813,-5.0813,-5.0712,-5.0646,-5.0646,-5.0518,-5.0434,-5.0434,-4.9851,-4.9526,-4.9526,-4.8917,-4.868,-4.8849,-5.0067,-5.0678,-5.0845,-5.098,-5.0947,-5.0813,-5.0813,-5.0913,-5.1014,-5.0881,-5.1354,-5.2131,-5.2131,-5.2536,-5.301,-5.2334,-5.257,-5.301,-5.2334,-5.2672,-5.3281,-5.3281,-5.3382,-5.3518,-5.3518,-5.3518,-5.3518,-5.3518,-5.3518,-5.3518,-5.3518,-5.3518,-5.3518,-5.3518,-5.3518,-5.3687,-5.4296,-5.46,-5.5209,-5.6562,-5.7408,-5.7881,-5.7881,-5.7881,-5.7881,-5.7881,-5.7881,-5.778,-5.7543,-5.6562,-5.6325,-5.7408,-5.5953,-5.5547,-5.69,-5.6325,-5.5919,-5.5919,-5.5074,-5.4296,-5.3687,-5.3551,-5.3518,-5.3518,-5.3518,-5.3518,-5.3518,-5.3518,-5.3518,0.0,0.0,0.0,0.0,0.0,0.0,0.0,0.0,0.0,0.0,0.0,0.0,0.0,0.0,0.0,0.0,0.0,0.0,0.0,0.0,0.0,0.0,0.0,0.0,0.0,0.0,0.0,0.0,-4.8951,-4.9289,-4.9289,-4.8695,-4.8332,-4.8332,-4.7736,-4.7382,-4.7382,-4.7289,-4.7225,-4.7225,-4.7124,-4.7428,-4.8041,-4.8244,-4.8714,-4.9323,-4.9965,-4.9864,-4.9289,-4.9289,-4.9661,-5.0202,-4.9538,-5.0143,-5.1352,-5.1352,-5.1388,-5.1488,-5.1386,-5.142,-5.1488,-5.1386,-5.186,-5.2469,-5.2469,-5.2942,-5.3518,-5.3518,-5.3518,-5.3518,-5.3518,-5.3518,-5.3518,-5.3518,-5.3518,-5.3518,-5.3518,-5.3518,-5.3551,-5.3619,-5.4702,-5.5818,-5.6664,-5.7408,-5.7881,-5.7881,-5.7881,-5.7881,-5.7881,-5.7881,-5.7408,-5.6156,-5.6393,-5.6461,-5.6055,-5.6325,-5.6867,-5.7679,-5.707,-5.6664,-5.6664,-5.531,-5.4532,-5.4465,-5.3822,-5.3518,-5.3518,-5.3518,-5.3518,-5.3518,-5.3518,-5.3518,0.0,0.0,0.0,0.0,0.0,0.0,0.0,0.0,0.0,0.0,0.0,0.0,0.0,0.0,0.0,0.0,0.0,0.0,0.0,0.0,0.0,0.0,0.0,0.0,0.0,0.0,0.0,0.0,-4.7564,-4.7767,-4.7767,-4.746,-4.7298,-4.7275,-4.6995,-4.68,-4.68,-4.6801,-4.6786,-4.6786,-4.6786,-4.6955,-4.7293,-4.7293,-4.7902,-4.9018,-4.9357,-4.9289,-4.9018,-4.9018,-4.9187,-4.9458,-4.9128,-4.9666,-5.0574,-5.0574,-5.0845,-5.115,-5.0744,-5.0845,-5.1117,-5.071,-5.1352,-5.23,-5.23,-5.2875,-5.3518,-5.3518,-5.3518,-5.3348,-5.2765,-5.3076,-5.3212,-5.2026,-5.2205,-5.2451,-5.1882,-5.2696,-5.3619,-5.4025,-5.4972,-5.5742,-5.5836,-5.6458,-5.6739,-5.6159,-5.608,-5.608,-5.608,-5.608,-5.5778,-5.5154,-5.4984,-5.5254,-5.5921,-5.5525,-5.5984,-5.7777,-5.7205,-5.7002,-5.7408,-5.5987,-5.493,-5.4328,-5.3784,-5.3518,-5.3518,-5.3518,-5.3518,-5.3518,-5.3518,-5.3518,0.0,0.0,0.0,0.0,0.0,0.0,0.0,0.0,0.0,0.0,0.0,0.0,0.0,0.0,0.0,0.0,0.0,0.0,0.0,0.0,0.0,0.0,0.0,0.0,0.0,0.0,0.0,0.0,-4.6684,-4.6718,-4.6515,-4.6327,-4.617,-4.5938,-4.5733,-4.5651,-4.5651,-4.564,-4.5744,-4.5883,-4.5883,-4.6136,-4.6515,-4.6275,-4.6888,-4.8133,-4.8303,-4.8371,-4.8373,-4.8813,-4.8847,-4.8673,-4.8904,-4.9333,-4.983,-4.983,-5.0008,-5.0219,-4.9648,-4.9687,-4.9859,-4.9491,-5.0226,-5.1328,-5.1495,-5.2267,-5.311,-5.311,-5.311,-5.2904,-5.2101,-5.2312,-5.2345,-5.0741,-5.0968,-5.1303,-5.055,-5.1594,-5.2967,-5.3781,-5.441,-5.4852,-5.4825,-5.5378,-5.5498,-5.4713,-5.4589,-5.4525,-5.4374,-5.4461,-5.4429,-5.4077,-5.3716,-5.4043,-5.5404,-5.4528,-5.481,-5.6934,-5.6571,-5.6504,-5.7039,-5.5833,-5.47,-5.3722,-5.3205,-5.2863,-5.2731,-5.2972,-5.2939,-5.2731,-5.3246,-5.3348,0.0,0.0,0.0,0.0,0.0,0.0,0.0,0.0,0.0,0.0,0.0,0.0,0.0,0.0,0.0,0.0,0.0,0.0,0.0,0.0,0.0,0.0,0.0,0.0,0.0,0.0,0.0,0.0,-4.638,-4.6481,-4.5805,-4.5085,-4.4356,-4.3614,-4.2919,-4.2516,-4.2516,-4.247,-4.2789,-4.3482,-4.3482,-4.4268,-4.5742,-4.4903,-4.4962,-4.572,-4.6352,-4.6616,-4.6749,-4.8354,-4.8488,-4.777,-4.8663,-4.9019,-4.9052,-4.9052,-4.8517,-4.777,-4.7737,-4.7169,-4.6574,-4.7177,-4.785,-4.8625,-4.9229,-5.0607,-5.1993,-5.1993,-5.1993,-5.1957,-5.1921,-5.1229,-5.0512,-5.0435,-5.0435,-5.0435,-5.0397,-5.0474,-5.0855,-5.1846,-5.2362,-5.2953,-5.3907,-5.4388,-5.4672,-5.463,-5.4589,-5.4374,-5.3734,-5.4214,-5.4118,-5.2773,-5.314,-5.3524,-5.3597,-5.3574,-5.3903,-5.4691,-5.4764,-5.4723,-5.4796,-5.4008,-5.3302,-5.2597,-5.1891,-5.1186,-5.055,-5.1521,-5.1488,-5.0589,-5.2557,-5.2939,0.0,0.0,0.0,0.0,0.0,0.0,0.0,0.0,0.0,0.0,0.0,0.0,0.0,0.0,0.0,0.0,0.0,0.0,0.0,0.0,0.0,0.0,0.0,0.0,0.0,0.0,0.0,0.0,0.0,-4.3581,-4.2827,-4.2562,-4.2061,-4.1239,-4.1471,-4.1598,-4.1599,-4.1056,-4.0929,-4.1188,-4.1614,-4.2124,-4.2722,-4.3363,-4.3508,-4.3298,-4.3945,-4.456,-4.5111,-4.6603,-4.673,-4.6115,-4.6896,-4.757,-4.8032,-4.7406,-4.7373,-4.7506,-4.6934,-4.6488,-4.6272,-4.6493,-4.7357,-4.8349,-4.8605,-4.9732,-5.093,-5.093,-5.093,-5.0779,-5.0094,-5.0165,-5.0242,-4.9536,-4.8882,-4.8418,-4.8418,-4.9487,-5.064,-5.1474,-5.2112,-5.2524,-5.2603,-5.3112,-5.3253,-5.253,-5.2027,-5.1857,-5.2072,-5.1918,-5.172,-5.169,-5.1904,-5.2294,-5.3052,-5.3095,-5.3533,-5.4547,-5.4589,-5.4589,-5.4589,-5.3876,-5.3067,-5.2146,-5.1372,-5.079,-5.0397,-5.0741,-5.0741,-5.0397,-5.1187,-5.1299,0.0,0.0,0.0,0.0,0.0,0.0,0.0,0.0,0.0,0.0,0.0,0.0,0.0,0.0,0.0,0.0,0.0,0.0,0.0,0.0,0.0,0.0,0.0,0.0,0.0,0.0,0.0,0.0,0.0,0.0,-4.0899,-4.0823,-4.0358,-3.9296,-3.9791,-4.0029,-3.9997,-3.9457,-3.9309,-3.9563,-4.0008,-4.0355,-4.0698,-4.1655,-4.1788,-4.1275,-4.1639,-4.2399,-4.34,-4.424,-4.4622,-4.4763,-4.5108,-4.6022,-4.707,-4.6419,-4.6416,-4.659,-4.5957,-4.5525,-4.5264,-4.5483,-4.6203,-4.7025,-4.7206,-4.8355,-4.9543,-4.9543,-4.9662,-4.9694,-4.9004,-4.9085,-4.9166,-4.846,-4.7807,-4.7309,-4.7309,-4.8377,-4.9613,-5.0422,-5.1033,-5.1476,-5.1518,-5.1959,-5.2002,-5.0993,-5.0465,-5.0285,-5.0541,-5.0315,-5.0375,-5.084,-5.1079,-5.1526,-5.226,-5.2305,-5.2664,-5.3396,-5.3439,-5.3439,-5.3439,-5.2989,-5.23,-5.1369,-5.0866,-5.0414,-5.0056,-5.0128,-5.0002,-4.9712,-5.0175,-5.0397,0.0,0.0,0.0,0.0,0.0,0.0,0.0,0.0,0.0,0.0,0.0,0.0,0.0,0.0,0.0,0.0,0.0,0.0,0.0,0.0,0.0,0.0,0.0,0.0,0.0,0.0,0.0,0.0,-4.2165,-4.1533,-4.0056,-3.9991,-3.928,-3.7826,-3.774,-3.77,-3.7591,-3.756,-3.79,-3.8614,-3.8614,-3.9094,-3.9868,-3.9719,-3.9637,-3.9601,-3.9476,-4.0248,-4.1569,-4.1398,-4.2257,-4.3665,-4.337,-4.4423,-4.6106,-4.6106,-4.553,-4.4812,-4.4774,-4.412,-4.3409,-4.4077,-4.4287,-4.4436,-4.5065,-4.6407,-4.7747,-4.7778,-4.8202,-4.8728,-4.8728,-4.803,-4.7309,-4.7309,-4.7309,-4.7309,-4.7309,-4.7309,-4.7581,-4.8553,-4.9053,-4.9597,-5.0556,-5.097,-5.093,-5.0255,-5.0136,-4.9972,-4.9419,-4.9823,-5.0196,-5.0226,-5.0794,-5.1229,-5.1229,-5.1229,-5.1229,-5.1229,-5.1229,-5.1229,-5.1229,-5.1229,-5.0883,-5.0226,-5.0226,-4.9942,-4.9359,-4.9641,-4.9261,-4.8311,-4.968,-5.032,-2.7771,0.0,0.0,0.0,0.0,0.0,0.0,0.0,0.0,0.0,0.0,0.0,0.0,0.0,0.0,0.0,0.0,0.0,0.0,0.0,0.0,0.0,0.0,0.0,0.0,0.0,0.0,0.0,-3.906,-3.8621,-3.7636,-3.7033,-3.6804,-3.6949,-3.6405,-3.6382,-3.6848,-3.6376,-3.6177,-3.639,-3.6874,-3.7218,-3.748,-3.8515,-3.8626,-3.8084,-3.9161,-3.949,-3.9345,-3.9778,-4.0516,-4.1382,-4.1768,-4.2978,-4.4372,-4.3697,-4.4004,-4.4699,-4.3966,-4.3527,-4.3319,-4.3499,-4.3888,-4.4347,-4.4526,-4.524,-4.609,-4.6603,-4.6875,-4.7117,-4.7601,-4.7495,-4.7309,-4.7309,-4.7309,-4.7309,-4.7309,-4.7309,-4.7366,-4.7636,-4.8186,-4.8669,-4.8947,-4.9449,-4.9733,-4.9553,-4.9134,-4.9105,-4.9883,-4.9733,-4.9883,-5.084,-5.1109,-5.1229,-5.1229,-5.1229,-5.1229,-5.1229,-5.1229,-5.1229,-5.1229,-5.1229,-5.1139,-5.096,-5.0913,-5.087,-5.069,-4.9357,-4.8544,-4.8311,-4.8195,-4.8157,0.0,0.0,0.0,0.0,0.0,0.0,-3.0051,-3.0173,0.0,0.0,0.0,0.0,0.0,0.0,0.0,0.0,0.0,0.0,0.0,0.0,0.0,0.0,0.0,0.0,0.0,-3.8176,-3.7978,-3.7819,-3.7793,-3.7433,-3.6621,-3.5361,-3.5118,-3.6107,-3.5457,-3.5439,-3.6134,-3.5686,-3.5519,-3.5519,-3.5908,-3.6088,-3.6121,-3.7251,-3.7521,-3.7079,-3.8223,-3.8611,-3.8452,-3.9134,-3.9822,-4.0554,-4.098,-4.17,-4.2498,-4.2423,-4.3007,-4.3724,-4.3437,-4.329,-4.329,-4.329,-4.3559,-4.3858,-4.3858,-4.4377,-4.4975,-4.5364,-4.5903,-4.6429,-4.713,-4.7309,-4.7309,-4.7309,-4.7309,-4.7309,-4.7309,-4.7309,-4.7309,-4.7309,-4.7848,-4.8297,-4.8297,-4.888,-4.9209,-4.894,-4.8536,-4.8656,-4.9703,-4.9494,-4.9763,-5.1079,-5.1229,-5.1229,-5.1229,-5.1229,-5.1229,-5.1229,-5.1229,-5.1229,-5.1229,-5.1229,-5.1229,-5.1229,-5.1229,-5.096,-5.0391,-4.9254,-4.8416,-4.7878,-4.7489,-4.7309,0.0,0.0,0.0,0.0,0.0,0.0,-2.9989,-2.9694,-2.948,0.0,0.0,0.0,0.0,0.0,0.0,0.0,0.0,0.0,0.0,0.0,0.0,0.0,0.0,0.0,-3.7419,-3.6905,-3.6781,-3.7274,-3.7306,-3.6999,-3.6292,-3.4509,-3.4077,-3.5254,-3.4696,-3.4693,-3.54,-3.54,-3.5429,-3.5519,-3.5519,-3.5519,-3.5519,-3.6118,-3.6387,-3.6417,-3.7045,-3.7644,-3.8247,-3.9003,-3.9781,-4.0568,-4.0568,-4.0569,-4.0702,-4.1795,-4.2261,-4.25,-4.303,-4.323,-4.329,-4.329,-4.329,-4.329,-4.329,-4.3708,-4.4227,-4.4287,-4.5214,-4.6309,-4.701,-4.7189,-4.7219,-4.7279,-4.7309,-4.7309,-4.7309,-4.7309,-4.7309,-4.7309,-4.7788,-4.8177,-4.8177,-4.8656,-4.891,-4.8267,-4.8177,-4.8416,-4.912,-4.9269,-4.9733,-5.099,-5.1169,-5.1229,-5.1229,-5.1229,-5.1229,-5.1229,-5.1229,-5.1229,-5.1229,-5.1229,-5.1229,-5.1229,-5.1229,-5.0571,-4.9299,-4.9299,-4.8596,-4.7309,-4.7309,-4.7309,0.0,0.0,0.0,0.0,0.0,0.0,-2.8849,-2.8799,-2.8897,0.0,0.0,0.0,0.0,0.0,0.0,0.0,0.0,0.0,0.0,0.0,0.0,0.0,0.0,0.0,-3.531,-3.5185,-3.4893,-3.4364,-3.4334,-3.4273,-3.4091,-3.3735,-3.3617,-3.3876,-3.3788,-3.4022,-3.4713,-3.4713,-3.4951,-3.5519,-3.5519,-3.5519,-3.5519,-3.5639,-3.5699,-3.5729,-3.6387,-3.6746,-3.6956,-3.8132,-3.9032,-3.9649,-3.9649,-3.9652,-3.9728,-4.0532,-4.1444,-4.241,-4.253,-4.288,-4.329,-4.329,-4.329,-4.329,-4.329,-4.3379,-4.3589,-4.4167,-4.4885,-4.5663,-4.6322,-4.6531,-4.6651,-4.7189,-4.7309,-4.7309,-4.7309,-4.7309,-4.7309,-4.7309,-4.7399,-4.7489,-4.7489,-4.7608,-4.7638,-4.7519,-4.7489,-4.7728,-4.8386,-4.9,-4.9553,-5.0315,-5.09,-5.1229,-5.1229,-5.1229,-5.1229,-5.1229,-5.1229,-5.1229,-5.1229,-5.1229,-5.1229,-5.1229,-5.1229,-5.0571,-4.9299,-4.9299,-4.8596,-4.7309,-4.7309,-4.7309,0.0,0.0,0.0,-2.8603,0.0,0.0,0.0,-2.852,-2.8374,0.0,0.0,0.0,0.0,0.0,0.0,0.0,0.0,0.0,0.0,0.0,0.0,0.0,0.0,0.0,-3.3052,-3.2806,-3.2725,-3.2976,-3.3006,-3.3155,-3.3484,-3.2881,-3.2796,-3.3502,-3.3153,-3.3306,-3.3963,-3.4354,-3.4683,-3.5011,-3.534,-3.5519,-3.5519,-3.5519,-3.5519,-3.5519,-3.5848,-3.6178,-3.6537,-3.7165,-3.8192,-3.9379,-3.9385,-3.939,-3.9496,-4.018,-4.1025,-4.1961,-4.2291,-4.2791,-4.329,-4.329,-4.329,-4.329,-4.329,-4.329,-4.3439,-4.4137,-4.4556,-4.5035,-4.6052,-4.6279,-4.6459,-4.716,-4.7309,-4.7309,-4.7309,-4.7309,-4.7309,-4.7309,-4.7309,-4.7309,-4.7309,-4.7309,-4.7309,-4.7309,-4.7309,-4.7549,-4.8207,-4.8566,-4.9164,-5.0076,-5.0495,-5.0823,-5.1199,-5.1229,-5.1229,-5.1229,-5.1229,-5.1229,-5.1229,-5.1229,-5.1229,-5.1229,-5.1229,-5.0571,-4.9299,-4.9299,-4.8596,-4.7309,-4.7309,-4.7309,0.0,0.0,0.0,0.0,0.0,-2.8914,0.0,0.0,0.0,0.0,0.0,0.0,0.0,0.0,0.0,0.0,0.0,0.0,0.0,0.0,0.0,0.0,0.0,0.0,0.0,-3.0642,-3.0821,-3.2019,-3.2138,-3.2407,-3.3095,-3.2079,-3.2013,-3.3083,-3.2576,-3.2643,-3.3306,-3.3964,-3.4384,-3.4503,-3.519,-3.5519,-3.5519,-3.5519,-3.5519,-3.5519,-3.5519,-3.5818,-3.6297,-3.6447,-3.7327,-3.8697,-3.9062,-3.932,-3.9499,-4.0008,-4.0636,-4.1294,-4.1991,-4.2611,-4.314,-4.326,-4.329,-4.329,-4.329,-4.329,-4.3409,-4.3988,-4.4227,-4.4586,-4.5813,-4.619,-4.6459,-4.716,-4.7309,-4.7309,-4.7309,-4.7309,-4.7309,-4.7309,-4.7309,-4.7309,-4.7309,-4.7309,-4.7309,-4.7309,-4.7309,-4.7489,-4.8027,-4.8207,-4.8686,-4.9687,-5.0046,-5.0405,-5.0943,-5.1139,-5.1229,-5.1229,-5.1229,-5.1229,-5.1229,-5.1229,-5.1229,-5.1229,-5.1229,-5.0631,-4.9464,-4.9389,-4.8596,-4.7309,-4.7309,-4.7309,0.0,0.0,0.0,0.0,-2.9562,0.0,0.0,0.0,-2.8364,-2.7926,0.0,0.0,0.0,0.0,0.0,0.0,0.0,0.0,0.0,0.0,0.0,0.0,0.0,0.0,0.0,-2.9771,-2.9983,-3.0672,-3.0731,-3.1031,-3.169,-3.16,-3.1569,-3.1717,-3.1658,-3.1925,-3.261,-3.3276,-3.3903,-3.4503,-3.519,-3.5519,-3.5519,-3.5519,-3.5519,-3.5519,-3.5519,-3.5549,-3.5669,-3.6237,-3.6287,-3.6086,-3.7844,-3.8871,-3.9403,-3.9499,-3.9948,-4.0606,-4.1265,-4.1961,-4.262,-4.315,-4.329,-4.329,-4.329,-4.329,-4.3319,-4.3379,-4.3828,-4.4496,-4.5214,-4.5873,-4.6459,-4.716,-4.7309,-4.7309,-4.7309,-4.7309,-4.7309,-4.7309,-4.7309,-4.7309,-4.7309,-4.7309,-4.7309,-4.7309,-4.7309,-4.7339,-4.7399,-4.7938,-4.8356,-4.8506,-4.9553,-5.0226,-5.0315,-5.0853,-5.1229,-5.1229,-5.1229,-5.1229,-5.1229,-5.1229,-5.1229,-5.1229,-5.1229,-5.087,-5.0076,-4.9553,-4.8596,-4.7309,-4.7309,-4.7309,0.0,0.0,0.0,0.0,0.0,0.0,-2.9774,0.0,-2.8637,0.0,0.0,0.0,0.0,0.0,0.0,0.0,0.0,0.0,0.0,0.0,0.0,0.0,0.0,0.0,0.0,0.0,0.0,0.0,-3.0073,-3.0617,-3.0922,-3.1304,-3.1511,-3.1511,-3.1511,-3.1658,-3.1924,-3.2557,-3.3066,-3.3335,-3.4412,-3.4921,-3.4921,-3.531,-3.5519,-3.5519,-3.5519,-3.5519,-3.5519,-3.5789,-3.5743,-3.5663,-3.7212,-3.8467,-3.9384,-3.9385,-4.0068,-4.0995,-4.1294,-4.2073,-4.297,-4.32,-4.329,-4.329,-4.329,-4.329,-4.329,-4.329,-4.3768,-4.4466,-4.5125,-4.5813,-4.6459,-4.716,-4.7309,-4.7309,-4.7309,-4.7309,-4.7309,-4.7309,-4.7309,-4.7309,-4.7309,-4.7309,-4.7309,-4.7309,-4.7309,-4.7309,-4.7309,-4.7549,-4.7878,-4.8237,-4.8775,-4.9404,-5.0136,-5.0435,-5.0764,-5.1199,-5.1229,-5.1229,-5.1229,-5.1229,-5.1229,-5.1229,-5.1229,-5.0853,-5.0196,-4.9972,-4.9164,-4.7878,-4.7489,-4.7309,-3.1511,0.0,0.0,0.0,0.0,0.0,0.0,0.0,0.0,0.0,0.0,0.0,0.0,0.0,0.0,0.0,0.0,0.0,0.0,0.0,0.0,0.0,0.0,0.0,0.0,0.0,0.0,-2.8577,-2.9475,-3.0114,-3.0482,-3.0952,-3.1304,-3.1511,-3.1511,-3.1511,-3.1511,-3.2138,-3.2527,-3.2527,-3.3844,-3.4503,-3.4533,-3.519,-3.5519,-3.5519,-3.5519,-3.5519,-3.5519,-3.5519,-3.5478,-3.5644,-3.6918,-3.8211,-3.9425,-3.9397,-4.0127,-4.1145,-4.1324,-4.2252,-4.329,-4.329,-4.329,-4.329,-4.329,-4.3409,-4.3559,-4.3559,-4.4197,-4.4975,-4.5454,-4.6082,-4.6711,-4.7189,-4.7309,-4.7309,-4.7309,-4.7309,-4.7309,-4.7309,-4.7309,-4.7309,-4.7309,-4.7309,-4.7309,-4.7309,-4.7309,-4.7309,-4.7309,-4.7309,-4.7489,-4.7967,-4.8177,-4.8656,-4.9613,-4.9986,-5.0465,-5.1169,-5.1229,-5.1229,-5.1229,-5.1229,-5.1229,-5.1229,-5.1229,-5.0943,-5.0465,-5.0285,-4.9673,-4.8536,-4.7878,-4.7489,0.0,0.0,0.0,-3.1511,0.0,0.0,0.0,0.0,-3.0283,0.0,0.0,0.0,0.0,0.0,0.0,0.0,0.0,0.0,0.0,0.0,0.0,0.0,0.0,0.0,0.0,0.0,0.0,-2.8547,-2.8637,-2.919,-3.0423,-3.0542,-3.0835,-3.1481,-3.1511,-3.1511,-3.1511,-3.2138,-3.2527,-3.2527,-3.3844,-3.4503,-3.4533,-3.519,-3.5519,-3.5519,-3.5519,-3.5519,-3.5519,-3.5519,-3.5519,-3.5639,-3.6926,-3.8193,-3.9394,-3.9409,-3.9858,-4.0516,-4.1145,-4.2252,-4.329,-4.329,-4.329,-4.329,-4.329,-4.3738,-4.4287,-4.4287,-4.5244,-4.6219,-4.6249,-4.677,-4.7279,-4.7309,-4.7309,-4.7309,-4.7309,-4.7309,-4.7309,-4.7309,-4.7309,-4.7309,-4.7309,-4.7309,-4.7309,-4.7309,-4.7309,-4.7309,-4.7309,-4.7309,-4.7309,-4.7339,-4.7908,-4.8297,-4.8356,-4.9523,-5.0465,-5.1169,-5.1229,-5.1229,-5.1229,-5.1229,-5.1229,-5.1229,-5.1229,-5.1199,-5.1199,-5.0495,-4.9883,-4.9269,-4.8566,-4.7908,0.0,0.0,-3.1511,-3.1511,0.0,0.0,0.0,0.0,0.0,0.0,0.0,0.0,0.0,0.0,0.0,0.0,0.0,0.0,0.0,0.0,0.0,0.0,0.0,0.0,0.0,0.0,0.0,-2.7914,-2.8338,-2.8978,-2.9875,-3.0263,-3.0805,-3.1481,-3.1511,-3.1511,-3.1511,-3.172,-3.1839,-3.1839,-3.3215,-3.3814,-3.3873,-3.4981,-3.5519,-3.5519,-3.5519,-3.5519,-3.5519,-3.5519,-3.5519,-3.5639,-3.6896,-3.8228,-3.9394,-3.9379,-4.0098,-4.1205,-4.2312,-4.2931,-4.329,-4.329,-4.329,-4.329,-4.329,-4.3738,-4.4317,-4.4317,-4.5274,-4.6279,-4.6279,-4.68,-4.7309,-4.7309,-4.7309,-4.7309,-4.7309,-4.7309,-4.7309,-4.7309,-4.7309,-4.7309,-4.7309,-4.7309,-4.7309,-4.7309,-4.7309,-4.7309,-4.7309,-4.7309,-4.7309,-4.7309,-4.7489,-4.7818,-4.8237,-4.9494,-5.0465,-5.1169,-5.1229,-5.1229,-5.1229,-5.1229,-5.1229,-5.1229,-5.1229,-5.1229,-5.1229,-5.0524,-4.9912,-4.9299,-4.8596,-4.7938,-3.1511,-3.1511,0.0,-3.1511,-3.1511,0.0,-3.1511,0.0,0.0,0.0,0.0,0.0,0.0,0.0,0.0,0.0,0.0,0.0,0.0,-2.7585,0.0,0.0,0.0,0.0,0.0,0.0,-2.7585,-2.7585,-2.8004,-2.8656,0.0,0.0,-3.0593,-3.1481,-3.1511,-3.1511,-3.1511,-3.1511,-3.1511,-3.1511,-3.2856,-3.3484,-3.3544,-3.4891,-3.5519,-3.5519,-3.5519,-3.5519,-3.5519,-3.5519,-3.5484,-3.5627,-3.6764,-3.809,-3.9378,-3.9403,-4.0247,-4.1564,-4.288,-4.329,-4.329,-4.329,-4.329,-4.3349,-4.3559,-4.3947,-4.4466,-4.5185,-4.5843,-4.6399,-4.689,-4.716,-4.7309,-4.7309,-4.7309,-4.7309,-4.7309,-4.7309,-4.7309,-4.7309,-4.7309,-4.7309,-4.7309,-4.7309,-4.7309,-4.7309,-4.7309,-4.7309,-4.7309,-4.7309,-4.7309,-4.7309,-4.7309,-4.7578,-4.8237,-4.9284,-5.0182,-5.0794,-5.1079,-5.1229,-5.1229,-5.1229,-5.1439,-5.1917,-5.1439,-5.1319,-5.1558,-5.0614,-4.9793,-4.894,-4.8476,-4.7938]}]]